<?xml version="1.0" encoding="UTF-8" standalone="no" ?>
<gpx xmlns="http://www.topografix.com/GPX/1/1" xmlns:xsi="http://www.w3.org/2001/XMLSchema-instance" xsi:schemaLocation="http://www.topografix.com/GPX/1/1 http://www.topografix.com/GPX/1/1/gpx.xsd" version="1.1" creator="VisuGPX - https://www.visugpx.com">
  <metadata>
    <name>2010 06 13 VTT Auchy les Hesdin</name>
    <desc><![CDATA[le 41.47 kms ]]></desc>
  </metadata>
  <trk>
    <name><![CDATA[2010-06-13T06:22:52Z]]></name>
    <trkseg>
      <trkpt lat="50.39661" lon="2.10163">
        <ele>34.2641602</ele>
        <time>2010-06-13T06:22:53Z</time>
      </trkpt>
      <trkpt lat="50.39661" lon="2.10184">
        <ele>36.6674805</ele>
        <time>2010-06-13T06:23:00Z</time>
      </trkpt>
      <trkpt lat="50.39667" lon="2.10214">
        <ele>39.0706787</ele>
        <time>2010-06-13T06:23:06Z</time>
      </trkpt>
      <trkpt lat="50.39676" lon="2.10248">
        <ele>41.9547119</ele>
        <time>2010-06-13T06:23:15Z</time>
      </trkpt>
      <trkpt lat="50.39685" lon="2.10275">
        <ele>44.3580322</ele>
        <time>2010-06-13T06:23:21Z</time>
      </trkpt>
      <trkpt lat="50.39694" lon="2.10317">
        <ele>45.3192139</ele>
        <time>2010-06-13T06:23:29Z</time>
      </trkpt>
      <trkpt lat="50.39698" lon="2.10336">
        <ele>45.7999268</ele>
        <time>2010-06-13T06:23:33Z</time>
      </trkpt>
      <trkpt lat="50.39706" lon="2.1034">
        <ele>45.7999268</ele>
        <time>2010-06-13T06:23:37Z</time>
      </trkpt>
      <trkpt lat="50.39712" lon="2.10336">
        <ele>46.2806396</ele>
        <time>2010-06-13T06:23:39Z</time>
      </trkpt>
      <trkpt lat="50.39743" lon="2.10305">
        <ele>48.2033691</ele>
        <time>2010-06-13T06:23:47Z</time>
      </trkpt>
      <trkpt lat="50.39768" lon="2.10272">
        <ele>46.7612305</ele>
        <time>2010-06-13T06:23:54Z</time>
      </trkpt>
      <trkpt lat="50.39784" lon="2.10256">
        <ele>46.2806396</ele>
        <time>2010-06-13T06:23:58Z</time>
      </trkpt>
      <trkpt lat="50.39815" lon="2.10238">
        <ele>45.7999268</ele>
        <time>2010-06-13T06:24:05Z</time>
      </trkpt>
      <trkpt lat="50.39856" lon="2.10215">
        <ele>46.2806396</ele>
        <time>2010-06-13T06:24:14Z</time>
      </trkpt>
      <trkpt lat="50.39884" lon="2.10199">
        <ele>46.2806396</ele>
        <time>2010-06-13T06:24:20Z</time>
      </trkpt>
      <trkpt lat="50.39899" lon="2.10192">
        <ele>46.2806396</ele>
        <time>2010-06-13T06:24:24Z</time>
      </trkpt>
      <trkpt lat="50.39906" lon="2.10171">
        <ele>46.7612305</ele>
        <time>2010-06-13T06:24:28Z</time>
      </trkpt>
      <trkpt lat="50.39905" lon="2.1016">
        <ele>45.7999268</ele>
        <time>2010-06-13T06:24:30Z</time>
      </trkpt>
      <trkpt lat="50.39903" lon="2.10149">
        <ele>44.838623</ele>
        <time>2010-06-13T06:24:32Z</time>
      </trkpt>
      <trkpt lat="50.39903" lon="2.10133">
        <ele>44.838623</ele>
        <time>2010-06-13T06:24:36Z</time>
      </trkpt>
      <trkpt lat="50.3991" lon="2.10123">
        <ele>45.3192139</ele>
        <time>2010-06-13T06:24:39Z</time>
      </trkpt>
      <trkpt lat="50.39921" lon="2.10106">
        <ele>44.838623</ele>
        <time>2010-06-13T06:24:43Z</time>
      </trkpt>
      <trkpt lat="50.39942" lon="2.10077">
        <ele>43.8773193</ele>
        <time>2010-06-13T06:24:50Z</time>
      </trkpt>
      <trkpt lat="50.39973" lon="2.10046">
        <ele>42.9160156</ele>
        <time>2010-06-13T06:24:58Z</time>
      </trkpt>
      <trkpt lat="50.3998" lon="2.10039">
        <ele>43.3966064</ele>
        <time>2010-06-13T06:25:00Z</time>
      </trkpt>
      <trkpt lat="50.39989" lon="2.10019">
        <ele>44.3580322</ele>
        <time>2010-06-13T06:25:05Z</time>
      </trkpt>
      <trkpt lat="50.39987" lon="2.10008">
        <ele>43.3966064</ele>
        <time>2010-06-13T06:25:07Z</time>
      </trkpt>
      <trkpt lat="50.39983" lon="2.09975">
        <ele>43.3966064</ele>
        <time>2010-06-13T06:25:12Z</time>
      </trkpt>
      <trkpt lat="50.39996" lon="2.09939">
        <ele>41.9547119</ele>
        <time>2010-06-13T06:25:19Z</time>
      </trkpt>
      <trkpt lat="50.40005" lon="2.09912">
        <ele>41.9547119</ele>
        <time>2010-06-13T06:25:25Z</time>
      </trkpt>
      <trkpt lat="50.40019" lon="2.09885">
        <ele>41.9547119</ele>
        <time>2010-06-13T06:25:32Z</time>
      </trkpt>
      <trkpt lat="50.40023" lon="2.09878">
        <ele>41.9547119</ele>
        <time>2010-06-13T06:25:34Z</time>
      </trkpt>
      <trkpt lat="50.40023" lon="2.09851">
        <ele>42.4354248</ele>
        <time>2010-06-13T06:25:39Z</time>
      </trkpt>
      <trkpt lat="50.40024" lon="2.09813">
        <ele>42.9160156</ele>
        <time>2010-06-13T06:25:45Z</time>
      </trkpt>
      <trkpt lat="50.40024" lon="2.09809">
        <ele>42.9160156</ele>
        <time>2010-06-13T06:25:46Z</time>
      </trkpt>
      <trkpt lat="50.40033" lon="2.09809">
        <ele>43.3966064</ele>
        <time>2010-06-13T06:25:51Z</time>
      </trkpt>
      <trkpt lat="50.40043" lon="2.09805">
        <ele>43.8773193</ele>
        <time>2010-06-13T06:25:54Z</time>
      </trkpt>
      <trkpt lat="50.40065" lon="2.09788">
        <ele>43.8773193</ele>
        <time>2010-06-13T06:26:00Z</time>
      </trkpt>
      <trkpt lat="50.40077" lon="2.09777">
        <ele>43.8773193</ele>
        <time>2010-06-13T06:26:04Z</time>
      </trkpt>
      <trkpt lat="50.40103" lon="2.09755">
        <ele>43.8773193</ele>
        <time>2010-06-13T06:26:12Z</time>
      </trkpt>
      <trkpt lat="50.40123" lon="2.09745">
        <ele>44.838623</ele>
        <time>2010-06-13T06:26:19Z</time>
      </trkpt>
      <trkpt lat="50.40141" lon="2.09732">
        <ele>46.2806396</ele>
        <time>2010-06-13T06:26:26Z</time>
      </trkpt>
      <trkpt lat="50.40155" lon="2.09721">
        <ele>46.7612305</ele>
        <time>2010-06-13T06:26:32Z</time>
      </trkpt>
      <trkpt lat="50.40168" lon="2.09707">
        <ele>47.2418213</ele>
        <time>2010-06-13T06:26:38Z</time>
      </trkpt>
      <trkpt lat="50.40183" lon="2.09695">
        <ele>48.68396</ele>
        <time>2010-06-13T06:26:43Z</time>
      </trkpt>
      <trkpt lat="50.40198" lon="2.09678">
        <ele>52.5291748</ele>
        <time>2010-06-13T06:26:49Z</time>
      </trkpt>
      <trkpt lat="50.40214" lon="2.09664">
        <ele>54.4517822</ele>
        <time>2010-06-13T06:26:55Z</time>
      </trkpt>
      <trkpt lat="50.4023" lon="2.09655">
        <ele>59.2584229</ele>
        <time>2010-06-13T06:27:01Z</time>
      </trkpt>
      <trkpt lat="50.40245" lon="2.09652">
        <ele>63.1036377</ele>
        <time>2010-06-13T06:27:07Z</time>
      </trkpt>
      <trkpt lat="50.40267" lon="2.09649">
        <ele>65.0263672</ele>
        <time>2010-06-13T06:27:14Z</time>
      </trkpt>
      <trkpt lat="50.40286" lon="2.09649">
        <ele>66.9489746</ele>
        <time>2010-06-13T06:27:19Z</time>
      </trkpt>
      <trkpt lat="50.40305" lon="2.09643">
        <ele>66.9489746</ele>
        <time>2010-06-13T06:27:25Z</time>
      </trkpt>
      <trkpt lat="50.4032" lon="2.09635">
        <ele>68.3908691</ele>
        <time>2010-06-13T06:27:31Z</time>
      </trkpt>
      <trkpt lat="50.40342" lon="2.09631">
        <ele>66.9489746</ele>
        <time>2010-06-13T06:27:37Z</time>
      </trkpt>
      <trkpt lat="50.40366" lon="2.09628">
        <ele>63.1036377</ele>
        <time>2010-06-13T06:27:44Z</time>
      </trkpt>
      <trkpt lat="50.40388" lon="2.09628">
        <ele>60.7003174</ele>
        <time>2010-06-13T06:27:51Z</time>
      </trkpt>
      <trkpt lat="50.40405" lon="2.0963">
        <ele>61.1810303</ele>
        <time>2010-06-13T06:27:57Z</time>
      </trkpt>
      <trkpt lat="50.40433" lon="2.09624">
        <ele>59.7391357</ele>
        <time>2010-06-13T06:28:05Z</time>
      </trkpt>
      <trkpt lat="50.40465" lon="2.09622">
        <ele>57.3358154</ele>
        <time>2010-06-13T06:28:14Z</time>
      </trkpt>
      <trkpt lat="50.40488" lon="2.09623">
        <ele>56.8551025</ele>
        <time>2010-06-13T06:28:21Z</time>
      </trkpt>
      <trkpt lat="50.40517" lon="2.09616">
        <ele>57.8165283</ele>
        <time>2010-06-13T06:28:29Z</time>
      </trkpt>
      <trkpt lat="50.40537" lon="2.09609">
        <ele>58.2971191</ele>
        <time>2010-06-13T06:28:35Z</time>
      </trkpt>
      <trkpt lat="50.40564" lon="2.09595">
        <ele>58.77771</ele>
        <time>2010-06-13T06:28:43Z</time>
      </trkpt>
      <trkpt lat="50.40592" lon="2.09586">
        <ele>58.2971191</ele>
        <time>2010-06-13T06:28:51Z</time>
      </trkpt>
      <trkpt lat="50.40618" lon="2.09574">
        <ele>60.7003174</ele>
        <time>2010-06-13T06:28:59Z</time>
      </trkpt>
      <trkpt lat="50.40644" lon="2.09563">
        <ele>62.6229248</ele>
        <time>2010-06-13T06:29:08Z</time>
      </trkpt>
      <trkpt lat="50.40673" lon="2.0955">
        <ele>64.0650635</ele>
        <time>2010-06-13T06:29:18Z</time>
      </trkpt>
      <trkpt lat="50.40692" lon="2.09544">
        <ele>65.0263672</ele>
        <time>2010-06-13T06:29:25Z</time>
      </trkpt>
      <trkpt lat="50.40715" lon="2.09535">
        <ele>65.5070801</ele>
        <time>2010-06-13T06:29:34Z</time>
      </trkpt>
      <trkpt lat="50.40735" lon="2.09525">
        <ele>67.9102783</ele>
        <time>2010-06-13T06:29:42Z</time>
      </trkpt>
      <trkpt lat="50.40754" lon="2.09512">
        <ele>69.8328857</ele>
        <time>2010-06-13T06:29:50Z</time>
      </trkpt>
      <trkpt lat="50.40772" lon="2.09493">
        <ele>71.7554932</ele>
        <time>2010-06-13T06:29:59Z</time>
      </trkpt>
      <trkpt lat="50.40783" lon="2.09478">
        <ele>73.1976318</ele>
        <time>2010-06-13T06:30:05Z</time>
      </trkpt>
      <trkpt lat="50.408" lon="2.09464">
        <ele>74.1588135</ele>
        <time>2010-06-13T06:30:12Z</time>
      </trkpt>
      <trkpt lat="50.40811" lon="2.0947">
        <ele>74.1588135</ele>
        <time>2010-06-13T06:30:16Z</time>
      </trkpt>
      <trkpt lat="50.40823" lon="2.0948">
        <ele>74.1588135</ele>
        <time>2010-06-13T06:30:20Z</time>
      </trkpt>
      <trkpt lat="50.40842" lon="2.095">
        <ele>74.1588135</ele>
        <time>2010-06-13T06:30:26Z</time>
      </trkpt>
      <trkpt lat="50.40865" lon="2.09512">
        <ele>74.1588135</ele>
        <time>2010-06-13T06:30:32Z</time>
      </trkpt>
      <trkpt lat="50.40873" lon="2.09511">
        <ele>74.1588135</ele>
        <time>2010-06-13T06:30:34Z</time>
      </trkpt>
      <trkpt lat="50.40888" lon="2.09517">
        <ele>75.6008301</ele>
        <time>2010-06-13T06:30:38Z</time>
      </trkpt>
      <trkpt lat="50.40895" lon="2.09524">
        <ele>76.0814209</ele>
        <time>2010-06-13T06:30:40Z</time>
      </trkpt>
      <trkpt lat="50.40922" lon="2.09548">
        <ele>78.4847412</ele>
        <time>2010-06-13T06:30:48Z</time>
      </trkpt>
      <trkpt lat="50.40952" lon="2.09568">
        <ele>79.9266357</ele>
        <time>2010-06-13T06:30:57Z</time>
      </trkpt>
      <trkpt lat="50.4097" lon="2.09572">
        <ele>79.9266357</ele>
        <time>2010-06-13T06:31:03Z</time>
      </trkpt>
      <trkpt lat="50.40984" lon="2.0956">
        <ele>79.4460449</ele>
        <time>2010-06-13T06:31:07Z</time>
      </trkpt>
      <trkpt lat="50.40999" lon="2.09531">
        <ele>80.4074707</ele>
        <time>2010-06-13T06:31:13Z</time>
      </trkpt>
      <trkpt lat="50.41021" lon="2.09485">
        <ele>81.3687744</ele>
        <time>2010-06-13T06:31:22Z</time>
      </trkpt>
      <trkpt lat="50.4104" lon="2.0943">
        <ele>81.3687744</ele>
        <time>2010-06-13T06:31:31Z</time>
      </trkpt>
      <trkpt lat="50.41053" lon="2.09387">
        <ele>81.3687744</ele>
        <time>2010-06-13T06:31:38Z</time>
      </trkpt>
      <trkpt lat="50.41078" lon="2.09316">
        <ele>82.810791</ele>
        <time>2010-06-13T06:31:50Z</time>
      </trkpt>
      <trkpt lat="50.41096" lon="2.09257">
        <ele>83.2913818</ele>
        <time>2010-06-13T06:32:00Z</time>
      </trkpt>
      <trkpt lat="50.41094" lon="2.09234">
        <ele>83.7719727</ele>
        <time>2010-06-13T06:32:04Z</time>
      </trkpt>
      <trkpt lat="50.41084" lon="2.0922">
        <ele>83.7719727</ele>
        <time>2010-06-13T06:32:07Z</time>
      </trkpt>
      <trkpt lat="50.41038" lon="2.0917">
        <ele>86.175293</ele>
        <time>2010-06-13T06:32:19Z</time>
      </trkpt>
      <trkpt lat="50.41026" lon="2.09139">
        <ele>87.6171875</ele>
        <time>2010-06-13T06:32:24Z</time>
      </trkpt>
      <trkpt lat="50.4103" lon="2.09112">
        <ele>88.5787354</ele>
        <time>2010-06-13T06:32:28Z</time>
      </trkpt>
      <trkpt lat="50.41047" lon="2.09054">
        <ele>90.0206299</ele>
        <time>2010-06-13T06:32:37Z</time>
      </trkpt>
      <trkpt lat="50.41064" lon="2.08995">
        <ele>91.4625244</ele>
        <time>2010-06-13T06:32:47Z</time>
      </trkpt>
      <trkpt lat="50.41083" lon="2.08927">
        <ele>93.8658447</ele>
        <time>2010-06-13T06:32:58Z</time>
      </trkpt>
      <trkpt lat="50.41098" lon="2.08871">
        <ele>95.3077393</ele>
        <time>2010-06-13T06:33:07Z</time>
      </trkpt>
      <trkpt lat="50.41113" lon="2.08805">
        <ele>96.2692871</ele>
        <time>2010-06-13T06:33:17Z</time>
      </trkpt>
      <trkpt lat="50.41129" lon="2.08724">
        <ele>98.6724854</ele>
        <time>2010-06-13T06:33:29Z</time>
      </trkpt>
      <trkpt lat="50.41144" lon="2.08661">
        <ele>101.5563965</ele>
        <time>2010-06-13T06:33:39Z</time>
      </trkpt>
      <trkpt lat="50.41161" lon="2.08615">
        <ele>103.9597168</ele>
        <time>2010-06-13T06:33:48Z</time>
      </trkpt>
      <trkpt lat="50.41184" lon="2.08564">
        <ele>106.3630371</ele>
        <time>2010-06-13T06:33:59Z</time>
      </trkpt>
      <trkpt lat="50.41204" lon="2.08528">
        <ele>107.8050537</ele>
        <time>2010-06-13T06:34:08Z</time>
      </trkpt>
      <trkpt lat="50.41228" lon="2.08485">
        <ele>109.7276611</ele>
        <time>2010-06-13T06:34:17Z</time>
      </trkpt>
      <trkpt lat="50.41252" lon="2.08435">
        <ele>111.1695557</ele>
        <time>2010-06-13T06:34:26Z</time>
      </trkpt>
      <trkpt lat="50.4127" lon="2.08385">
        <ele>110.6888428</ele>
        <time>2010-06-13T06:34:35Z</time>
      </trkpt>
      <trkpt lat="50.41282" lon="2.08354">
        <ele>109.2469482</ele>
        <time>2010-06-13T06:34:39Z</time>
      </trkpt>
      <trkpt lat="50.41307" lon="2.08285">
        <ele>106.8436279</ele>
        <time>2010-06-13T06:34:47Z</time>
      </trkpt>
      <trkpt lat="50.4133" lon="2.08221">
        <ele>106.3630371</ele>
        <time>2010-06-13T06:34:54Z</time>
      </trkpt>
      <trkpt lat="50.41345" lon="2.08179">
        <ele>105.8824463</ele>
        <time>2010-06-13T06:35:00Z</time>
      </trkpt>
      <trkpt lat="50.4135" lon="2.08167">
        <ele>105.8824463</ele>
        <time>2010-06-13T06:35:02Z</time>
      </trkpt>
      <trkpt lat="50.41367" lon="2.08147">
        <ele>106.8436279</ele>
        <time>2010-06-13T06:35:08Z</time>
      </trkpt>
      <trkpt lat="50.41383" lon="2.08136">
        <ele>107.3243408</ele>
        <time>2010-06-13T06:35:13Z</time>
      </trkpt>
      <trkpt lat="50.41396" lon="2.08127">
        <ele>108.2856445</ele>
        <time>2010-06-13T06:35:17Z</time>
      </trkpt>
      <trkpt lat="50.41402" lon="2.08122">
        <ele>108.2856445</ele>
        <time>2010-06-13T06:35:19Z</time>
      </trkpt>
      <trkpt lat="50.41416" lon="2.08112">
        <ele>109.2469482</ele>
        <time>2010-06-13T06:35:23Z</time>
      </trkpt>
      <trkpt lat="50.41422" lon="2.08107">
        <ele>109.2469482</ele>
        <time>2010-06-13T06:35:25Z</time>
      </trkpt>
      <trkpt lat="50.41449" lon="2.08086">
        <ele>109.7276611</ele>
        <time>2010-06-13T06:35:33Z</time>
      </trkpt>
      <trkpt lat="50.41481" lon="2.08061">
        <ele>109.7276611</ele>
        <time>2010-06-13T06:35:43Z</time>
      </trkpt>
      <trkpt lat="50.41508" lon="2.0804">
        <ele>109.2469482</ele>
        <time>2010-06-13T06:35:53Z</time>
      </trkpt>
      <trkpt lat="50.4152" lon="2.08032">
        <ele>108.7662354</ele>
        <time>2010-06-13T06:35:57Z</time>
      </trkpt>
      <trkpt lat="50.41535" lon="2.08019">
        <ele>108.2856445</ele>
        <time>2010-06-13T06:36:02Z</time>
      </trkpt>
      <trkpt lat="50.41556" lon="2.08003">
        <ele>107.8050537</ele>
        <time>2010-06-13T06:36:08Z</time>
      </trkpt>
      <trkpt lat="50.41588" lon="2.07979">
        <ele>105.8824463</ele>
        <time>2010-06-13T06:36:16Z</time>
      </trkpt>
      <trkpt lat="50.41602" lon="2.07967">
        <ele>104.9210205</ele>
        <time>2010-06-13T06:36:19Z</time>
      </trkpt>
      <trkpt lat="50.41618" lon="2.07941">
        <ele>102.5177002</ele>
        <time>2010-06-13T06:36:23Z</time>
      </trkpt>
      <trkpt lat="50.41642" lon="2.07874">
        <ele>98.6724854</ele>
        <time>2010-06-13T06:36:29Z</time>
      </trkpt>
      <trkpt lat="50.41656" lon="2.07838">
        <ele>97.7111816</ele>
        <time>2010-06-13T06:36:32Z</time>
      </trkpt>
      <trkpt lat="50.41684" lon="2.07792">
        <ele>97.2304688</ele>
        <time>2010-06-13T06:36:37Z</time>
      </trkpt>
      <trkpt lat="50.4169" lon="2.07785">
        <ele>96.7498779</ele>
        <time>2010-06-13T06:36:38Z</time>
      </trkpt>
      <trkpt lat="50.41728" lon="2.07737">
        <ele>98.1918945</ele>
        <time>2010-06-13T06:36:46Z</time>
      </trkpt>
      <trkpt lat="50.4174" lon="2.07721">
        <ele>100.114502</ele>
        <time>2010-06-13T06:36:49Z</time>
      </trkpt>
      <trkpt lat="50.41755" lon="2.07703">
        <ele>102.0371094</ele>
        <time>2010-06-13T06:36:53Z</time>
      </trkpt>
      <trkpt lat="50.41763" lon="2.07694">
        <ele>102.998291</ele>
        <time>2010-06-13T06:36:55Z</time>
      </trkpt>
      <trkpt lat="50.4178" lon="2.07672">
        <ele>105.4017334</ele>
        <time>2010-06-13T06:37:00Z</time>
      </trkpt>
      <trkpt lat="50.41786" lon="2.07663">
        <ele>105.8824463</ele>
        <time>2010-06-13T06:37:02Z</time>
      </trkpt>
      <trkpt lat="50.41813" lon="2.0763">
        <ele>108.2856445</ele>
        <time>2010-06-13T06:37:10Z</time>
      </trkpt>
      <trkpt lat="50.41838" lon="2.07595">
        <ele>109.7276611</ele>
        <time>2010-06-13T06:37:19Z</time>
      </trkpt>
      <trkpt lat="50.4185" lon="2.07557">
        <ele>110.208252</ele>
        <time>2010-06-13T06:37:26Z</time>
      </trkpt>
      <trkpt lat="50.41859" lon="2.07522">
        <ele>110.208252</ele>
        <time>2010-06-13T06:37:32Z</time>
      </trkpt>
      <trkpt lat="50.41872" lon="2.07472">
        <ele>112.6115723</ele>
        <time>2010-06-13T06:37:41Z</time>
      </trkpt>
      <trkpt lat="50.41885" lon="2.07429">
        <ele>114.0535889</ele>
        <time>2010-06-13T06:37:48Z</time>
      </trkpt>
      <trkpt lat="50.41901" lon="2.07376">
        <ele>116.4567871</ele>
        <time>2010-06-13T06:37:57Z</time>
      </trkpt>
      <trkpt lat="50.41925" lon="2.07332">
        <ele>117.4182129</ele>
        <time>2010-06-13T06:38:06Z</time>
      </trkpt>
      <trkpt lat="50.41943" lon="2.07305">
        <ele>117.4182129</ele>
        <time>2010-06-13T06:38:13Z</time>
      </trkpt>
      <trkpt lat="50.41954" lon="2.07282">
        <ele>117.4182129</ele>
        <time>2010-06-13T06:38:17Z</time>
      </trkpt>
      <trkpt lat="50.41948" lon="2.07232">
        <ele>119.3408203</ele>
        <time>2010-06-13T06:38:24Z</time>
      </trkpt>
      <trkpt lat="50.41944" lon="2.07203">
        <ele>119.8214111</ele>
        <time>2010-06-13T06:38:28Z</time>
      </trkpt>
      <trkpt lat="50.41939" lon="2.07174">
        <ele>119.8214111</ele>
        <time>2010-06-13T06:38:32Z</time>
      </trkpt>
      <trkpt lat="50.41936" lon="2.07152">
        <ele>120.302124</ele>
        <time>2010-06-13T06:38:35Z</time>
      </trkpt>
      <trkpt lat="50.41931" lon="2.07125">
        <ele>120.302124</ele>
        <time>2010-06-13T06:38:39Z</time>
      </trkpt>
      <trkpt lat="50.41918" lon="2.0704">
        <ele>121.2635498</ele>
        <time>2010-06-13T06:38:52Z</time>
      </trkpt>
      <trkpt lat="50.41903" lon="2.06988">
        <ele>122.2247314</ele>
        <time>2010-06-13T06:39:01Z</time>
      </trkpt>
      <trkpt lat="50.41883" lon="2.06912">
        <ele>123.666748</ele>
        <time>2010-06-13T06:39:15Z</time>
      </trkpt>
      <trkpt lat="50.41875" lon="2.06867">
        <ele>124.1473389</ele>
        <time>2010-06-13T06:39:24Z</time>
      </trkpt>
      <trkpt lat="50.41863" lon="2.06796">
        <ele>125.1087646</ele>
        <time>2010-06-13T06:39:36Z</time>
      </trkpt>
      <trkpt lat="50.41855" lon="2.06731">
        <ele>125.5893555</ele>
        <time>2010-06-13T06:39:46Z</time>
      </trkpt>
      <trkpt lat="50.41854" lon="2.06675">
        <ele>126.5506592</ele>
        <time>2010-06-13T06:39:54Z</time>
      </trkpt>
      <trkpt lat="50.41859" lon="2.0661">
        <ele>130.876709</ele>
        <time>2010-06-13T06:40:04Z</time>
      </trkpt>
      <trkpt lat="50.41866" lon="2.06562">
        <ele>132.3186035</ele>
        <time>2010-06-13T06:40:13Z</time>
      </trkpt>
      <trkpt lat="50.41874" lon="2.06504">
        <ele>130.876709</ele>
        <time>2010-06-13T06:40:22Z</time>
      </trkpt>
      <trkpt lat="50.41882" lon="2.06451">
        <ele>130.3959961</ele>
        <time>2010-06-13T06:40:30Z</time>
      </trkpt>
      <trkpt lat="50.41888" lon="2.06409">
        <ele>128.9541016</ele>
        <time>2010-06-13T06:40:37Z</time>
      </trkpt>
      <trkpt lat="50.41895" lon="2.06389">
        <ele>127.0313721</ele>
        <time>2010-06-13T06:40:41Z</time>
      </trkpt>
      <trkpt lat="50.4191" lon="2.0638">
        <ele>126.0699463</ele>
        <time>2010-06-13T06:40:45Z</time>
      </trkpt>
      <trkpt lat="50.41942" lon="2.06369">
        <ele>125.1087646</ele>
        <time>2010-06-13T06:40:52Z</time>
      </trkpt>
      <trkpt lat="50.41967" lon="2.0636">
        <ele>124.6280518</ele>
        <time>2010-06-13T06:40:57Z</time>
      </trkpt>
      <trkpt lat="50.42003" lon="2.06337">
        <ele>123.666748</ele>
        <time>2010-06-13T06:41:05Z</time>
      </trkpt>
      <trkpt lat="50.42032" lon="2.06303">
        <ele>123.666748</ele>
        <time>2010-06-13T06:41:12Z</time>
      </trkpt>
      <trkpt lat="50.42052" lon="2.06266">
        <ele>123.666748</ele>
        <time>2010-06-13T06:41:18Z</time>
      </trkpt>
      <trkpt lat="50.42058" lon="2.06237">
        <ele>124.1473389</ele>
        <time>2010-06-13T06:41:22Z</time>
      </trkpt>
      <trkpt lat="50.42057" lon="2.06229">
        <ele>124.1473389</ele>
        <time>2010-06-13T06:41:23Z</time>
      </trkpt>
      <trkpt lat="50.42039" lon="2.06168">
        <ele>125.5893555</ele>
        <time>2010-06-13T06:41:32Z</time>
      </trkpt>
      <trkpt lat="50.42028" lon="2.06148">
        <ele>125.5893555</ele>
        <time>2010-06-13T06:41:37Z</time>
      </trkpt>
      <trkpt lat="50.42023" lon="2.06149">
        <ele>126.0699463</ele>
        <time>2010-06-13T06:41:38Z</time>
      </trkpt>
      <trkpt lat="50.41995" lon="2.0616">
        <ele>127.5119629</ele>
        <time>2010-06-13T06:41:44Z</time>
      </trkpt>
      <trkpt lat="50.41959" lon="2.06153">
        <ele>128.9541016</ele>
        <time>2010-06-13T06:41:51Z</time>
      </trkpt>
      <trkpt lat="50.41914" lon="2.06135">
        <ele>129.9152832</ele>
        <time>2010-06-13T06:42:00Z</time>
      </trkpt>
      <trkpt lat="50.41878" lon="2.0612">
        <ele>129.9152832</ele>
        <time>2010-06-13T06:42:08Z</time>
      </trkpt>
      <trkpt lat="50.4185" lon="2.06104">
        <ele>132.3186035</ele>
        <time>2010-06-13T06:42:14Z</time>
      </trkpt>
      <trkpt lat="50.41813" lon="2.06081">
        <ele>131.3572998</ele>
        <time>2010-06-13T06:42:21Z</time>
      </trkpt>
      <trkpt lat="50.41784" lon="2.06065">
        <ele>130.876709</ele>
        <time>2010-06-13T06:42:26Z</time>
      </trkpt>
      <trkpt lat="50.4175" lon="2.06052">
        <ele>128.9541016</ele>
        <time>2010-06-13T06:42:31Z</time>
      </trkpt>
      <trkpt lat="50.41705" lon="2.06044">
        <ele>127.5119629</ele>
        <time>2010-06-13T06:42:37Z</time>
      </trkpt>
      <trkpt lat="50.41686" lon="2.06025">
        <ele>122.2247314</ele>
        <time>2010-06-13T06:42:41Z</time>
      </trkpt>
      <trkpt lat="50.41638" lon="2.05953">
        <ele>120.7828369</ele>
        <time>2010-06-13T06:42:51Z</time>
      </trkpt>
      <trkpt lat="50.41612" lon="2.05914">
        <ele>120.302124</ele>
        <time>2010-06-13T06:42:57Z</time>
      </trkpt>
      <trkpt lat="50.41604" lon="2.05887">
        <ele>117.8988037</ele>
        <time>2010-06-13T06:43:01Z</time>
      </trkpt>
      <trkpt lat="50.41597" lon="2.05855">
        <ele>120.7828369</ele>
        <time>2010-06-13T06:43:05Z</time>
      </trkpt>
      <trkpt lat="50.41595" lon="2.05821">
        <ele>120.302124</ele>
        <time>2010-06-13T06:43:10Z</time>
      </trkpt>
      <trkpt lat="50.41591" lon="2.05799">
        <ele>120.7828369</ele>
        <time>2010-06-13T06:43:14Z</time>
      </trkpt>
      <trkpt lat="50.4158" lon="2.05796">
        <ele>120.302124</ele>
        <time>2010-06-13T06:43:17Z</time>
      </trkpt>
      <trkpt lat="50.41575" lon="2.05797">
        <ele>119.8214111</ele>
        <time>2010-06-13T06:43:18Z</time>
      </trkpt>
      <trkpt lat="50.41541" lon="2.05808">
        <ele>118.8601074</ele>
        <time>2010-06-13T06:43:24Z</time>
      </trkpt>
      <trkpt lat="50.41506" lon="2.05819">
        <ele>117.8988037</ele>
        <time>2010-06-13T06:43:30Z</time>
      </trkpt>
      <trkpt lat="50.41493" lon="2.05809">
        <ele>115.0148926</ele>
        <time>2010-06-13T06:43:34Z</time>
      </trkpt>
      <trkpt lat="50.41485" lon="2.0578">
        <ele>112.6115723</ele>
        <time>2010-06-13T06:43:38Z</time>
      </trkpt>
      <trkpt lat="50.41475" lon="2.05758">
        <ele>112.1309814</ele>
        <time>2010-06-13T06:43:41Z</time>
      </trkpt>
      <trkpt lat="50.41461" lon="2.05728">
        <ele>110.6888428</ele>
        <time>2010-06-13T06:43:46Z</time>
      </trkpt>
      <trkpt lat="50.41444" lon="2.05717">
        <ele>108.7662354</ele>
        <time>2010-06-13T06:43:50Z</time>
      </trkpt>
      <trkpt lat="50.41398" lon="2.05723">
        <ele>108.2856445</ele>
        <time>2010-06-13T06:43:56Z</time>
      </trkpt>
      <trkpt lat="50.41361" lon="2.05726">
        <ele>106.3630371</ele>
        <time>2010-06-13T06:44:00Z</time>
      </trkpt>
      <trkpt lat="50.41319" lon="2.05731">
        <ele>104.9210205</ele>
        <time>2010-06-13T06:44:05Z</time>
      </trkpt>
      <trkpt lat="50.41299" lon="2.05733">
        <ele>104.4404297</ele>
        <time>2010-06-13T06:44:08Z</time>
      </trkpt>
      <trkpt lat="50.41254" lon="2.0572">
        <ele>102.5177002</ele>
        <time>2010-06-13T06:44:15Z</time>
      </trkpt>
      <trkpt lat="50.41204" lon="2.05704">
        <ele>100.5950928</ele>
        <time>2010-06-13T06:44:23Z</time>
      </trkpt>
      <trkpt lat="50.41171" lon="2.05695">
        <ele>99.6337891</ele>
        <time>2010-06-13T06:44:28Z</time>
      </trkpt>
      <trkpt lat="50.41159" lon="2.0568">
        <ele>100.114502</ele>
        <time>2010-06-13T06:44:32Z</time>
      </trkpt>
      <trkpt lat="50.41153" lon="2.05661">
        <ele>100.114502</ele>
        <time>2010-06-13T06:44:35Z</time>
      </trkpt>
      <trkpt lat="50.41138" lon="2.05652">
        <ele>101.0756836</ele>
        <time>2010-06-13T06:44:38Z</time>
      </trkpt>
      <trkpt lat="50.4112" lon="2.05645">
        <ele>102.0371094</ele>
        <time>2010-06-13T06:44:42Z</time>
      </trkpt>
      <trkpt lat="50.41104" lon="2.05641">
        <ele>102.998291</ele>
        <time>2010-06-13T06:44:46Z</time>
      </trkpt>
      <trkpt lat="50.41094" lon="2.05638">
        <ele>103.4790039</ele>
        <time>2010-06-13T06:44:49Z</time>
      </trkpt>
      <trkpt lat="50.4107" lon="2.05628">
        <ele>109.2469482</ele>
        <time>2010-06-13T06:44:56Z</time>
      </trkpt>
      <trkpt lat="50.41054" lon="2.05621">
        <ele>113.0922852</ele>
        <time>2010-06-13T06:45:01Z</time>
      </trkpt>
      <trkpt lat="50.41037" lon="2.05614">
        <ele>115.4956055</ele>
        <time>2010-06-13T06:45:06Z</time>
      </trkpt>
      <trkpt lat="50.41013" lon="2.05611">
        <ele>116.9375</ele>
        <time>2010-06-13T06:45:13Z</time>
      </trkpt>
      <trkpt lat="50.40987" lon="2.05613">
        <ele>118.3793945</ele>
        <time>2010-06-13T06:45:20Z</time>
      </trkpt>
      <trkpt lat="50.40959" lon="2.05608">
        <ele>117.8988037</ele>
        <time>2010-06-13T06:45:26Z</time>
      </trkpt>
      <trkpt lat="50.40942" lon="2.05587">
        <ele>117.8988037</ele>
        <time>2010-06-13T06:45:31Z</time>
      </trkpt>
      <trkpt lat="50.4094" lon="2.0558">
        <ele>117.8988037</ele>
        <time>2010-06-13T06:45:32Z</time>
      </trkpt>
      <trkpt lat="50.40923" lon="2.05508">
        <ele>117.8988037</ele>
        <time>2010-06-13T06:45:42Z</time>
      </trkpt>
      <trkpt lat="50.40909" lon="2.05448">
        <ele>118.3793945</ele>
        <time>2010-06-13T06:45:50Z</time>
      </trkpt>
      <trkpt lat="50.40897" lon="2.05404">
        <ele>117.8988037</ele>
        <time>2010-06-13T06:45:56Z</time>
      </trkpt>
      <trkpt lat="50.40881" lon="2.05381">
        <ele>117.4182129</ele>
        <time>2010-06-13T06:46:01Z</time>
      </trkpt>
      <trkpt lat="50.40847" lon="2.05361">
        <ele>114.5341797</ele>
        <time>2010-06-13T06:46:09Z</time>
      </trkpt>
      <trkpt lat="50.40819" lon="2.05334">
        <ele>112.1309814</ele>
        <time>2010-06-13T06:46:14Z</time>
      </trkpt>
      <trkpt lat="50.40786" lon="2.05293">
        <ele>110.6888428</ele>
        <time>2010-06-13T06:46:20Z</time>
      </trkpt>
      <trkpt lat="50.4076" lon="2.05249">
        <ele>110.6888428</ele>
        <time>2010-06-13T06:46:26Z</time>
      </trkpt>
      <trkpt lat="50.40742" lon="2.05212">
        <ele>110.6888428</ele>
        <time>2010-06-13T06:46:32Z</time>
      </trkpt>
      <trkpt lat="50.40721" lon="2.05167">
        <ele>111.1695557</ele>
        <time>2010-06-13T06:46:39Z</time>
      </trkpt>
      <trkpt lat="50.40713" lon="2.05149">
        <ele>111.6502686</ele>
        <time>2010-06-13T06:46:42Z</time>
      </trkpt>
      <trkpt lat="50.40697" lon="2.05115">
        <ele>112.1309814</ele>
        <time>2010-06-13T06:46:49Z</time>
      </trkpt>
      <trkpt lat="50.40692" lon="2.05103">
        <ele>112.1309814</ele>
        <time>2010-06-13T06:46:54Z</time>
      </trkpt>
      <trkpt lat="50.40691" lon="2.05094">
        <ele>112.6115723</ele>
        <time>2010-06-13T06:46:59Z</time>
      </trkpt>
      <trkpt lat="50.4069" lon="2.05094">
        <ele>113.0922852</ele>
        <time>2010-06-13T06:47:00Z</time>
      </trkpt>
      <trkpt lat="50.40689" lon="2.05094">
        <ele>113.0922852</ele>
        <time>2010-06-13T06:47:06Z</time>
      </trkpt>
      <trkpt lat="50.40691" lon="2.05092">
        <ele>110.6888428</ele>
        <time>2010-06-13T06:47:12Z</time>
      </trkpt>
      <trkpt lat="50.4069" lon="2.05087">
        <ele>105.8824463</ele>
        <time>2010-06-13T06:47:20Z</time>
      </trkpt>
      <trkpt lat="50.40688" lon="2.05083">
        <ele>107.3243408</ele>
        <time>2010-06-13T06:47:22Z</time>
      </trkpt>
      <trkpt lat="50.40682" lon="2.05066">
        <ele>111.1695557</ele>
        <time>2010-06-13T06:47:29Z</time>
      </trkpt>
      <trkpt lat="50.40679" lon="2.05054">
        <ele>115.0148926</ele>
        <time>2010-06-13T06:47:34Z</time>
      </trkpt>
      <trkpt lat="50.40673" lon="2.05039">
        <ele>119.8214111</ele>
        <time>2010-06-13T06:47:38Z</time>
      </trkpt>
      <trkpt lat="50.40659" lon="2.0501">
        <ele>128.4733887</ele>
        <time>2010-06-13T06:47:43Z</time>
      </trkpt>
      <trkpt lat="50.40655" lon="2.04992">
        <ele>131.3572998</ele>
        <time>2010-06-13T06:47:46Z</time>
      </trkpt>
      <trkpt lat="50.40646" lon="2.04963">
        <ele>138.0865479</ele>
        <time>2010-06-13T06:47:51Z</time>
      </trkpt>
      <trkpt lat="50.40637" lon="2.04935">
        <ele>138.0865479</ele>
        <time>2010-06-13T06:47:56Z</time>
      </trkpt>
      <trkpt lat="50.40632" lon="2.04914">
        <ele>140.970459</ele>
        <time>2010-06-13T06:47:59Z</time>
      </trkpt>
      <trkpt lat="50.40626" lon="2.0489">
        <ele>142.8930664</ele>
        <time>2010-06-13T06:48:03Z</time>
      </trkpt>
      <trkpt lat="50.40619" lon="2.04872">
        <ele>147.699707</ele>
        <time>2010-06-13T06:48:07Z</time>
      </trkpt>
      <trkpt lat="50.40611" lon="2.04844">
        <ele>148.1804199</ele>
        <time>2010-06-13T06:48:13Z</time>
      </trkpt>
      <trkpt lat="50.40599" lon="2.04821">
        <ele>147.699707</ele>
        <time>2010-06-13T06:48:18Z</time>
      </trkpt>
      <trkpt lat="50.40595" lon="2.04814">
        <ele>143.8543701</ele>
        <time>2010-06-13T06:48:23Z</time>
      </trkpt>
      <trkpt lat="50.40588" lon="2.04809">
        <ele>132.7993164</ele>
        <time>2010-06-13T06:48:39Z</time>
      </trkpt>
      <trkpt lat="50.40582" lon="2.04811">
        <ele>134.2412109</ele>
        <time>2010-06-13T06:48:43Z</time>
      </trkpt>
      <trkpt lat="50.40581" lon="2.04811">
        <ele>132.7993164</ele>
        <time>2010-06-13T06:48:45Z</time>
      </trkpt>
      <trkpt lat="50.40571" lon="2.04813">
        <ele>136.6446533</ele>
        <time>2010-06-13T06:48:52Z</time>
      </trkpt>
      <trkpt lat="50.4056" lon="2.04815">
        <ele>140.4898682</ele>
        <time>2010-06-13T06:48:57Z</time>
      </trkpt>
      <trkpt lat="50.40552" lon="2.04817">
        <ele>142.4124756</ele>
        <time>2010-06-13T06:49:01Z</time>
      </trkpt>
      <trkpt lat="50.40549" lon="2.0482">
        <ele>141.9317627</ele>
        <time>2010-06-13T06:49:05Z</time>
      </trkpt>
      <trkpt lat="50.40537" lon="2.04821">
        <ele>142.4124756</ele>
        <time>2010-06-13T06:49:10Z</time>
      </trkpt>
      <trkpt lat="50.40529" lon="2.04823">
        <ele>143.3736572</ele>
        <time>2010-06-13T06:49:14Z</time>
      </trkpt>
      <trkpt lat="50.40517" lon="2.04823">
        <ele>144.3352051</ele>
        <time>2010-06-13T06:49:18Z</time>
      </trkpt>
      <trkpt lat="50.40504" lon="2.04825">
        <ele>146.7384033</ele>
        <time>2010-06-13T06:49:23Z</time>
      </trkpt>
      <trkpt lat="50.405" lon="2.04825">
        <ele>146.7384033</ele>
        <time>2010-06-13T06:49:24Z</time>
      </trkpt>
      <trkpt lat="50.40482" lon="2.04832">
        <ele>147.699707</ele>
        <time>2010-06-13T06:49:32Z</time>
      </trkpt>
      <trkpt lat="50.40472" lon="2.04834">
        <ele>146.2578125</ele>
        <time>2010-06-13T06:49:37Z</time>
      </trkpt>
      <trkpt lat="50.40455" lon="2.04836">
        <ele>146.2578125</ele>
        <time>2010-06-13T06:49:44Z</time>
      </trkpt>
      <trkpt lat="50.40442" lon="2.04837">
        <ele>146.2578125</ele>
        <time>2010-06-13T06:49:47Z</time>
      </trkpt>
      <trkpt lat="50.40431" lon="2.04835">
        <ele>140.4898682</ele>
        <time>2010-06-13T06:49:53Z</time>
      </trkpt>
      <trkpt lat="50.40422" lon="2.04834">
        <ele>139.5284424</ele>
        <time>2010-06-13T06:49:58Z</time>
      </trkpt>
      <trkpt lat="50.40411" lon="2.04835">
        <ele>139.5284424</ele>
        <time>2010-06-13T06:50:04Z</time>
      </trkpt>
      <trkpt lat="50.40401" lon="2.04834">
        <ele>137.605835</ele>
        <time>2010-06-13T06:50:10Z</time>
      </trkpt>
      <trkpt lat="50.40388" lon="2.04845">
        <ele>139.5284424</ele>
        <time>2010-06-13T06:50:18Z</time>
      </trkpt>
      <trkpt lat="50.40384" lon="2.04848">
        <ele>139.5284424</ele>
        <time>2010-06-13T06:50:20Z</time>
      </trkpt>
      <trkpt lat="50.4038" lon="2.0485">
        <ele>141.9317627</ele>
        <time>2010-06-13T06:50:23Z</time>
      </trkpt>
      <trkpt lat="50.40369" lon="2.04854">
        <ele>144.8157959</ele>
        <time>2010-06-13T06:50:27Z</time>
      </trkpt>
      <trkpt lat="50.40358" lon="2.04853">
        <ele>145.7770996</ele>
        <time>2010-06-13T06:50:32Z</time>
      </trkpt>
      <trkpt lat="50.40355" lon="2.04854">
        <ele>146.2578125</ele>
        <time>2010-06-13T06:50:33Z</time>
      </trkpt>
      <trkpt lat="50.4035" lon="2.04858">
        <ele>147.699707</ele>
        <time>2010-06-13T06:50:35Z</time>
      </trkpt>
      <trkpt lat="50.40338" lon="2.04857">
        <ele>146.7384033</ele>
        <time>2010-06-13T06:50:41Z</time>
      </trkpt>
      <trkpt lat="50.40334" lon="2.04857">
        <ele>147.2189941</ele>
        <time>2010-06-13T06:50:43Z</time>
      </trkpt>
      <trkpt lat="50.40322" lon="2.04859">
        <ele>148.1804199</ele>
        <time>2010-06-13T06:50:49Z</time>
      </trkpt>
      <trkpt lat="50.40304" lon="2.04862">
        <ele>147.699707</ele>
        <time>2010-06-13T06:50:54Z</time>
      </trkpt>
      <trkpt lat="50.40289" lon="2.04869">
        <ele>144.8157959</ele>
        <time>2010-06-13T06:50:59Z</time>
      </trkpt>
      <trkpt lat="50.40275" lon="2.04875">
        <ele>144.3352051</ele>
        <time>2010-06-13T06:51:03Z</time>
      </trkpt>
      <trkpt lat="50.4026" lon="2.04886">
        <ele>139.5284424</ele>
        <time>2010-06-13T06:51:08Z</time>
      </trkpt>
      <trkpt lat="50.40245" lon="2.04893">
        <ele>137.1252441</ele>
        <time>2010-06-13T06:51:12Z</time>
      </trkpt>
      <trkpt lat="50.40235" lon="2.04896">
        <ele>137.1252441</ele>
        <time>2010-06-13T06:51:14Z</time>
      </trkpt>
      <trkpt lat="50.40222" lon="2.049">
        <ele>134.2412109</ele>
        <time>2010-06-13T06:51:21Z</time>
      </trkpt>
      <trkpt lat="50.40214" lon="2.04906">
        <ele>131.3572998</ele>
        <time>2010-06-13T06:51:28Z</time>
      </trkpt>
      <trkpt lat="50.40203" lon="2.04911">
        <ele>135.6831055</ele>
        <time>2010-06-13T06:51:34Z</time>
      </trkpt>
      <trkpt lat="50.40198" lon="2.04915">
        <ele>138.5672607</ele>
        <time>2010-06-13T06:51:37Z</time>
      </trkpt>
      <trkpt lat="50.40178" lon="2.04923">
        <ele>139.0478516</ele>
        <time>2010-06-13T06:51:44Z</time>
      </trkpt>
      <trkpt lat="50.40175" lon="2.04924">
        <ele>138.5672607</ele>
        <time>2010-06-13T06:51:45Z</time>
      </trkpt>
      <trkpt lat="50.40166" lon="2.04913">
        <ele>136.6446533</ele>
        <time>2010-06-13T06:51:50Z</time>
      </trkpt>
      <trkpt lat="50.40164" lon="2.04902">
        <ele>137.1252441</ele>
        <time>2010-06-13T06:51:52Z</time>
      </trkpt>
      <trkpt lat="50.4016" lon="2.04866">
        <ele>141.9317627</ele>
        <time>2010-06-13T06:51:58Z</time>
      </trkpt>
      <trkpt lat="50.40158" lon="2.04848">
        <ele>142.4124756</ele>
        <time>2010-06-13T06:52:00Z</time>
      </trkpt>
      <trkpt lat="50.40141" lon="2.04784">
        <ele>159.2354736</ele>
        <time>2010-06-13T06:52:06Z</time>
      </trkpt>
      <trkpt lat="50.40138" lon="2.04764">
        <ele>163.0808105</ele>
        <time>2010-06-13T06:52:08Z</time>
      </trkpt>
      <trkpt lat="50.40138" lon="2.04749">
        <ele>161.638916</ele>
        <time>2010-06-13T06:52:10Z</time>
      </trkpt>
      <trkpt lat="50.40139" lon="2.04717">
        <ele>155.3902588</ele>
        <time>2010-06-13T06:52:16Z</time>
      </trkpt>
      <trkpt lat="50.40143" lon="2.04675">
        <ele>152.9869385</ele>
        <time>2010-06-13T06:52:23Z</time>
      </trkpt>
      <trkpt lat="50.40147" lon="2.04644">
        <ele>147.699707</ele>
        <time>2010-06-13T06:52:27Z</time>
      </trkpt>
      <trkpt lat="50.40147" lon="2.04621">
        <ele>147.2189941</ele>
        <time>2010-06-13T06:52:30Z</time>
      </trkpt>
      <trkpt lat="50.40139" lon="2.04595">
        <ele>149.6223145</ele>
        <time>2010-06-13T06:52:34Z</time>
      </trkpt>
      <trkpt lat="50.40136" lon="2.04584">
        <ele>152.5063477</ele>
        <time>2010-06-13T06:52:36Z</time>
      </trkpt>
      <trkpt lat="50.40126" lon="2.04573">
        <ele>149.1416016</ele>
        <time>2010-06-13T06:52:41Z</time>
      </trkpt>
      <trkpt lat="50.40113" lon="2.04573">
        <ele>147.699707</ele>
        <time>2010-06-13T06:52:45Z</time>
      </trkpt>
      <trkpt lat="50.401" lon="2.04579">
        <ele>141.9317627</ele>
        <time>2010-06-13T06:52:51Z</time>
      </trkpt>
      <trkpt lat="50.4008" lon="2.04582">
        <ele>139.5284424</ele>
        <time>2010-06-13T06:52:56Z</time>
      </trkpt>
      <trkpt lat="50.40059" lon="2.04584">
        <ele>140.0091553</ele>
        <time>2010-06-13T06:53:01Z</time>
      </trkpt>
      <trkpt lat="50.40043" lon="2.04586">
        <ele>139.5284424</ele>
        <time>2010-06-13T06:53:05Z</time>
      </trkpt>
      <trkpt lat="50.4002" lon="2.04587">
        <ele>138.5672607</ele>
        <time>2010-06-13T06:53:10Z</time>
      </trkpt>
      <trkpt lat="50.39997" lon="2.04587">
        <ele>135.2025146</ele>
        <time>2010-06-13T06:53:14Z</time>
      </trkpt>
      <trkpt lat="50.39979" lon="2.0459">
        <ele>132.7993164</ele>
        <time>2010-06-13T06:53:17Z</time>
      </trkpt>
      <trkpt lat="50.39968" lon="2.04592">
        <ele>132.3186035</ele>
        <time>2010-06-13T06:53:19Z</time>
      </trkpt>
      <trkpt lat="50.39951" lon="2.04594">
        <ele>130.3959961</ele>
        <time>2010-06-13T06:53:22Z</time>
      </trkpt>
      <trkpt lat="50.39941" lon="2.04597">
        <ele>130.3959961</ele>
        <time>2010-06-13T06:53:24Z</time>
      </trkpt>
      <trkpt lat="50.39933" lon="2.04601">
        <ele>131.8378906</ele>
        <time>2010-06-13T06:53:26Z</time>
      </trkpt>
      <trkpt lat="50.39898" lon="2.0461">
        <ele>133.2799072</ele>
        <time>2010-06-13T06:53:33Z</time>
      </trkpt>
      <trkpt lat="50.39872" lon="2.04615">
        <ele>134.2412109</ele>
        <time>2010-06-13T06:53:38Z</time>
      </trkpt>
      <trkpt lat="50.39843" lon="2.04621">
        <ele>136.1639404</ele>
        <time>2010-06-13T06:53:43Z</time>
      </trkpt>
      <trkpt lat="50.39833" lon="2.04621">
        <ele>137.605835</ele>
        <time>2010-06-13T06:53:45Z</time>
      </trkpt>
      <trkpt lat="50.39798" lon="2.04624">
        <ele>137.1252441</ele>
        <time>2010-06-13T06:53:51Z</time>
      </trkpt>
      <trkpt lat="50.3978" lon="2.04628">
        <ele>137.605835</ele>
        <time>2010-06-13T06:53:55Z</time>
      </trkpt>
      <trkpt lat="50.3976" lon="2.04627">
        <ele>139.5284424</ele>
        <time>2010-06-13T06:54:00Z</time>
      </trkpt>
      <trkpt lat="50.3974" lon="2.04631">
        <ele>138.0865479</ele>
        <time>2010-06-13T06:54:06Z</time>
      </trkpt>
      <trkpt lat="50.39734" lon="2.04618">
        <ele>139.0478516</ele>
        <time>2010-06-13T06:54:10Z</time>
      </trkpt>
      <trkpt lat="50.39731" lon="2.04584">
        <ele>140.0091553</ele>
        <time>2010-06-13T06:54:17Z</time>
      </trkpt>
      <trkpt lat="50.39728" lon="2.04538">
        <ele>144.3352051</ele>
        <time>2010-06-13T06:54:23Z</time>
      </trkpt>
      <trkpt lat="50.39727" lon="2.0452">
        <ele>147.2189941</ele>
        <time>2010-06-13T06:54:25Z</time>
      </trkpt>
      <trkpt lat="50.39722" lon="2.04488">
        <ele>152.0257568</ele>
        <time>2010-06-13T06:54:29Z</time>
      </trkpt>
      <trkpt lat="50.3972" lon="2.04437">
        <ele>150.1030273</ele>
        <time>2010-06-13T06:54:36Z</time>
      </trkpt>
      <trkpt lat="50.39719" lon="2.04409">
        <ele>145.7770996</ele>
        <time>2010-06-13T06:54:40Z</time>
      </trkpt>
      <trkpt lat="50.39715" lon="2.04367">
        <ele>140.0091553</ele>
        <time>2010-06-13T06:54:46Z</time>
      </trkpt>
      <trkpt lat="50.39715" lon="2.04335">
        <ele>138.0865479</ele>
        <time>2010-06-13T06:54:52Z</time>
      </trkpt>
      <trkpt lat="50.39714" lon="2.04327">
        <ele>137.1252441</ele>
        <time>2010-06-13T06:54:53Z</time>
      </trkpt>
      <trkpt lat="50.39714" lon="2.04311">
        <ele>136.1639404</ele>
        <time>2010-06-13T06:54:55Z</time>
      </trkpt>
      <trkpt lat="50.39717" lon="2.04233">
        <ele>134.2412109</ele>
        <time>2010-06-13T06:55:04Z</time>
      </trkpt>
      <trkpt lat="50.3972" lon="2.0418">
        <ele>130.876709</ele>
        <time>2010-06-13T06:55:10Z</time>
      </trkpt>
      <trkpt lat="50.39721" lon="2.04173">
        <ele>129.9152832</ele>
        <time>2010-06-13T06:55:11Z</time>
      </trkpt>
      <trkpt lat="50.39724" lon="2.0415">
        <ele>126.5506592</ele>
        <time>2010-06-13T06:55:16Z</time>
      </trkpt>
      <trkpt lat="50.39725" lon="2.04144">
        <ele>125.5893555</ele>
        <time>2010-06-13T06:55:17Z</time>
      </trkpt>
      <trkpt lat="50.39727" lon="2.04081">
        <ele>123.666748</ele>
        <time>2010-06-13T06:55:24Z</time>
      </trkpt>
      <trkpt lat="50.3973" lon="2.04023">
        <ele>119.8214111</ele>
        <time>2010-06-13T06:55:28Z</time>
      </trkpt>
      <trkpt lat="50.39734" lon="2.0394">
        <ele>114.5341797</ele>
        <time>2010-06-13T06:55:33Z</time>
      </trkpt>
      <trkpt lat="50.39741" lon="2.03862">
        <ele>111.1695557</ele>
        <time>2010-06-13T06:55:38Z</time>
      </trkpt>
      <trkpt lat="50.39743" lon="2.03813">
        <ele>110.6888428</ele>
        <time>2010-06-13T06:55:42Z</time>
      </trkpt>
      <trkpt lat="50.39744" lon="2.0379">
        <ele>110.208252</ele>
        <time>2010-06-13T06:55:44Z</time>
      </trkpt>
      <trkpt lat="50.39745" lon="2.03778">
        <ele>110.208252</ele>
        <time>2010-06-13T06:55:45Z</time>
      </trkpt>
      <trkpt lat="50.39748" lon="2.03754">
        <ele>108.7662354</ele>
        <time>2010-06-13T06:55:47Z</time>
      </trkpt>
      <trkpt lat="50.39751" lon="2.03732">
        <ele>107.8050537</ele>
        <time>2010-06-13T06:55:49Z</time>
      </trkpt>
      <trkpt lat="50.39766" lon="2.03703">
        <ele>105.4017334</ele>
        <time>2010-06-13T06:55:53Z</time>
      </trkpt>
      <trkpt lat="50.39776" lon="2.037">
        <ele>104.9210205</ele>
        <time>2010-06-13T06:55:55Z</time>
      </trkpt>
      <trkpt lat="50.39786" lon="2.03699">
        <ele>104.9210205</ele>
        <time>2010-06-13T06:55:57Z</time>
      </trkpt>
      <trkpt lat="50.39806" lon="2.03695">
        <ele>107.8050537</ele>
        <time>2010-06-13T06:56:01Z</time>
      </trkpt>
      <trkpt lat="50.39823" lon="2.0369">
        <ele>109.2469482</ele>
        <time>2010-06-13T06:56:04Z</time>
      </trkpt>
      <trkpt lat="50.39834" lon="2.03687">
        <ele>110.208252</ele>
        <time>2010-06-13T06:56:06Z</time>
      </trkpt>
      <trkpt lat="50.39844" lon="2.03684">
        <ele>111.1695557</ele>
        <time>2010-06-13T06:56:08Z</time>
      </trkpt>
      <trkpt lat="50.39861" lon="2.0368">
        <ele>111.6502686</ele>
        <time>2010-06-13T06:56:11Z</time>
      </trkpt>
      <trkpt lat="50.39871" lon="2.03676">
        <ele>113.0922852</ele>
        <time>2010-06-13T06:56:13Z</time>
      </trkpt>
      <trkpt lat="50.39876" lon="2.03676">
        <ele>114.5341797</ele>
        <time>2010-06-13T06:56:14Z</time>
      </trkpt>
      <trkpt lat="50.39896" lon="2.03666">
        <ele>119.8214111</ele>
        <time>2010-06-13T06:56:18Z</time>
      </trkpt>
      <trkpt lat="50.39912" lon="2.03661">
        <ele>124.1473389</ele>
        <time>2010-06-13T06:56:22Z</time>
      </trkpt>
      <trkpt lat="50.39936" lon="2.03649">
        <ele>130.876709</ele>
        <time>2010-06-13T06:56:29Z</time>
      </trkpt>
      <trkpt lat="50.3995" lon="2.03643">
        <ele>129.4346924</ele>
        <time>2010-06-13T06:56:35Z</time>
      </trkpt>
      <trkpt lat="50.39964" lon="2.03639">
        <ele>124.1473389</ele>
        <time>2010-06-13T06:56:39Z</time>
      </trkpt>
      <trkpt lat="50.39989" lon="2.03633">
        <ele>122.2247314</ele>
        <time>2010-06-13T06:56:44Z</time>
      </trkpt>
      <trkpt lat="50.40023" lon="2.03619">
        <ele>121.2635498</ele>
        <time>2010-06-13T06:56:51Z</time>
      </trkpt>
      <trkpt lat="50.40028" lon="2.03617">
        <ele>120.302124</ele>
        <time>2010-06-13T06:56:52Z</time>
      </trkpt>
      <trkpt lat="50.40043" lon="2.03613">
        <ele>119.3408203</ele>
        <time>2010-06-13T06:56:55Z</time>
      </trkpt>
      <trkpt lat="50.40078" lon="2.03599">
        <ele>122.2247314</ele>
        <time>2010-06-13T06:57:03Z</time>
      </trkpt>
      <trkpt lat="50.40094" lon="2.03593">
        <ele>122.7054443</ele>
        <time>2010-06-13T06:57:07Z</time>
      </trkpt>
      <trkpt lat="50.40121" lon="2.03585">
        <ele>124.1473389</ele>
        <time>2010-06-13T06:57:13Z</time>
      </trkpt>
      <trkpt lat="50.4013" lon="2.03582">
        <ele>124.1473389</ele>
        <time>2010-06-13T06:57:15Z</time>
      </trkpt>
      <trkpt lat="50.40159" lon="2.03571">
        <ele>124.6280518</ele>
        <time>2010-06-13T06:57:22Z</time>
      </trkpt>
      <trkpt lat="50.40191" lon="2.03557">
        <ele>127.9925537</ele>
        <time>2010-06-13T06:57:29Z</time>
      </trkpt>
      <trkpt lat="50.40222" lon="2.03543">
        <ele>130.876709</ele>
        <time>2010-06-13T06:57:36Z</time>
      </trkpt>
      <trkpt lat="50.40232" lon="2.03539">
        <ele>130.876709</ele>
        <time>2010-06-13T06:57:38Z</time>
      </trkpt>
      <trkpt lat="50.40268" lon="2.03524">
        <ele>135.2025146</ele>
        <time>2010-06-13T06:57:46Z</time>
      </trkpt>
      <trkpt lat="50.40295" lon="2.03514">
        <ele>135.6831055</ele>
        <time>2010-06-13T06:57:52Z</time>
      </trkpt>
      <trkpt lat="50.40308" lon="2.03508">
        <ele>135.6831055</ele>
        <time>2010-06-13T06:57:55Z</time>
      </trkpt>
      <trkpt lat="50.40317" lon="2.03485">
        <ele>135.2025146</ele>
        <time>2010-06-13T06:57:59Z</time>
      </trkpt>
      <trkpt lat="50.40314" lon="2.0345">
        <ele>134.7219238</ele>
        <time>2010-06-13T06:58:04Z</time>
      </trkpt>
      <trkpt lat="50.403" lon="2.03401">
        <ele>132.7993164</ele>
        <time>2010-06-13T06:58:11Z</time>
      </trkpt>
      <trkpt lat="50.40293" lon="2.03365">
        <ele>134.2412109</ele>
        <time>2010-06-13T06:58:16Z</time>
      </trkpt>
      <trkpt lat="50.40291" lon="2.03357">
        <ele>136.1639404</ele>
        <time>2010-06-13T06:58:17Z</time>
      </trkpt>
      <trkpt lat="50.40285" lon="2.03328">
        <ele>137.605835</ele>
        <time>2010-06-13T06:58:22Z</time>
      </trkpt>
      <trkpt lat="50.40287" lon="2.03314">
        <ele>139.0478516</ele>
        <time>2010-06-13T06:58:24Z</time>
      </trkpt>
      <trkpt lat="50.40294" lon="2.03274">
        <ele>136.6446533</ele>
        <time>2010-06-13T06:58:30Z</time>
      </trkpt>
      <trkpt lat="50.40296" lon="2.03268">
        <ele>136.1639404</ele>
        <time>2010-06-13T06:58:31Z</time>
      </trkpt>
      <trkpt lat="50.40299" lon="2.03257">
        <ele>135.6831055</ele>
        <time>2010-06-13T06:58:33Z</time>
      </trkpt>
      <trkpt lat="50.40303" lon="2.03229">
        <ele>134.2412109</ele>
        <time>2010-06-13T06:58:37Z</time>
      </trkpt>
      <trkpt lat="50.40302" lon="2.03205">
        <ele>137.1252441</ele>
        <time>2010-06-13T06:58:40Z</time>
      </trkpt>
      <trkpt lat="50.40304" lon="2.03182">
        <ele>138.0865479</ele>
        <time>2010-06-13T06:58:44Z</time>
      </trkpt>
      <trkpt lat="50.40306" lon="2.03147">
        <ele>133.760498</ele>
        <time>2010-06-13T06:58:50Z</time>
      </trkpt>
      <trkpt lat="50.40304" lon="2.03141">
        <ele>132.7993164</ele>
        <time>2010-06-13T06:58:52Z</time>
      </trkpt>
      <trkpt lat="50.40285" lon="2.03135">
        <ele>132.7993164</ele>
        <time>2010-06-13T06:58:58Z</time>
      </trkpt>
      <trkpt lat="50.40278" lon="2.03132">
        <ele>133.760498</ele>
        <time>2010-06-13T06:59:01Z</time>
      </trkpt>
      <trkpt lat="50.40261" lon="2.03131">
        <ele>136.1639404</ele>
        <time>2010-06-13T06:59:06Z</time>
      </trkpt>
      <trkpt lat="50.40248" lon="2.03127">
        <ele>136.1639404</ele>
        <time>2010-06-13T06:59:10Z</time>
      </trkpt>
      <trkpt lat="50.40233" lon="2.03123">
        <ele>136.6446533</ele>
        <time>2010-06-13T06:59:14Z</time>
      </trkpt>
      <trkpt lat="50.40217" lon="2.0312">
        <ele>135.2025146</ele>
        <time>2010-06-13T06:59:19Z</time>
      </trkpt>
      <trkpt lat="50.40204" lon="2.03117">
        <ele>136.6446533</ele>
        <time>2010-06-13T06:59:24Z</time>
      </trkpt>
      <trkpt lat="50.40201" lon="2.03116">
        <ele>136.6446533</ele>
        <time>2010-06-13T06:59:25Z</time>
      </trkpt>
      <trkpt lat="50.40184" lon="2.03114">
        <ele>134.7219238</ele>
        <time>2010-06-13T06:59:30Z</time>
      </trkpt>
      <trkpt lat="50.40172" lon="2.03113">
        <ele>136.1639404</ele>
        <time>2010-06-13T06:59:35Z</time>
      </trkpt>
      <trkpt lat="50.40157" lon="2.03111">
        <ele>136.6446533</ele>
        <time>2010-06-13T06:59:39Z</time>
      </trkpt>
      <trkpt lat="50.40144" lon="2.0311">
        <ele>137.1252441</ele>
        <time>2010-06-13T06:59:43Z</time>
      </trkpt>
      <trkpt lat="50.40134" lon="2.03108">
        <ele>138.0865479</ele>
        <time>2010-06-13T06:59:47Z</time>
      </trkpt>
      <trkpt lat="50.40116" lon="2.03107">
        <ele>137.605835</ele>
        <time>2010-06-13T06:59:52Z</time>
      </trkpt>
      <trkpt lat="50.40106" lon="2.03109">
        <ele>136.1639404</ele>
        <time>2010-06-13T06:59:55Z</time>
      </trkpt>
      <trkpt lat="50.40088" lon="2.03102">
        <ele>137.1252441</ele>
        <time>2010-06-13T07:00:01Z</time>
      </trkpt>
      <trkpt lat="50.40076" lon="2.031">
        <ele>137.605835</ele>
        <time>2010-06-13T07:00:05Z</time>
      </trkpt>
      <trkpt lat="50.40069" lon="2.03099">
        <ele>138.5672607</ele>
        <time>2010-06-13T07:00:08Z</time>
      </trkpt>
      <trkpt lat="50.40056" lon="2.03098">
        <ele>137.1252441</ele>
        <time>2010-06-13T07:00:14Z</time>
      </trkpt>
      <trkpt lat="50.40054" lon="2.03097">
        <ele>137.605835</ele>
        <time>2010-06-13T07:00:15Z</time>
      </trkpt>
      <trkpt lat="50.40047" lon="2.03095">
        <ele>138.0865479</ele>
        <time>2010-06-13T07:00:18Z</time>
      </trkpt>
      <trkpt lat="50.40042" lon="2.03094">
        <ele>138.0865479</ele>
        <time>2010-06-13T07:00:20Z</time>
      </trkpt>
      <trkpt lat="50.40027" lon="2.03092">
        <ele>138.5672607</ele>
        <time>2010-06-13T07:00:26Z</time>
      </trkpt>
      <trkpt lat="50.40023" lon="2.03092">
        <ele>138.0865479</ele>
        <time>2010-06-13T07:00:28Z</time>
      </trkpt>
      <trkpt lat="50.4001" lon="2.03093">
        <ele>140.0091553</ele>
        <time>2010-06-13T07:00:34Z</time>
      </trkpt>
      <trkpt lat="50.40009" lon="2.03093">
        <ele>140.0091553</ele>
        <time>2010-06-13T07:00:35Z</time>
      </trkpt>
      <trkpt lat="50.39991" lon="2.03092">
        <ele>140.0091553</ele>
        <time>2010-06-13T07:00:42Z</time>
      </trkpt>
      <trkpt lat="50.39986" lon="2.03093">
        <ele>140.0091553</ele>
        <time>2010-06-13T07:00:44Z</time>
      </trkpt>
      <trkpt lat="50.39974" lon="2.03089">
        <ele>140.4898682</ele>
        <time>2010-06-13T07:00:50Z</time>
      </trkpt>
      <trkpt lat="50.39963" lon="2.03089">
        <ele>139.0478516</ele>
        <time>2010-06-13T07:00:54Z</time>
      </trkpt>
      <trkpt lat="50.3996" lon="2.03088">
        <ele>140.0091553</ele>
        <time>2010-06-13T07:00:56Z</time>
      </trkpt>
      <trkpt lat="50.3995" lon="2.03085">
        <ele>138.0865479</ele>
        <time>2010-06-13T07:01:00Z</time>
      </trkpt>
      <trkpt lat="50.39947" lon="2.03085">
        <ele>138.0865479</ele>
        <time>2010-06-13T07:01:02Z</time>
      </trkpt>
      <trkpt lat="50.39943" lon="2.03084">
        <ele>137.605835</ele>
        <time>2010-06-13T07:01:04Z</time>
      </trkpt>
      <trkpt lat="50.3993" lon="2.03088">
        <ele>138.0865479</ele>
        <time>2010-06-13T07:01:09Z</time>
      </trkpt>
      <trkpt lat="50.39927" lon="2.03088">
        <ele>138.5672607</ele>
        <time>2010-06-13T07:01:10Z</time>
      </trkpt>
      <trkpt lat="50.3991" lon="2.03086">
        <ele>140.4898682</ele>
        <time>2010-06-13T07:01:15Z</time>
      </trkpt>
      <trkpt lat="50.39892" lon="2.03083">
        <ele>144.8157959</ele>
        <time>2010-06-13T07:01:20Z</time>
      </trkpt>
      <trkpt lat="50.39889" lon="2.03082">
        <ele>145.7770996</ele>
        <time>2010-06-13T07:01:21Z</time>
      </trkpt>
      <trkpt lat="50.39866" lon="2.0308">
        <ele>147.2189941</ele>
        <time>2010-06-13T07:01:27Z</time>
      </trkpt>
      <trkpt lat="50.39848" lon="2.03079">
        <ele>146.2578125</ele>
        <time>2010-06-13T07:01:31Z</time>
      </trkpt>
      <trkpt lat="50.39818" lon="2.03077">
        <ele>140.4898682</ele>
        <time>2010-06-13T07:01:38Z</time>
      </trkpt>
      <trkpt lat="50.39806" lon="2.03076">
        <ele>135.6831055</ele>
        <time>2010-06-13T07:01:40Z</time>
      </trkpt>
      <trkpt lat="50.39782" lon="2.0309">
        <ele>124.1473389</ele>
        <time>2010-06-13T07:01:45Z</time>
      </trkpt>
      <trkpt lat="50.39774" lon="2.03099">
        <ele>119.8214111</ele>
        <time>2010-06-13T07:01:49Z</time>
      </trkpt>
      <trkpt lat="50.39473" lon="2.03035">
        <ele>89.539917</ele>
        <time>2010-06-13T07:03:01Z</time>
      </trkpt>
      <trkpt lat="50.39468" lon="2.03016">
        <ele>91.4625244</ele>
        <time>2010-06-13T07:03:06Z</time>
      </trkpt>
      <trkpt lat="50.39463" lon="2.02987">
        <ele>91.4625244</ele>
        <time>2010-06-13T07:03:12Z</time>
      </trkpt>
      <trkpt lat="50.39456" lon="2.0295">
        <ele>91.9432373</ele>
        <time>2010-06-13T07:03:17Z</time>
      </trkpt>
      <trkpt lat="50.39454" lon="2.02934">
        <ele>92.904541</ele>
        <time>2010-06-13T07:03:19Z</time>
      </trkpt>
      <trkpt lat="50.39448" lon="2.02898">
        <ele>90.5013428</ele>
        <time>2010-06-13T07:03:24Z</time>
      </trkpt>
      <trkpt lat="50.39441" lon="2.02876">
        <ele>90.0206299</ele>
        <time>2010-06-13T07:03:27Z</time>
      </trkpt>
      <trkpt lat="50.39418" lon="2.02823">
        <ele>87.1365967</ele>
        <time>2010-06-13T07:03:34Z</time>
      </trkpt>
      <trkpt lat="50.39407" lon="2.02803">
        <ele>85.6945801</ele>
        <time>2010-06-13T07:03:37Z</time>
      </trkpt>
      <trkpt lat="50.39382" lon="2.02752">
        <ele>83.2913818</ele>
        <time>2010-06-13T07:03:44Z</time>
      </trkpt>
      <trkpt lat="50.39365" lon="2.02715">
        <ele>81.8493652</ele>
        <time>2010-06-13T07:03:49Z</time>
      </trkpt>
      <trkpt lat="50.39356" lon="2.027">
        <ele>81.3687744</ele>
        <time>2010-06-13T07:03:53Z</time>
      </trkpt>
      <trkpt lat="50.39352" lon="2.02694">
        <ele>80.8881836</ele>
        <time>2010-06-13T07:03:55Z</time>
      </trkpt>
      <trkpt lat="50.3934" lon="2.02687">
        <ele>80.8881836</ele>
        <time>2010-06-13T07:04:00Z</time>
      </trkpt>
      <trkpt lat="50.39338" lon="2.02678">
        <ele>84.7333984</ele>
        <time>2010-06-13T07:04:04Z</time>
      </trkpt>
      <trkpt lat="50.39342" lon="2.02654">
        <ele>93.8658447</ele>
        <time>2010-06-13T07:04:09Z</time>
      </trkpt>
      <trkpt lat="50.39346" lon="2.02637">
        <ele>99.1530762</ele>
        <time>2010-06-13T07:04:12Z</time>
      </trkpt>
      <trkpt lat="50.39344" lon="2.02612">
        <ele>101.0756836</ele>
        <time>2010-06-13T07:04:17Z</time>
      </trkpt>
      <trkpt lat="50.39343" lon="2.02587">
        <ele>99.1530762</ele>
        <time>2010-06-13T07:04:21Z</time>
      </trkpt>
      <trkpt lat="50.3934" lon="2.02556">
        <ele>99.6337891</ele>
        <time>2010-06-13T07:04:25Z</time>
      </trkpt>
      <trkpt lat="50.39339" lon="2.02523">
        <ele>98.6724854</ele>
        <time>2010-06-13T07:04:29Z</time>
      </trkpt>
      <trkpt lat="50.39334" lon="2.02489">
        <ele>97.2304688</ele>
        <time>2010-06-13T07:04:34Z</time>
      </trkpt>
      <trkpt lat="50.39333" lon="2.02472">
        <ele>94.8271484</ele>
        <time>2010-06-13T07:04:37Z</time>
      </trkpt>
      <trkpt lat="50.39326" lon="2.0244">
        <ele>87.1365967</ele>
        <time>2010-06-13T07:04:42Z</time>
      </trkpt>
      <trkpt lat="50.39319" lon="2.02417">
        <ele>83.2913818</ele>
        <time>2010-06-13T07:04:46Z</time>
      </trkpt>
      <trkpt lat="50.39312" lon="2.02388">
        <ele>78.0040283</ele>
        <time>2010-06-13T07:04:51Z</time>
      </trkpt>
      <trkpt lat="50.39313" lon="2.0237">
        <ele>75.1202393</ele>
        <time>2010-06-13T07:04:56Z</time>
      </trkpt>
      <trkpt lat="50.39307" lon="2.02358">
        <ele>79.9266357</ele>
        <time>2010-06-13T07:05:00Z</time>
      </trkpt>
      <trkpt lat="50.39306" lon="2.02356">
        <ele>81.3687744</ele>
        <time>2010-06-13T07:05:01Z</time>
      </trkpt>
      <trkpt lat="50.39298" lon="2.02359">
        <ele>86.175293</ele>
        <time>2010-06-13T07:05:05Z</time>
      </trkpt>
      <trkpt lat="50.39284" lon="2.02365">
        <ele>91.4625244</ele>
        <time>2010-06-13T07:05:10Z</time>
      </trkpt>
      <trkpt lat="50.39276" lon="2.02366">
        <ele>90.9819336</ele>
        <time>2010-06-13T07:05:12Z</time>
      </trkpt>
      <trkpt lat="50.39261" lon="2.02368">
        <ele>87.1365967</ele>
        <time>2010-06-13T07:05:20Z</time>
      </trkpt>
      <trkpt lat="50.3925" lon="2.02372">
        <ele>84.7333984</ele>
        <time>2010-06-13T07:05:27Z</time>
      </trkpt>
      <trkpt lat="50.39239" lon="2.02371">
        <ele>87.6171875</ele>
        <time>2010-06-13T07:05:33Z</time>
      </trkpt>
      <trkpt lat="50.39225" lon="2.02368">
        <ele>91.9432373</ele>
        <time>2010-06-13T07:05:39Z</time>
      </trkpt>
      <trkpt lat="50.39212" lon="2.02374">
        <ele>93.8658447</ele>
        <time>2010-06-13T07:05:46Z</time>
      </trkpt>
      <trkpt lat="50.39199" lon="2.02377">
        <ele>100.114502</ele>
        <time>2010-06-13T07:05:53Z</time>
      </trkpt>
      <trkpt lat="50.39186" lon="2.02375">
        <ele>102.0371094</ele>
        <time>2010-06-13T07:05:59Z</time>
      </trkpt>
      <trkpt lat="50.39174" lon="2.02374">
        <ele>106.3630371</ele>
        <time>2010-06-13T07:06:05Z</time>
      </trkpt>
      <trkpt lat="50.39165" lon="2.02373">
        <ele>109.7276611</ele>
        <time>2010-06-13T07:06:10Z</time>
      </trkpt>
      <trkpt lat="50.39159" lon="2.02379">
        <ele>105.8824463</ele>
        <time>2010-06-13T07:06:16Z</time>
      </trkpt>
      <trkpt lat="50.39141" lon="2.02376">
        <ele>102.998291</ele>
        <time>2010-06-13T07:06:24Z</time>
      </trkpt>
      <trkpt lat="50.39138" lon="2.02375">
        <ele>102.0371094</ele>
        <time>2010-06-13T07:06:25Z</time>
      </trkpt>
      <trkpt lat="50.3913" lon="2.02385">
        <ele>98.6724854</ele>
        <time>2010-06-13T07:06:31Z</time>
      </trkpt>
      <trkpt lat="50.39124" lon="2.02394">
        <ele>99.1530762</ele>
        <time>2010-06-13T07:06:36Z</time>
      </trkpt>
      <trkpt lat="50.39107" lon="2.02402">
        <ele>100.5950928</ele>
        <time>2010-06-13T07:06:42Z</time>
      </trkpt>
      <trkpt lat="50.39093" lon="2.02417">
        <ele>102.0371094</ele>
        <time>2010-06-13T07:06:50Z</time>
      </trkpt>
      <trkpt lat="50.39081" lon="2.02426">
        <ele>106.8436279</ele>
        <time>2010-06-13T07:06:55Z</time>
      </trkpt>
      <trkpt lat="50.39067" lon="2.02434">
        <ele>109.2469482</ele>
        <time>2010-06-13T07:07:02Z</time>
      </trkpt>
      <trkpt lat="50.39061" lon="2.0244">
        <ele>110.208252</ele>
        <time>2010-06-13T07:07:10Z</time>
      </trkpt>
      <trkpt lat="50.3906" lon="2.02441">
        <ele>111.1695557</ele>
        <time>2010-06-13T07:07:11Z</time>
      </trkpt>
      <trkpt lat="50.39063" lon="2.02448">
        <ele>113.0922852</ele>
        <time>2010-06-13T07:07:14Z</time>
      </trkpt>
      <trkpt lat="50.39062" lon="2.02451">
        <ele>115.0148926</ele>
        <time>2010-06-13T07:07:20Z</time>
      </trkpt>
      <trkpt lat="50.39063" lon="2.02452">
        <ele>115.0148926</ele>
        <time>2010-06-13T07:07:21Z</time>
      </trkpt>
      <trkpt lat="50.39064" lon="2.02461">
        <ele>118.3793945</ele>
        <time>2010-06-13T07:07:29Z</time>
      </trkpt>
      <trkpt lat="50.39064" lon="2.02463">
        <ele>119.3408203</ele>
        <time>2010-06-13T07:07:30Z</time>
      </trkpt>
      <trkpt lat="50.39062" lon="2.02475">
        <ele>121.7441406</ele>
        <time>2010-06-13T07:07:37Z</time>
      </trkpt>
      <trkpt lat="50.39059" lon="2.0248">
        <ele>119.3408203</ele>
        <time>2010-06-13T07:07:42Z</time>
      </trkpt>
      <trkpt lat="50.39054" lon="2.02488">
        <ele>115.0148926</ele>
        <time>2010-06-13T07:07:47Z</time>
      </trkpt>
      <trkpt lat="50.39048" lon="2.025">
        <ele>114.5341797</ele>
        <time>2010-06-13T07:07:52Z</time>
      </trkpt>
      <trkpt lat="50.39044" lon="2.02509">
        <ele>116.9375</ele>
        <time>2010-06-13T07:07:56Z</time>
      </trkpt>
      <trkpt lat="50.39041" lon="2.02512">
        <ele>116.9375</ele>
        <time>2010-06-13T07:07:59Z</time>
      </trkpt>
      <trkpt lat="50.39035" lon="2.0252">
        <ele>121.2635498</ele>
        <time>2010-06-13T07:08:05Z</time>
      </trkpt>
      <trkpt lat="50.39033" lon="2.02522">
        <ele>125.1087646</ele>
        <time>2010-06-13T07:08:08Z</time>
      </trkpt>
      <trkpt lat="50.39031" lon="2.02524">
        <ele>126.5506592</ele>
        <time>2010-06-13T07:08:10Z</time>
      </trkpt>
      <trkpt lat="50.39026" lon="2.02531">
        <ele>130.876709</ele>
        <time>2010-06-13T07:08:15Z</time>
      </trkpt>
      <trkpt lat="50.39027" lon="2.02545">
        <ele>137.1252441</ele>
        <time>2010-06-13T07:08:22Z</time>
      </trkpt>
      <trkpt lat="50.39027" lon="2.02555">
        <ele>139.0478516</ele>
        <time>2010-06-13T07:08:25Z</time>
      </trkpt>
      <trkpt lat="50.3902" lon="2.02576">
        <ele>137.1252441</ele>
        <time>2010-06-13T07:08:34Z</time>
      </trkpt>
      <trkpt lat="50.39018" lon="2.02582">
        <ele>132.3186035</ele>
        <time>2010-06-13T07:08:38Z</time>
      </trkpt>
      <trkpt lat="50.39012" lon="2.02592">
        <ele>126.5506592</ele>
        <time>2010-06-13T07:08:45Z</time>
      </trkpt>
      <trkpt lat="50.39002" lon="2.02604">
        <ele>127.9925537</ele>
        <time>2010-06-13T07:08:53Z</time>
      </trkpt>
      <trkpt lat="50.38996" lon="2.02608">
        <ele>129.9152832</ele>
        <time>2010-06-13T07:08:56Z</time>
      </trkpt>
      <trkpt lat="50.38983" lon="2.02617">
        <ele>137.1252441</ele>
        <time>2010-06-13T07:09:05Z</time>
      </trkpt>
      <trkpt lat="50.38974" lon="2.02625">
        <ele>137.605835</ele>
        <time>2010-06-13T07:09:11Z</time>
      </trkpt>
      <trkpt lat="50.38971" lon="2.02629">
        <ele>137.605835</ele>
        <time>2010-06-13T07:09:14Z</time>
      </trkpt>
      <trkpt lat="50.3897" lon="2.02633">
        <ele>137.605835</ele>
        <time>2010-06-13T07:09:16Z</time>
      </trkpt>
      <trkpt lat="50.38967" lon="2.02637">
        <ele>137.1252441</ele>
        <time>2010-06-13T07:09:20Z</time>
      </trkpt>
      <trkpt lat="50.38961" lon="2.02643">
        <ele>137.605835</ele>
        <time>2010-06-13T07:09:23Z</time>
      </trkpt>
      <trkpt lat="50.38951" lon="2.02653">
        <ele>136.1639404</ele>
        <time>2010-06-13T07:09:29Z</time>
      </trkpt>
      <trkpt lat="50.38947" lon="2.02657">
        <ele>134.7219238</ele>
        <time>2010-06-13T07:09:32Z</time>
      </trkpt>
      <trkpt lat="50.3894" lon="2.0267">
        <ele>136.6446533</ele>
        <time>2010-06-13T07:09:38Z</time>
      </trkpt>
      <trkpt lat="50.38923" lon="2.02689">
        <ele>137.605835</ele>
        <time>2010-06-13T07:09:45Z</time>
      </trkpt>
      <trkpt lat="50.3891" lon="2.027">
        <ele>139.0478516</ele>
        <time>2010-06-13T07:09:49Z</time>
      </trkpt>
      <trkpt lat="50.38901" lon="2.02707">
        <ele>136.6446533</ele>
        <time>2010-06-13T07:09:53Z</time>
      </trkpt>
      <trkpt lat="50.38884" lon="2.0272">
        <ele>140.4898682</ele>
        <time>2010-06-13T07:09:58Z</time>
      </trkpt>
      <trkpt lat="50.38871" lon="2.02727">
        <ele>142.8930664</ele>
        <time>2010-06-13T07:10:03Z</time>
      </trkpt>
      <trkpt lat="50.38857" lon="2.02738">
        <ele>138.0865479</ele>
        <time>2010-06-13T07:10:09Z</time>
      </trkpt>
      <trkpt lat="50.38854" lon="2.02741">
        <ele>138.0865479</ele>
        <time>2010-06-13T07:10:10Z</time>
      </trkpt>
      <trkpt lat="50.38845" lon="2.02752">
        <ele>136.1639404</ele>
        <time>2010-06-13T07:10:14Z</time>
      </trkpt>
      <trkpt lat="50.38836" lon="2.02761">
        <ele>132.7993164</ele>
        <time>2010-06-13T07:10:18Z</time>
      </trkpt>
      <trkpt lat="50.38828" lon="2.02765">
        <ele>131.8378906</ele>
        <time>2010-06-13T07:10:20Z</time>
      </trkpt>
      <trkpt lat="50.38815" lon="2.02763">
        <ele>133.760498</ele>
        <time>2010-06-13T07:10:25Z</time>
      </trkpt>
      <trkpt lat="50.38817" lon="2.02765">
        <ele>140.4898682</ele>
        <time>2010-06-13T07:10:40Z</time>
      </trkpt>
      <trkpt lat="50.38817" lon="2.02763">
        <ele>140.0091553</ele>
        <time>2010-06-13T07:10:41Z</time>
      </trkpt>
      <trkpt lat="50.38816" lon="2.02754">
        <ele>140.0091553</ele>
        <time>2010-06-13T07:10:44Z</time>
      </trkpt>
      <trkpt lat="50.38811" lon="2.02723">
        <ele>137.1252441</ele>
        <time>2010-06-13T07:10:50Z</time>
      </trkpt>
      <trkpt lat="50.38806" lon="2.02694">
        <ele>131.3572998</ele>
        <time>2010-06-13T07:10:55Z</time>
      </trkpt>
      <trkpt lat="50.38801" lon="2.02666">
        <ele>127.5119629</ele>
        <time>2010-06-13T07:10:59Z</time>
      </trkpt>
      <trkpt lat="50.388" lon="2.02639">
        <ele>123.1861572</ele>
        <time>2010-06-13T07:11:03Z</time>
      </trkpt>
      <trkpt lat="50.38796" lon="2.02609">
        <ele>121.7441406</ele>
        <time>2010-06-13T07:11:08Z</time>
      </trkpt>
      <trkpt lat="50.38792" lon="2.02581">
        <ele>121.2635498</ele>
        <time>2010-06-13T07:11:13Z</time>
      </trkpt>
      <trkpt lat="50.38786" lon="2.02551">
        <ele>123.666748</ele>
        <time>2010-06-13T07:11:17Z</time>
      </trkpt>
      <trkpt lat="50.38783" lon="2.02528">
        <ele>123.666748</ele>
        <time>2010-06-13T07:11:21Z</time>
      </trkpt>
      <trkpt lat="50.38781" lon="2.02504">
        <ele>119.8214111</ele>
        <time>2010-06-13T07:11:25Z</time>
      </trkpt>
      <trkpt lat="50.38781" lon="2.02477">
        <ele>118.8601074</ele>
        <time>2010-06-13T07:11:31Z</time>
      </trkpt>
      <trkpt lat="50.3878" lon="2.02472">
        <ele>119.3408203</ele>
        <time>2010-06-13T07:11:32Z</time>
      </trkpt>
      <trkpt lat="50.38765" lon="2.02428">
        <ele>124.6280518</ele>
        <time>2010-06-13T07:11:37Z</time>
      </trkpt>
      <trkpt lat="50.38762" lon="2.02416">
        <ele>125.1087646</ele>
        <time>2010-06-13T07:11:38Z</time>
      </trkpt>
      <trkpt lat="50.3876" lon="2.02394">
        <ele>125.5893555</ele>
        <time>2010-06-13T07:11:40Z</time>
      </trkpt>
      <trkpt lat="50.38751" lon="2.02323">
        <ele>133.2799072</ele>
        <time>2010-06-13T07:11:47Z</time>
      </trkpt>
      <trkpt lat="50.38745" lon="2.02295">
        <ele>131.8378906</ele>
        <time>2010-06-13T07:11:50Z</time>
      </trkpt>
      <trkpt lat="50.38739" lon="2.0226">
        <ele>134.2412109</ele>
        <time>2010-06-13T07:11:54Z</time>
      </trkpt>
      <trkpt lat="50.38737" lon="2.02227">
        <ele>132.7993164</ele>
        <time>2010-06-13T07:11:58Z</time>
      </trkpt>
      <trkpt lat="50.38734" lon="2.02204">
        <ele>129.4346924</ele>
        <time>2010-06-13T07:12:01Z</time>
      </trkpt>
      <trkpt lat="50.38728" lon="2.02172">
        <ele>127.9925537</ele>
        <time>2010-06-13T07:12:05Z</time>
      </trkpt>
      <trkpt lat="50.38723" lon="2.02131">
        <ele>122.2247314</ele>
        <time>2010-06-13T07:12:10Z</time>
      </trkpt>
      <trkpt lat="50.38721" lon="2.02106">
        <ele>119.3408203</ele>
        <time>2010-06-13T07:12:13Z</time>
      </trkpt>
      <trkpt lat="50.38718" lon="2.0209">
        <ele>117.4182129</ele>
        <time>2010-06-13T07:12:15Z</time>
      </trkpt>
      <trkpt lat="50.38711" lon="2.02046">
        <ele>114.5341797</ele>
        <time>2010-06-13T07:12:20Z</time>
      </trkpt>
      <trkpt lat="50.38707" lon="2.02004">
        <ele>110.6888428</ele>
        <time>2010-06-13T07:12:25Z</time>
      </trkpt>
      <trkpt lat="50.38707" lon="2.01989">
        <ele>109.2469482</ele>
        <time>2010-06-13T07:12:27Z</time>
      </trkpt>
      <trkpt lat="50.38698" lon="2.0195">
        <ele>109.2469482</ele>
        <time>2010-06-13T07:12:32Z</time>
      </trkpt>
      <trkpt lat="50.38694" lon="2.01931">
        <ele>112.1309814</ele>
        <time>2010-06-13T07:12:34Z</time>
      </trkpt>
      <trkpt lat="50.38684" lon="2.01884">
        <ele>116.4567871</ele>
        <time>2010-06-13T07:12:39Z</time>
      </trkpt>
      <trkpt lat="50.3868" lon="2.01854">
        <ele>119.8214111</ele>
        <time>2010-06-13T07:12:42Z</time>
      </trkpt>
      <trkpt lat="50.38682" lon="2.01825">
        <ele>114.0535889</ele>
        <time>2010-06-13T07:12:46Z</time>
      </trkpt>
      <trkpt lat="50.38686" lon="2.01801">
        <ele>110.208252</ele>
        <time>2010-06-13T07:12:49Z</time>
      </trkpt>
      <trkpt lat="50.38691" lon="2.0177">
        <ele>108.2856445</ele>
        <time>2010-06-13T07:12:53Z</time>
      </trkpt>
      <trkpt lat="50.38705" lon="2.01707">
        <ele>109.2469482</ele>
        <time>2010-06-13T07:13:01Z</time>
      </trkpt>
      <trkpt lat="50.38707" lon="2.017">
        <ele>108.2856445</ele>
        <time>2010-06-13T07:13:02Z</time>
      </trkpt>
      <trkpt lat="50.38718" lon="2.01662">
        <ele>106.3630371</ele>
        <time>2010-06-13T07:13:07Z</time>
      </trkpt>
      <trkpt lat="50.38727" lon="2.01629">
        <ele>105.8824463</ele>
        <time>2010-06-13T07:13:11Z</time>
      </trkpt>
      <trkpt lat="50.38739" lon="2.01588">
        <ele>107.8050537</ele>
        <time>2010-06-13T07:13:16Z</time>
      </trkpt>
      <trkpt lat="50.38753" lon="2.01543">
        <ele>102.5177002</ele>
        <time>2010-06-13T07:13:21Z</time>
      </trkpt>
      <trkpt lat="50.38769" lon="2.01497">
        <ele>102.5177002</ele>
        <time>2010-06-13T07:13:26Z</time>
      </trkpt>
      <trkpt lat="50.38776" lon="2.01479">
        <ele>100.114502</ele>
        <time>2010-06-13T07:13:28Z</time>
      </trkpt>
      <trkpt lat="50.38776" lon="2.01465">
        <ele>98.6724854</ele>
        <time>2010-06-13T07:13:30Z</time>
      </trkpt>
      <trkpt lat="50.38787" lon="2.01464">
        <ele>95.7884521</ele>
        <time>2010-06-13T07:13:34Z</time>
      </trkpt>
      <trkpt lat="50.38813" lon="2.01469">
        <ele>93.3851318</ele>
        <time>2010-06-13T07:13:40Z</time>
      </trkpt>
      <trkpt lat="50.38837" lon="2.01472">
        <ele>92.904541</ele>
        <time>2010-06-13T07:13:45Z</time>
      </trkpt>
      <trkpt lat="50.38854" lon="2.01472">
        <ele>90.5013428</ele>
        <time>2010-06-13T07:13:50Z</time>
      </trkpt>
      <trkpt lat="50.38886" lon="2.01475">
        <ele>84.7333984</ele>
        <time>2010-06-13T07:13:55Z</time>
      </trkpt>
      <trkpt lat="50.3893" lon="2.01484">
        <ele>80.4074707</ele>
        <time>2010-06-13T07:14:01Z</time>
      </trkpt>
      <trkpt lat="50.38973" lon="2.01489">
        <ele>77.5234375</ele>
        <time>2010-06-13T07:14:06Z</time>
      </trkpt>
      <trkpt lat="50.39004" lon="2.01494">
        <ele>75.6008301</ele>
        <time>2010-06-13T07:14:10Z</time>
      </trkpt>
      <trkpt lat="50.3905" lon="2.015">
        <ele>71.7554932</ele>
        <time>2010-06-13T07:14:16Z</time>
      </trkpt>
      <trkpt lat="50.39096" lon="2.01508">
        <ele>67.9102783</ele>
        <time>2010-06-13T07:14:22Z</time>
      </trkpt>
      <trkpt lat="50.39125" lon="2.01511">
        <ele>63.1036377</ele>
        <time>2010-06-13T07:14:26Z</time>
      </trkpt>
      <trkpt lat="50.39139" lon="2.01516">
        <ele>60.7003174</ele>
        <time>2010-06-13T07:14:28Z</time>
      </trkpt>
      <trkpt lat="50.39171" lon="2.0152">
        <ele>56.8551025</ele>
        <time>2010-06-13T07:14:33Z</time>
      </trkpt>
      <trkpt lat="50.39196" lon="2.01522">
        <ele>52.048584</ele>
        <time>2010-06-13T07:14:37Z</time>
      </trkpt>
      <trkpt lat="50.39203" lon="2.01522">
        <ele>52.048584</ele>
        <time>2010-06-13T07:14:39Z</time>
      </trkpt>
      <trkpt lat="50.39206" lon="2.01524">
        <ele>49.1645508</ele>
        <time>2010-06-13T07:14:41Z</time>
      </trkpt>
      <trkpt lat="50.39211" lon="2.01529">
        <ele>47.7225342</ele>
        <time>2010-06-13T07:14:43Z</time>
      </trkpt>
      <trkpt lat="50.39221" lon="2.0153">
        <ele>48.2033691</ele>
        <time>2010-06-13T07:14:48Z</time>
      </trkpt>
      <trkpt lat="50.39222" lon="2.01531">
        <ele>48.68396</ele>
        <time>2010-06-13T07:14:49Z</time>
      </trkpt>
      <trkpt lat="50.39226" lon="2.01549">
        <ele>50.1259766</ele>
        <time>2010-06-13T07:14:56Z</time>
      </trkpt>
      <trkpt lat="50.39236" lon="2.01557">
        <ele>51.5678711</ele>
        <time>2010-06-13T07:15:00Z</time>
      </trkpt>
      <trkpt lat="50.39244" lon="2.01566">
        <ele>53.9711914</ele>
        <time>2010-06-13T07:15:04Z</time>
      </trkpt>
      <trkpt lat="50.39256" lon="2.01569">
        <ele>56.3745117</ele>
        <time>2010-06-13T07:15:09Z</time>
      </trkpt>
      <trkpt lat="50.39262" lon="2.01556">
        <ele>59.7391357</ele>
        <time>2010-06-13T07:15:15Z</time>
      </trkpt>
      <trkpt lat="50.39261" lon="2.01535">
        <ele>64.0650635</ele>
        <time>2010-06-13T07:15:19Z</time>
      </trkpt>
      <trkpt lat="50.39259" lon="2.01523">
        <ele>65.5070801</ele>
        <time>2010-06-13T07:15:23Z</time>
      </trkpt>
      <trkpt lat="50.39258" lon="2.01521">
        <ele>65.9876709</ele>
        <time>2010-06-13T07:15:24Z</time>
      </trkpt>
      <trkpt lat="50.39259" lon="2.01509">
        <ele>65.0263672</ele>
        <time>2010-06-13T07:15:30Z</time>
      </trkpt>
      <trkpt lat="50.39253" lon="2.01487">
        <ele>69.3522949</ele>
        <time>2010-06-13T07:15:34Z</time>
      </trkpt>
      <trkpt lat="50.39251" lon="2.0148">
        <ele>70.3134766</ele>
        <time>2010-06-13T07:15:35Z</time>
      </trkpt>
      <trkpt lat="50.39244" lon="2.01445">
        <ele>69.8328857</ele>
        <time>2010-06-13T07:15:40Z</time>
      </trkpt>
      <trkpt lat="50.39238" lon="2.01412">
        <ele>66.4682617</ele>
        <time>2010-06-13T07:15:45Z</time>
      </trkpt>
      <trkpt lat="50.39236" lon="2.01405">
        <ele>66.9489746</ele>
        <time>2010-06-13T07:15:46Z</time>
      </trkpt>
      <trkpt lat="50.39235" lon="2.01391">
        <ele>64.5456543</ele>
        <time>2010-06-13T07:15:48Z</time>
      </trkpt>
      <trkpt lat="50.39228" lon="2.01357">
        <ele>64.5456543</ele>
        <time>2010-06-13T07:15:53Z</time>
      </trkpt>
      <trkpt lat="50.39224" lon="2.0133">
        <ele>60.7003174</ele>
        <time>2010-06-13T07:15:59Z</time>
      </trkpt>
      <trkpt lat="50.39219" lon="2.013">
        <ele>58.2971191</ele>
        <time>2010-06-13T07:16:04Z</time>
      </trkpt>
      <trkpt lat="50.39213" lon="2.01279">
        <ele>60.2197266</ele>
        <time>2010-06-13T07:16:07Z</time>
      </trkpt>
      <trkpt lat="50.39209" lon="2.01255">
        <ele>64.0650635</ele>
        <time>2010-06-13T07:16:11Z</time>
      </trkpt>
      <trkpt lat="50.39207" lon="2.01248">
        <ele>65.0263672</ele>
        <time>2010-06-13T07:16:12Z</time>
      </trkpt>
      <trkpt lat="50.39199" lon="2.01195">
        <ele>68.3908691</ele>
        <time>2010-06-13T07:16:18Z</time>
      </trkpt>
      <trkpt lat="50.39201" lon="2.01159">
        <ele>67.9102783</ele>
        <time>2010-06-13T07:16:22Z</time>
      </trkpt>
      <trkpt lat="50.39205" lon="2.01138">
        <ele>65.9876709</ele>
        <time>2010-06-13T07:16:25Z</time>
      </trkpt>
      <trkpt lat="50.39212" lon="2.01118">
        <ele>62.6229248</ele>
        <time>2010-06-13T07:16:29Z</time>
      </trkpt>
      <trkpt lat="50.39217" lon="2.01099">
        <ele>59.2584229</ele>
        <time>2010-06-13T07:16:32Z</time>
      </trkpt>
      <trkpt lat="50.39221" lon="2.01085">
        <ele>56.3745117</ele>
        <time>2010-06-13T07:16:34Z</time>
      </trkpt>
      <trkpt lat="50.39223" lon="2.01032">
        <ele>62.6229248</ele>
        <time>2010-06-13T07:16:40Z</time>
      </trkpt>
      <trkpt lat="50.39221" lon="2.0098">
        <ele>83.2913818</ele>
        <time>2010-06-13T07:16:46Z</time>
      </trkpt>
      <trkpt lat="50.39222" lon="2.00973">
        <ele>84.7333984</ele>
        <time>2010-06-13T07:16:47Z</time>
      </trkpt>
      <trkpt lat="50.39229" lon="2.00935">
        <ele>83.7719727</ele>
        <time>2010-06-13T07:16:52Z</time>
      </trkpt>
      <trkpt lat="50.39233" lon="2.00915">
        <ele>81.8493652</ele>
        <time>2010-06-13T07:16:54Z</time>
      </trkpt>
      <trkpt lat="50.39243" lon="2.00875">
        <ele>73.6782227</ele>
        <time>2010-06-13T07:16:58Z</time>
      </trkpt>
      <trkpt lat="50.39259" lon="2.00825">
        <ele>66.4682617</ele>
        <time>2010-06-13T07:17:04Z</time>
      </trkpt>
      <trkpt lat="50.3927" lon="2.00802">
        <ele>61.6617432</ele>
        <time>2010-06-13T07:17:08Z</time>
      </trkpt>
      <trkpt lat="50.39279" lon="2.00773">
        <ele>62.6229248</ele>
        <time>2010-06-13T07:17:13Z</time>
      </trkpt>
      <trkpt lat="50.39287" lon="2.0076">
        <ele>59.2584229</ele>
        <time>2010-06-13T07:17:16Z</time>
      </trkpt>
      <trkpt lat="50.39297" lon="2.00741">
        <ele>57.8165283</ele>
        <time>2010-06-13T07:17:20Z</time>
      </trkpt>
      <trkpt lat="50.39316" lon="2.00708">
        <ele>53.9711914</ele>
        <time>2010-06-13T07:17:27Z</time>
      </trkpt>
      <trkpt lat="50.39326" lon="2.00673">
        <ele>58.2971191</ele>
        <time>2010-06-13T07:17:33Z</time>
      </trkpt>
      <trkpt lat="50.39334" lon="2.00652">
        <ele>60.7003174</ele>
        <time>2010-06-13T07:17:37Z</time>
      </trkpt>
      <trkpt lat="50.39345" lon="2.00618">
        <ele>65.5070801</ele>
        <time>2010-06-13T07:17:43Z</time>
      </trkpt>
      <trkpt lat="50.39355" lon="2.00583">
        <ele>70.3134766</ele>
        <time>2010-06-13T07:17:49Z</time>
      </trkpt>
      <trkpt lat="50.39366" lon="2.00548">
        <ele>75.1202393</ele>
        <time>2010-06-13T07:17:55Z</time>
      </trkpt>
      <trkpt lat="50.39367" lon="2.00541">
        <ele>76.0814209</ele>
        <time>2010-06-13T07:17:56Z</time>
      </trkpt>
      <trkpt lat="50.39372" lon="2.00518">
        <ele>77.5234375</ele>
        <time>2010-06-13T07:18:00Z</time>
      </trkpt>
      <trkpt lat="50.39376" lon="2.00487">
        <ele>80.8881836</ele>
        <time>2010-06-13T07:18:06Z</time>
      </trkpt>
      <trkpt lat="50.39378" lon="2.00455">
        <ele>86.6560059</ele>
        <time>2010-06-13T07:18:12Z</time>
      </trkpt>
      <trkpt lat="50.39381" lon="2.00409">
        <ele>91.4625244</ele>
        <time>2010-06-13T07:18:20Z</time>
      </trkpt>
      <trkpt lat="50.39386" lon="2.00369">
        <ele>93.3851318</ele>
        <time>2010-06-13T07:18:28Z</time>
      </trkpt>
      <trkpt lat="50.39388" lon="2.00343">
        <ele>95.7884521</ele>
        <time>2010-06-13T07:18:34Z</time>
      </trkpt>
      <trkpt lat="50.39387" lon="2.00318">
        <ele>96.7498779</ele>
        <time>2010-06-13T07:18:40Z</time>
      </trkpt>
      <trkpt lat="50.39387" lon="2.00293">
        <ele>95.7884521</ele>
        <time>2010-06-13T07:18:47Z</time>
      </trkpt>
      <trkpt lat="50.39387" lon="2.00289">
        <ele>94.8271484</ele>
        <time>2010-06-13T07:18:48Z</time>
      </trkpt>
      <trkpt lat="50.39388" lon="2.0027">
        <ele>88.5787354</ele>
        <time>2010-06-13T07:18:54Z</time>
      </trkpt>
      <trkpt lat="50.39387" lon="2.00263">
        <ele>88.5787354</ele>
        <time>2010-06-13T07:18:57Z</time>
      </trkpt>
      <trkpt lat="50.39388" lon="2.00263">
        <ele>88.5787354</ele>
        <time>2010-06-13T07:18:58Z</time>
      </trkpt>
      <trkpt lat="50.39395" lon="2.0026">
        <ele>98.1918945</ele>
        <time>2010-06-13T07:19:08Z</time>
      </trkpt>
      <trkpt lat="50.39396" lon="2.00259">
        <ele>98.6724854</ele>
        <time>2010-06-13T07:19:09Z</time>
      </trkpt>
      <trkpt lat="50.39396" lon="2.0026">
        <ele>98.6724854</ele>
        <time>2010-06-13T07:19:10Z</time>
      </trkpt>
      <trkpt lat="50.39394" lon="2.00257">
        <ele>99.6337891</ele>
        <time>2010-06-13T07:19:13Z</time>
      </trkpt>
      <trkpt lat="50.3937" lon="2.00252">
        <ele>94.8271484</ele>
        <time>2010-06-13T07:19:18Z</time>
      </trkpt>
      <trkpt lat="50.39363" lon="2.00249">
        <ele>93.3851318</ele>
        <time>2010-06-13T07:19:19Z</time>
      </trkpt>
      <trkpt lat="50.39336" lon="2.00232">
        <ele>86.6560059</ele>
        <time>2010-06-13T07:19:23Z</time>
      </trkpt>
      <trkpt lat="50.39311" lon="2.00215">
        <ele>79.4460449</ele>
        <time>2010-06-13T07:19:28Z</time>
      </trkpt>
      <trkpt lat="50.39308" lon="2.00213">
        <ele>78.4847412</ele>
        <time>2010-06-13T07:19:29Z</time>
      </trkpt>
      <trkpt lat="50.39295" lon="2.00206">
        <ele>74.1588135</ele>
        <time>2010-06-13T07:19:34Z</time>
      </trkpt>
      <trkpt lat="50.39291" lon="2.00204">
        <ele>72.7169189</ele>
        <time>2010-06-13T07:19:35Z</time>
      </trkpt>
      <trkpt lat="50.39266" lon="2.00188">
        <ele>66.4682617</ele>
        <time>2010-06-13T07:19:40Z</time>
      </trkpt>
      <trkpt lat="50.39234" lon="2.00185">
        <ele>62.6229248</ele>
        <time>2010-06-13T07:19:44Z</time>
      </trkpt>
      <trkpt lat="50.39214" lon="2.00192">
        <ele>60.2197266</ele>
        <time>2010-06-13T07:19:46Z</time>
      </trkpt>
      <trkpt lat="50.39173" lon="2.00219">
        <ele>55.4130859</ele>
        <time>2010-06-13T07:19:51Z</time>
      </trkpt>
      <trkpt lat="50.39161" lon="2.00225">
        <ele>53.4904785</ele>
        <time>2010-06-13T07:19:53Z</time>
      </trkpt>
      <trkpt lat="50.39149" lon="2.0022">
        <ele>49.6452637</ele>
        <time>2010-06-13T07:19:57Z</time>
      </trkpt>
      <trkpt lat="50.39147" lon="2.00204">
        <ele>47.7225342</ele>
        <time>2010-06-13T07:20:00Z</time>
      </trkpt>
      <trkpt lat="50.39147" lon="2.00171">
        <ele>41.9547119</ele>
        <time>2010-06-13T07:20:06Z</time>
      </trkpt>
      <trkpt lat="50.39146" lon="2.00146">
        <ele>43.8773193</ele>
        <time>2010-06-13T07:20:10Z</time>
      </trkpt>
      <trkpt lat="50.39144" lon="2.00121">
        <ele>47.2418213</ele>
        <time>2010-06-13T07:20:14Z</time>
      </trkpt>
      <trkpt lat="50.39142" lon="2.00094">
        <ele>49.6452637</ele>
        <time>2010-06-13T07:20:18Z</time>
      </trkpt>
      <trkpt lat="50.3914" lon="2.0004">
        <ele>53.9711914</ele>
        <time>2010-06-13T07:20:26Z</time>
      </trkpt>
      <trkpt lat="50.39139" lon="2.0002">
        <ele>58.2971191</ele>
        <time>2010-06-13T07:20:30Z</time>
      </trkpt>
      <trkpt lat="50.3914" lon="2.00003">
        <ele>61.6617432</ele>
        <time>2010-06-13T07:20:35Z</time>
      </trkpt>
      <trkpt lat="50.39141" lon="1.99992">
        <ele>64.5456543</ele>
        <time>2010-06-13T07:20:40Z</time>
      </trkpt>
      <trkpt lat="50.39146" lon="1.99976">
        <ele>60.2197266</ele>
        <time>2010-06-13T07:20:48Z</time>
      </trkpt>
      <trkpt lat="50.39152" lon="1.99954">
        <ele>56.8551025</ele>
        <time>2010-06-13T07:20:54Z</time>
      </trkpt>
      <trkpt lat="50.39163" lon="1.99914">
        <ele>52.048584</ele>
        <time>2010-06-13T07:21:02Z</time>
      </trkpt>
      <trkpt lat="50.39169" lon="1.99887">
        <ele>50.1259766</ele>
        <time>2010-06-13T07:21:07Z</time>
      </trkpt>
      <trkpt lat="50.3918" lon="1.99843">
        <ele>49.1645508</ele>
        <time>2010-06-13T07:21:15Z</time>
      </trkpt>
      <trkpt lat="50.39192" lon="1.99795">
        <ele>49.1645508</ele>
        <time>2010-06-13T07:21:23Z</time>
      </trkpt>
      <trkpt lat="50.39205" lon="1.99737">
        <ele>45.3192139</ele>
        <time>2010-06-13T07:21:32Z</time>
      </trkpt>
      <trkpt lat="50.39216" lon="1.99674">
        <ele>45.7999268</ele>
        <time>2010-06-13T07:21:42Z</time>
      </trkpt>
      <trkpt lat="50.39231" lon="1.99595">
        <ele>43.8773193</ele>
        <time>2010-06-13T07:21:53Z</time>
      </trkpt>
      <trkpt lat="50.3924" lon="1.9954">
        <ele>41.473999</ele>
        <time>2010-06-13T07:22:00Z</time>
      </trkpt>
      <trkpt lat="50.39245" lon="1.99474">
        <ele>38.109375</ele>
        <time>2010-06-13T07:22:07Z</time>
      </trkpt>
      <trkpt lat="50.3925" lon="1.99426">
        <ele>33.7834473</ele>
        <time>2010-06-13T07:22:12Z</time>
      </trkpt>
      <trkpt lat="50.39252" lon="1.99418">
        <ele>32.8222656</ele>
        <time>2010-06-13T07:22:13Z</time>
      </trkpt>
      <trkpt lat="50.39262" lon="1.99393">
        <ele>28.4962158</ele>
        <time>2010-06-13T07:22:17Z</time>
      </trkpt>
      <trkpt lat="50.39268" lon="1.99382">
        <ele>27.5349121</ele>
        <time>2010-06-13T07:22:19Z</time>
      </trkpt>
      <trkpt lat="50.39288" lon="1.99345">
        <ele>25.6123047</ele>
        <time>2010-06-13T07:22:25Z</time>
      </trkpt>
      <trkpt lat="50.39291" lon="1.9934">
        <ele>25.6123047</ele>
        <time>2010-06-13T07:22:26Z</time>
      </trkpt>
      <trkpt lat="50.39301" lon="1.99335">
        <ele>28.4962158</ele>
        <time>2010-06-13T07:22:31Z</time>
      </trkpt>
      <trkpt lat="50.39303" lon="1.99337">
        <ele>28.9769287</ele>
        <time>2010-06-13T07:22:32Z</time>
      </trkpt>
      <trkpt lat="50.39308" lon="1.99342">
        <ele>29.9381104</ele>
        <time>2010-06-13T07:22:35Z</time>
      </trkpt>
      <trkpt lat="50.39317" lon="1.99341">
        <ele>32.8222656</ele>
        <time>2010-06-13T07:22:39Z</time>
      </trkpt>
      <trkpt lat="50.39324" lon="1.99338">
        <ele>35.2254639</ele>
        <time>2010-06-13T07:22:42Z</time>
      </trkpt>
      <trkpt lat="50.39331" lon="1.99327">
        <ele>39.5512695</ele>
        <time>2010-06-13T07:22:47Z</time>
      </trkpt>
      <trkpt lat="50.39336" lon="1.99312">
        <ele>40.0321045</ele>
        <time>2010-06-13T07:22:52Z</time>
      </trkpt>
      <trkpt lat="50.39343" lon="1.99294">
        <ele>41.473999</ele>
        <time>2010-06-13T07:22:57Z</time>
      </trkpt>
      <trkpt lat="50.39349" lon="1.99283">
        <ele>41.9547119</ele>
        <time>2010-06-13T07:23:02Z</time>
      </trkpt>
      <trkpt lat="50.39351" lon="1.9928">
        <ele>41.9547119</ele>
        <time>2010-06-13T07:23:03Z</time>
      </trkpt>
      <trkpt lat="50.39354" lon="1.99265">
        <ele>39.0706787</ele>
        <time>2010-06-13T07:23:08Z</time>
      </trkpt>
      <trkpt lat="50.39353" lon="1.99257">
        <ele>40.0321045</ele>
        <time>2010-06-13T07:23:10Z</time>
      </trkpt>
      <trkpt lat="50.39351" lon="1.99232">
        <ele>43.8773193</ele>
        <time>2010-06-13T07:23:16Z</time>
      </trkpt>
      <trkpt lat="50.39351" lon="1.99212">
        <ele>44.3580322</ele>
        <time>2010-06-13T07:23:20Z</time>
      </trkpt>
      <trkpt lat="50.39359" lon="1.99189">
        <ele>40.9934082</ele>
        <time>2010-06-13T07:23:26Z</time>
      </trkpt>
      <trkpt lat="50.39365" lon="1.99171">
        <ele>38.5900879</ele>
        <time>2010-06-13T07:23:31Z</time>
      </trkpt>
      <trkpt lat="50.39374" lon="1.99153">
        <ele>35.7060547</ele>
        <time>2010-06-13T07:23:36Z</time>
      </trkpt>
      <trkpt lat="50.39378" lon="1.99138">
        <ele>36.1867676</ele>
        <time>2010-06-13T07:23:40Z</time>
      </trkpt>
      <trkpt lat="50.39383" lon="1.99127">
        <ele>35.7060547</ele>
        <time>2010-06-13T07:23:43Z</time>
      </trkpt>
      <trkpt lat="50.39395" lon="1.99114">
        <ele>35.2254639</ele>
        <time>2010-06-13T07:23:49Z</time>
      </trkpt>
      <trkpt lat="50.39408" lon="1.99101">
        <ele>35.7060547</ele>
        <time>2010-06-13T07:23:54Z</time>
      </trkpt>
      <trkpt lat="50.39428" lon="1.99094">
        <ele>39.5512695</ele>
        <time>2010-06-13T07:23:59Z</time>
      </trkpt>
      <trkpt lat="50.3944" lon="1.99083">
        <ele>43.3966064</ele>
        <time>2010-06-13T07:24:03Z</time>
      </trkpt>
      <trkpt lat="50.39453" lon="1.99073">
        <ele>47.7225342</ele>
        <time>2010-06-13T07:24:08Z</time>
      </trkpt>
      <trkpt lat="50.39469" lon="1.99063">
        <ele>52.048584</ele>
        <time>2010-06-13T07:24:14Z</time>
      </trkpt>
      <trkpt lat="50.39475" lon="1.99057">
        <ele>54.4517822</ele>
        <time>2010-06-13T07:24:16Z</time>
      </trkpt>
      <trkpt lat="50.3948" lon="1.99042">
        <ele>55.4130859</ele>
        <time>2010-06-13T07:24:22Z</time>
      </trkpt>
      <trkpt lat="50.39485" lon="1.99032">
        <ele>54.932373</ele>
        <time>2010-06-13T07:24:26Z</time>
      </trkpt>
      <trkpt lat="50.39486" lon="1.99029">
        <ele>54.4517822</ele>
        <time>2010-06-13T07:24:27Z</time>
      </trkpt>
      <trkpt lat="50.39488" lon="1.99019">
        <ele>53.9711914</ele>
        <time>2010-06-13T07:24:30Z</time>
      </trkpt>
      <trkpt lat="50.3949" lon="1.99014">
        <ele>54.4517822</ele>
        <time>2010-06-13T07:24:32Z</time>
      </trkpt>
      <trkpt lat="50.39498" lon="1.98999">
        <ele>53.9711914</ele>
        <time>2010-06-13T07:24:37Z</time>
      </trkpt>
      <trkpt lat="50.39505" lon="1.98986">
        <ele>53.4904785</ele>
        <time>2010-06-13T07:24:40Z</time>
      </trkpt>
      <trkpt lat="50.39514" lon="1.98964">
        <ele>53.4904785</ele>
        <time>2010-06-13T07:24:45Z</time>
      </trkpt>
      <trkpt lat="50.39524" lon="1.98944">
        <ele>48.68396</ele>
        <time>2010-06-13T07:24:49Z</time>
      </trkpt>
      <trkpt lat="50.39534" lon="1.98928">
        <ele>46.7612305</ele>
        <time>2010-06-13T07:24:53Z</time>
      </trkpt>
      <trkpt lat="50.39539" lon="1.98921">
        <ele>45.7999268</ele>
        <time>2010-06-13T07:24:56Z</time>
      </trkpt>
      <trkpt lat="50.39548" lon="1.98902">
        <ele>43.3966064</ele>
        <time>2010-06-13T07:25:01Z</time>
      </trkpt>
      <trkpt lat="50.39559" lon="1.98885">
        <ele>48.2033691</ele>
        <time>2010-06-13T07:25:06Z</time>
      </trkpt>
      <trkpt lat="50.39571" lon="1.98871">
        <ele>49.6452637</ele>
        <time>2010-06-13T07:25:11Z</time>
      </trkpt>
      <trkpt lat="50.39573" lon="1.98869">
        <ele>49.1645508</ele>
        <time>2010-06-13T07:25:13Z</time>
      </trkpt>
      <trkpt lat="50.39578" lon="1.98853">
        <ele>48.2033691</ele>
        <time>2010-06-13T07:25:18Z</time>
      </trkpt>
      <trkpt lat="50.39582" lon="1.98845">
        <ele>47.2418213</ele>
        <time>2010-06-13T07:25:20Z</time>
      </trkpt>
      <trkpt lat="50.39583" lon="1.9884">
        <ele>46.7612305</ele>
        <time>2010-06-13T07:25:23Z</time>
      </trkpt>
      <trkpt lat="50.39583" lon="1.9884">
        <ele>46.7612305</ele>
        <time>2010-06-13T07:25:23Z</time>
      </trkpt>
      <trkpt lat="50.39586" lon="1.98831">
        <ele>46.2806396</ele>
        <time>2010-06-13T07:25:24Z</time>
      </trkpt>
      <trkpt lat="50.39592" lon="1.98821">
        <ele>45.3192139</ele>
        <time>2010-06-13T07:25:25Z</time>
      </trkpt>
      <trkpt lat="50.39602" lon="1.98802">
        <ele>46.7612305</ele>
        <time>2010-06-13T07:25:29Z</time>
      </trkpt>
      <trkpt lat="50.39604" lon="1.98778">
        <ele>43.8773193</ele>
        <time>2010-06-13T07:25:33Z</time>
      </trkpt>
      <trkpt lat="50.39623" lon="1.98735">
        <ele>39.5512695</ele>
        <time>2010-06-13T07:25:39Z</time>
      </trkpt>
      <trkpt lat="50.39646" lon="1.98677">
        <ele>37.1480713</ele>
        <time>2010-06-13T07:25:46Z</time>
      </trkpt>
      <trkpt lat="50.39655" lon="1.98657">
        <ele>37.1480713</ele>
        <time>2010-06-13T07:25:49Z</time>
      </trkpt>
      <trkpt lat="50.39664" lon="1.98638">
        <ele>39.0706787</ele>
        <time>2010-06-13T07:25:53Z</time>
      </trkpt>
      <trkpt lat="50.39668" lon="1.98628">
        <ele>39.5512695</ele>
        <time>2010-06-13T07:25:55Z</time>
      </trkpt>
      <trkpt lat="50.39683" lon="1.98604">
        <ele>42.9160156</ele>
        <time>2010-06-13T07:26:01Z</time>
      </trkpt>
      <trkpt lat="50.39696" lon="1.98577">
        <ele>45.3192139</ele>
        <time>2010-06-13T07:26:07Z</time>
      </trkpt>
      <trkpt lat="50.39706" lon="1.98557">
        <ele>45.7999268</ele>
        <time>2010-06-13T07:26:12Z</time>
      </trkpt>
      <trkpt lat="50.39717" lon="1.98536">
        <ele>50.6065674</ele>
        <time>2010-06-13T07:26:16Z</time>
      </trkpt>
      <trkpt lat="50.39721" lon="1.9853">
        <ele>52.048584</ele>
        <time>2010-06-13T07:26:17Z</time>
      </trkpt>
      <trkpt lat="50.3973" lon="1.9852">
        <ele>51.5678711</ele>
        <time>2010-06-13T07:26:19Z</time>
      </trkpt>
      <trkpt lat="50.39746" lon="1.98495">
        <ele>53.0097656</ele>
        <time>2010-06-13T07:26:24Z</time>
      </trkpt>
      <trkpt lat="50.39761" lon="1.98474">
        <ele>53.4904785</ele>
        <time>2010-06-13T07:26:28Z</time>
      </trkpt>
      <trkpt lat="50.3977" lon="1.98454">
        <ele>54.4517822</ele>
        <time>2010-06-13T07:26:32Z</time>
      </trkpt>
      <trkpt lat="50.39777" lon="1.98443">
        <ele>54.932373</ele>
        <time>2010-06-13T07:26:35Z</time>
      </trkpt>
      <trkpt lat="50.39787" lon="1.98422">
        <ele>52.048584</ele>
        <time>2010-06-13T07:26:40Z</time>
      </trkpt>
      <trkpt lat="50.39791" lon="1.984">
        <ele>59.2584229</ele>
        <time>2010-06-13T07:26:44Z</time>
      </trkpt>
      <trkpt lat="50.39795" lon="1.9838">
        <ele>66.9489746</ele>
        <time>2010-06-13T07:26:48Z</time>
      </trkpt>
      <trkpt lat="50.39802" lon="1.98342">
        <ele>78.9654541</ele>
        <time>2010-06-13T07:26:54Z</time>
      </trkpt>
      <trkpt lat="50.39806" lon="1.98325">
        <ele>84.2526855</ele>
        <time>2010-06-13T07:26:57Z</time>
      </trkpt>
      <trkpt lat="50.39813" lon="1.98297">
        <ele>94.3465576</ele>
        <time>2010-06-13T07:27:03Z</time>
      </trkpt>
      <trkpt lat="50.39823" lon="1.98281">
        <ele>100.114502</ele>
        <time>2010-06-13T07:27:07Z</time>
      </trkpt>
      <trkpt lat="50.39826" lon="1.98276">
        <ele>102.0371094</ele>
        <time>2010-06-13T07:27:08Z</time>
      </trkpt>
      <trkpt lat="50.39846" lon="1.98254">
        <ele>104.4404297</ele>
        <time>2010-06-13T07:27:13Z</time>
      </trkpt>
      <trkpt lat="50.39866" lon="1.98236">
        <ele>105.8824463</ele>
        <time>2010-06-13T07:27:18Z</time>
      </trkpt>
      <trkpt lat="50.39871" lon="1.9823">
        <ele>103.9597168</ele>
        <time>2010-06-13T07:27:20Z</time>
      </trkpt>
      <trkpt lat="50.39892" lon="1.9821">
        <ele>88.0980225</ele>
        <time>2010-06-13T07:27:26Z</time>
      </trkpt>
      <trkpt lat="50.39909" lon="1.98187">
        <ele>70.7941895</ele>
        <time>2010-06-13T07:27:30Z</time>
      </trkpt>
      <trkpt lat="50.39916" lon="1.9818">
        <ele>65.5070801</ele>
        <time>2010-06-13T07:27:32Z</time>
      </trkpt>
      <trkpt lat="50.39933" lon="1.98158">
        <ele>54.932373</ele>
        <time>2010-06-13T07:27:38Z</time>
      </trkpt>
      <trkpt lat="50.39946" lon="1.9814">
        <ele>51.5678711</ele>
        <time>2010-06-13T07:27:43Z</time>
      </trkpt>
      <trkpt lat="50.39949" lon="1.98137">
        <ele>51.0871582</ele>
        <time>2010-06-13T07:27:44Z</time>
      </trkpt>
      <trkpt lat="50.39972" lon="1.98109">
        <ele>54.932373</ele>
        <time>2010-06-13T07:27:52Z</time>
      </trkpt>
      <trkpt lat="50.3999" lon="1.98088">
        <ele>55.8937988</ele>
        <time>2010-06-13T07:27:57Z</time>
      </trkpt>
      <trkpt lat="50.40007" lon="1.98067">
        <ele>54.932373</ele>
        <time>2010-06-13T07:28:02Z</time>
      </trkpt>
      <trkpt lat="50.4001" lon="1.98063">
        <ele>54.4517822</ele>
        <time>2010-06-13T07:28:03Z</time>
      </trkpt>
      <trkpt lat="50.40026" lon="1.98046">
        <ele>55.8937988</ele>
        <time>2010-06-13T07:28:08Z</time>
      </trkpt>
      <trkpt lat="50.40043" lon="1.98023">
        <ele>56.8551025</ele>
        <time>2010-06-13T07:28:15Z</time>
      </trkpt>
      <trkpt lat="50.40059" lon="1.98001">
        <ele>59.2584229</ele>
        <time>2010-06-13T07:28:21Z</time>
      </trkpt>
      <trkpt lat="50.40082" lon="1.9797">
        <ele>60.2197266</ele>
        <time>2010-06-13T07:28:28Z</time>
      </trkpt>
      <trkpt lat="50.40099" lon="1.97947">
        <ele>58.2971191</ele>
        <time>2010-06-13T07:28:33Z</time>
      </trkpt>
      <trkpt lat="50.40117" lon="1.97922">
        <ele>57.8165283</ele>
        <time>2010-06-13T07:28:38Z</time>
      </trkpt>
      <trkpt lat="50.40137" lon="1.97893">
        <ele>59.7391357</ele>
        <time>2010-06-13T07:28:44Z</time>
      </trkpt>
      <trkpt lat="50.40166" lon="1.97858">
        <ele>60.2197266</ele>
        <time>2010-06-13T07:28:52Z</time>
      </trkpt>
      <trkpt lat="50.40183" lon="1.97845">
        <ele>60.7003174</ele>
        <time>2010-06-13T07:28:56Z</time>
      </trkpt>
      <trkpt lat="50.4019" lon="1.97838">
        <ele>60.7003174</ele>
        <time>2010-06-13T07:28:58Z</time>
      </trkpt>
      <trkpt lat="50.40203" lon="1.97832">
        <ele>58.77771</ele>
        <time>2010-06-13T07:29:01Z</time>
      </trkpt>
      <trkpt lat="50.40222" lon="1.97828">
        <ele>53.9711914</ele>
        <time>2010-06-13T07:29:07Z</time>
      </trkpt>
      <trkpt lat="50.40224" lon="1.97829">
        <ele>53.9711914</ele>
        <time>2010-06-13T07:29:08Z</time>
      </trkpt>
      <trkpt lat="50.40231" lon="1.97832">
        <ele>53.9711914</ele>
        <time>2010-06-13T07:29:13Z</time>
      </trkpt>
      <trkpt lat="50.40237" lon="1.97844">
        <ele>54.4517822</ele>
        <time>2010-06-13T07:29:19Z</time>
      </trkpt>
      <trkpt lat="50.40243" lon="1.97851">
        <ele>56.8551025</ele>
        <time>2010-06-13T07:29:23Z</time>
      </trkpt>
      <trkpt lat="50.40253" lon="1.97864">
        <ele>57.3358154</ele>
        <time>2010-06-13T07:29:28Z</time>
      </trkpt>
      <trkpt lat="50.40256" lon="1.97876">
        <ele>61.1810303</ele>
        <time>2010-06-13T07:29:32Z</time>
      </trkpt>
      <trkpt lat="50.40263" lon="1.97888">
        <ele>65.5070801</ele>
        <time>2010-06-13T07:29:37Z</time>
      </trkpt>
      <trkpt lat="50.40273" lon="1.97901">
        <ele>67.4296875</ele>
        <time>2010-06-13T07:29:42Z</time>
      </trkpt>
      <trkpt lat="50.40284" lon="1.97915">
        <ele>63.5843506</ele>
        <time>2010-06-13T07:29:47Z</time>
      </trkpt>
      <trkpt lat="50.40294" lon="1.97933">
        <ele>58.2971191</ele>
        <time>2010-06-13T07:29:53Z</time>
      </trkpt>
      <trkpt lat="50.40302" lon="1.97951">
        <ele>55.8937988</ele>
        <time>2010-06-13T07:29:59Z</time>
      </trkpt>
      <trkpt lat="50.40311" lon="1.97968">
        <ele>50.6065674</ele>
        <time>2010-06-13T07:30:04Z</time>
      </trkpt>
      <trkpt lat="50.40315" lon="1.97978">
        <ele>49.6452637</ele>
        <time>2010-06-13T07:30:09Z</time>
      </trkpt>
      <trkpt lat="50.40321" lon="1.97987">
        <ele>52.5291748</ele>
        <time>2010-06-13T07:30:14Z</time>
      </trkpt>
      <trkpt lat="50.40324" lon="1.97987">
        <ele>53.4904785</ele>
        <time>2010-06-13T07:30:17Z</time>
      </trkpt>
      <trkpt lat="50.40331" lon="1.97992">
        <ele>45.7999268</ele>
        <time>2010-06-13T07:30:25Z</time>
      </trkpt>
      <trkpt lat="50.40341" lon="1.97992">
        <ele>78.0040283</ele>
        <time>2010-06-13T07:35:42Z</time>
      </trkpt>
      <trkpt lat="50.40342" lon="1.97993">
        <ele>78.0040283</ele>
        <time>2010-06-13T07:35:43Z</time>
      </trkpt>
      <trkpt lat="50.40342" lon="1.97994">
        <ele>77.5234375</ele>
        <time>2010-06-13T07:35:44Z</time>
      </trkpt>
      <trkpt lat="50.40342" lon="1.97996">
        <ele>76.5621338</ele>
        <time>2010-06-13T07:35:45Z</time>
      </trkpt>
      <trkpt lat="50.40345" lon="1.98013">
        <ele>81.8493652</ele>
        <time>2010-06-13T07:35:52Z</time>
      </trkpt>
      <trkpt lat="50.40345" lon="1.98016">
        <ele>81.3687744</ele>
        <time>2010-06-13T07:35:53Z</time>
      </trkpt>
      <trkpt lat="50.40348" lon="1.98025">
        <ele>82.3300781</ele>
        <time>2010-06-13T07:35:57Z</time>
      </trkpt>
      <trkpt lat="50.40356" lon="1.98046">
        <ele>82.810791</ele>
        <time>2010-06-13T07:36:04Z</time>
      </trkpt>
      <trkpt lat="50.40359" lon="1.98055">
        <ele>83.2913818</ele>
        <time>2010-06-13T07:36:07Z</time>
      </trkpt>
      <trkpt lat="50.40365" lon="1.98072">
        <ele>87.1365967</ele>
        <time>2010-06-13T07:36:13Z</time>
      </trkpt>
      <trkpt lat="50.40372" lon="1.98095">
        <ele>95.7884521</ele>
        <time>2010-06-13T07:36:20Z</time>
      </trkpt>
      <trkpt lat="50.40384" lon="1.98117">
        <ele>102.998291</ele>
        <time>2010-06-13T07:36:27Z</time>
      </trkpt>
      <trkpt lat="50.40393" lon="1.98136">
        <ele>105.4017334</ele>
        <time>2010-06-13T07:36:33Z</time>
      </trkpt>
      <trkpt lat="50.40399" lon="1.98154">
        <ele>101.0756836</ele>
        <time>2010-06-13T07:36:38Z</time>
      </trkpt>
      <trkpt lat="50.40402" lon="1.98162">
        <ele>99.1530762</ele>
        <time>2010-06-13T07:36:41Z</time>
      </trkpt>
      <trkpt lat="50.40407" lon="1.98181">
        <ele>99.6337891</ele>
        <time>2010-06-13T07:36:46Z</time>
      </trkpt>
      <trkpt lat="50.40407" lon="1.98185">
        <ele>101.0756836</ele>
        <time>2010-06-13T07:36:47Z</time>
      </trkpt>
      <trkpt lat="50.404" lon="1.98193">
        <ele>104.4404297</ele>
        <time>2010-06-13T07:36:53Z</time>
      </trkpt>
      <trkpt lat="50.40391" lon="1.98193">
        <ele>100.5950928</ele>
        <time>2010-06-13T07:36:59Z</time>
      </trkpt>
      <trkpt lat="50.40374" lon="1.98185">
        <ele>97.7111816</ele>
        <time>2010-06-13T07:37:06Z</time>
      </trkpt>
      <trkpt lat="50.40362" lon="1.98179">
        <ele>96.2692871</ele>
        <time>2010-06-13T07:37:12Z</time>
      </trkpt>
      <trkpt lat="50.40355" lon="1.9817">
        <ele>100.114502</ele>
        <time>2010-06-13T07:37:18Z</time>
      </trkpt>
      <trkpt lat="50.40342" lon="1.9816">
        <ele>109.7276611</ele>
        <time>2010-06-13T07:37:23Z</time>
      </trkpt>
      <trkpt lat="50.4033" lon="1.98156">
        <ele>116.4567871</ele>
        <time>2010-06-13T07:37:28Z</time>
      </trkpt>
      <trkpt lat="50.40323" lon="1.98154">
        <ele>119.3408203</ele>
        <time>2010-06-13T07:37:33Z</time>
      </trkpt>
      <trkpt lat="50.40314" lon="1.98155">
        <ele>118.3793945</ele>
        <time>2010-06-13T07:37:38Z</time>
      </trkpt>
      <trkpt lat="50.40302" lon="1.98156">
        <ele>120.7828369</ele>
        <time>2010-06-13T07:37:43Z</time>
      </trkpt>
      <trkpt lat="50.40291" lon="1.98158">
        <ele>122.2247314</ele>
        <time>2010-06-13T07:37:48Z</time>
      </trkpt>
      <trkpt lat="50.40279" lon="1.98161">
        <ele>123.666748</ele>
        <time>2010-06-13T07:37:53Z</time>
      </trkpt>
      <trkpt lat="50.40266" lon="1.98172">
        <ele>123.1861572</ele>
        <time>2010-06-13T07:37:59Z</time>
      </trkpt>
      <trkpt lat="50.4025" lon="1.98187">
        <ele>120.7828369</ele>
        <time>2010-06-13T07:38:07Z</time>
      </trkpt>
      <trkpt lat="50.4024" lon="1.98196">
        <ele>113.572998</ele>
        <time>2010-06-13T07:38:12Z</time>
      </trkpt>
      <trkpt lat="50.40228" lon="1.98208">
        <ele>112.1309814</ele>
        <time>2010-06-13T07:38:18Z</time>
      </trkpt>
      <trkpt lat="50.40217" lon="1.98222">
        <ele>107.8050537</ele>
        <time>2010-06-13T07:38:24Z</time>
      </trkpt>
      <trkpt lat="50.40211" lon="1.98234">
        <ele>106.8436279</ele>
        <time>2010-06-13T07:38:29Z</time>
      </trkpt>
      <trkpt lat="50.40204" lon="1.98247">
        <ele>103.4790039</ele>
        <time>2010-06-13T07:38:35Z</time>
      </trkpt>
      <trkpt lat="50.40192" lon="1.98262">
        <ele>95.7884521</ele>
        <time>2010-06-13T07:38:40Z</time>
      </trkpt>
      <trkpt lat="50.40182" lon="1.98278">
        <ele>86.6560059</ele>
        <time>2010-06-13T07:38:45Z</time>
      </trkpt>
      <trkpt lat="50.4017" lon="1.98297">
        <ele>89.0593262</ele>
        <time>2010-06-13T07:38:51Z</time>
      </trkpt>
      <trkpt lat="50.40156" lon="1.9832">
        <ele>102.998291</ele>
        <time>2010-06-13T07:39:00Z</time>
      </trkpt>
      <trkpt lat="50.40144" lon="1.98337">
        <ele>104.9210205</ele>
        <time>2010-06-13T07:39:06Z</time>
      </trkpt>
      <trkpt lat="50.40136" lon="1.98353">
        <ele>107.3243408</ele>
        <time>2010-06-13T07:39:12Z</time>
      </trkpt>
      <trkpt lat="50.40128" lon="1.98372">
        <ele>117.4182129</ele>
        <time>2010-06-13T07:39:18Z</time>
      </trkpt>
      <trkpt lat="50.40119" lon="1.98388">
        <ele>126.5506592</ele>
        <time>2010-06-13T07:39:23Z</time>
      </trkpt>
      <trkpt lat="50.40111" lon="1.98404">
        <ele>129.9152832</ele>
        <time>2010-06-13T07:39:28Z</time>
      </trkpt>
      <trkpt lat="50.40102" lon="1.98423">
        <ele>126.0699463</ele>
        <time>2010-06-13T07:39:33Z</time>
      </trkpt>
      <trkpt lat="50.40092" lon="1.98445">
        <ele>125.1087646</ele>
        <time>2010-06-13T07:39:38Z</time>
      </trkpt>
      <trkpt lat="50.40087" lon="1.98464">
        <ele>121.2635498</ele>
        <time>2010-06-13T07:39:42Z</time>
      </trkpt>
      <trkpt lat="50.40072" lon="1.9849">
        <ele>115.9761963</ele>
        <time>2010-06-13T07:39:49Z</time>
      </trkpt>
      <trkpt lat="50.40062" lon="1.98511">
        <ele>110.208252</ele>
        <time>2010-06-13T07:39:54Z</time>
      </trkpt>
      <trkpt lat="50.40049" lon="1.98537">
        <ele>106.3630371</ele>
        <time>2010-06-13T07:40:01Z</time>
      </trkpt>
      <trkpt lat="50.40043" lon="1.98555">
        <ele>108.2856445</ele>
        <time>2010-06-13T07:40:05Z</time>
      </trkpt>
      <trkpt lat="50.4003" lon="1.98582">
        <ele>111.6502686</ele>
        <time>2010-06-13T07:40:10Z</time>
      </trkpt>
      <trkpt lat="50.40019" lon="1.98607">
        <ele>111.1695557</ele>
        <time>2010-06-13T07:40:15Z</time>
      </trkpt>
      <trkpt lat="50.40014" lon="1.98625">
        <ele>114.5341797</ele>
        <time>2010-06-13T07:40:18Z</time>
      </trkpt>
      <trkpt lat="50.40012" lon="1.98638">
        <ele>119.8214111</ele>
        <time>2010-06-13T07:40:20Z</time>
      </trkpt>
      <trkpt lat="50.40008" lon="1.98678">
        <ele>134.2412109</ele>
        <time>2010-06-13T07:40:27Z</time>
      </trkpt>
      <trkpt lat="50.40005" lon="1.98713">
        <ele>145.7770996</ele>
        <time>2010-06-13T07:40:32Z</time>
      </trkpt>
      <trkpt lat="50.40004" lon="1.98748">
        <ele>152.0257568</ele>
        <time>2010-06-13T07:40:37Z</time>
      </trkpt>
      <trkpt lat="50.40002" lon="1.98763">
        <ele>151.064209</ele>
        <time>2010-06-13T07:40:39Z</time>
      </trkpt>
      <trkpt lat="50.40002" lon="1.98789">
        <ele>156.3515625</ele>
        <time>2010-06-13T07:40:43Z</time>
      </trkpt>
      <trkpt lat="50.40008" lon="1.98806">
        <ele>154.4289551</ele>
        <time>2010-06-13T07:40:48Z</time>
      </trkpt>
      <trkpt lat="50.40014" lon="1.98808">
        <ele>152.9869385</ele>
        <time>2010-06-13T07:40:52Z</time>
      </trkpt>
      <trkpt lat="50.4002" lon="1.9881">
        <ele>150.5836182</ele>
        <time>2010-06-13T07:40:55Z</time>
      </trkpt>
      <trkpt lat="50.40027" lon="1.98814">
        <ele>145.2963867</ele>
        <time>2010-06-13T07:40:59Z</time>
      </trkpt>
      <trkpt lat="50.40036" lon="1.98813">
        <ele>100.114502</ele>
        <time>2010-06-13T07:41:45Z</time>
      </trkpt>
      <trkpt lat="50.40037" lon="1.98812">
        <ele>100.5950928</ele>
        <time>2010-06-13T07:41:46Z</time>
      </trkpt>
      <trkpt lat="50.40038" lon="1.98812">
        <ele>101.0756836</ele>
        <time>2010-06-13T07:41:47Z</time>
      </trkpt>
      <trkpt lat="50.40047" lon="1.98817">
        <ele>104.9210205</ele>
        <time>2010-06-13T07:41:50Z</time>
      </trkpt>
      <trkpt lat="50.40064" lon="1.98823">
        <ele>108.2856445</ele>
        <time>2010-06-13T07:41:55Z</time>
      </trkpt>
      <trkpt lat="50.40085" lon="1.98829">
        <ele>112.6115723</ele>
        <time>2010-06-13T07:42:02Z</time>
      </trkpt>
      <trkpt lat="50.401" lon="1.98831">
        <ele>114.0535889</ele>
        <time>2010-06-13T07:42:07Z</time>
      </trkpt>
      <trkpt lat="50.40108" lon="1.98831">
        <ele>113.572998</ele>
        <time>2010-06-13T07:42:11Z</time>
      </trkpt>
      <trkpt lat="50.40115" lon="1.98833">
        <ele>113.572998</ele>
        <time>2010-06-13T07:42:17Z</time>
      </trkpt>
      <trkpt lat="50.40124" lon="1.98836">
        <ele>113.572998</ele>
        <time>2010-06-13T07:42:23Z</time>
      </trkpt>
      <trkpt lat="50.40129" lon="1.98838">
        <ele>115.4956055</ele>
        <time>2010-06-13T07:42:27Z</time>
      </trkpt>
      <trkpt lat="50.40132" lon="1.9884">
        <ele>116.9375</ele>
        <time>2010-06-13T07:42:33Z</time>
      </trkpt>
      <trkpt lat="50.40137" lon="1.98842">
        <ele>116.9375</ele>
        <time>2010-06-13T07:42:41Z</time>
      </trkpt>
      <trkpt lat="50.40146" lon="1.98844">
        <ele>117.8988037</ele>
        <time>2010-06-13T07:42:46Z</time>
      </trkpt>
      <trkpt lat="50.40152" lon="1.98842">
        <ele>124.1473389</ele>
        <time>2010-06-13T07:42:51Z</time>
      </trkpt>
      <trkpt lat="50.40165" lon="1.98848">
        <ele>122.2247314</ele>
        <time>2010-06-13T07:42:57Z</time>
      </trkpt>
      <trkpt lat="50.40172" lon="1.98852">
        <ele>117.4182129</ele>
        <time>2010-06-13T07:43:02Z</time>
      </trkpt>
      <trkpt lat="50.40182" lon="1.98854">
        <ele>116.4567871</ele>
        <time>2010-06-13T07:43:08Z</time>
      </trkpt>
      <trkpt lat="50.40185" lon="1.98855">
        <ele>120.7828369</ele>
        <time>2010-06-13T07:43:12Z</time>
      </trkpt>
      <trkpt lat="50.40191" lon="1.98855">
        <ele>120.7828369</ele>
        <time>2010-06-13T07:43:16Z</time>
      </trkpt>
      <trkpt lat="50.402" lon="1.98855">
        <ele>122.7054443</ele>
        <time>2010-06-13T07:43:20Z</time>
      </trkpt>
      <trkpt lat="50.40209" lon="1.98857">
        <ele>123.1861572</ele>
        <time>2010-06-13T07:43:26Z</time>
      </trkpt>
      <trkpt lat="50.40216" lon="1.98856">
        <ele>126.0699463</ele>
        <time>2010-06-13T07:43:31Z</time>
      </trkpt>
      <trkpt lat="50.40224" lon="1.98857">
        <ele>127.0313721</ele>
        <time>2010-06-13T07:43:35Z</time>
      </trkpt>
      <trkpt lat="50.40239" lon="1.98854">
        <ele>129.4346924</ele>
        <time>2010-06-13T07:43:41Z</time>
      </trkpt>
      <trkpt lat="50.40244" lon="1.98854">
        <ele>129.4346924</ele>
        <time>2010-06-13T07:43:43Z</time>
      </trkpt>
      <trkpt lat="50.40249" lon="1.98853">
        <ele>128.9541016</ele>
        <time>2010-06-13T07:43:45Z</time>
      </trkpt>
      <trkpt lat="50.40254" lon="1.9885">
        <ele>126.0699463</ele>
        <time>2010-06-13T07:43:49Z</time>
      </trkpt>
      <trkpt lat="50.40259" lon="1.9885">
        <ele>120.7828369</ele>
        <time>2010-06-13T07:43:52Z</time>
      </trkpt>
      <trkpt lat="50.40265" lon="1.98853">
        <ele>116.4567871</ele>
        <time>2010-06-13T07:43:58Z</time>
      </trkpt>
      <trkpt lat="50.40276" lon="1.98855">
        <ele>116.9375</ele>
        <time>2010-06-13T07:44:04Z</time>
      </trkpt>
      <trkpt lat="50.40291" lon="1.98855">
        <ele>123.1861572</ele>
        <time>2010-06-13T07:44:08Z</time>
      </trkpt>
      <trkpt lat="50.403" lon="1.98857">
        <ele>120.7828369</ele>
        <time>2010-06-13T07:44:15Z</time>
      </trkpt>
      <trkpt lat="50.40317" lon="1.9886">
        <ele>127.0313721</ele>
        <time>2010-06-13T07:44:23Z</time>
      </trkpt>
      <trkpt lat="50.40337" lon="1.98864">
        <ele>124.1473389</ele>
        <time>2010-06-13T07:44:30Z</time>
      </trkpt>
      <trkpt lat="50.40353" lon="1.9887">
        <ele>115.4956055</ele>
        <time>2010-06-13T07:44:36Z</time>
      </trkpt>
      <trkpt lat="50.40364" lon="1.98869">
        <ele>108.7662354</ele>
        <time>2010-06-13T07:44:42Z</time>
      </trkpt>
      <trkpt lat="50.40367" lon="1.98868">
        <ele>106.8436279</ele>
        <time>2010-06-13T07:44:46Z</time>
      </trkpt>
      <trkpt lat="50.40369" lon="1.98868">
        <ele>105.4017334</ele>
        <time>2010-06-13T07:44:48Z</time>
      </trkpt>
      <trkpt lat="50.40373" lon="1.98866">
        <ele>103.9597168</ele>
        <time>2010-06-13T07:44:52Z</time>
      </trkpt>
      <trkpt lat="50.40385" lon="1.98869">
        <ele>98.6724854</ele>
        <time>2010-06-13T07:44:58Z</time>
      </trkpt>
      <trkpt lat="50.40394" lon="1.98873">
        <ele>96.2692871</ele>
        <time>2010-06-13T07:45:05Z</time>
      </trkpt>
      <trkpt lat="50.40403" lon="1.98879">
        <ele>91.9432373</ele>
        <time>2010-06-13T07:45:10Z</time>
      </trkpt>
      <trkpt lat="50.40412" lon="1.98882">
        <ele>87.6171875</ele>
        <time>2010-06-13T07:45:14Z</time>
      </trkpt>
      <trkpt lat="50.40425" lon="1.98886">
        <ele>82.810791</ele>
        <time>2010-06-13T07:45:21Z</time>
      </trkpt>
      <trkpt lat="50.40431" lon="1.98887">
        <ele>81.3687744</ele>
        <time>2010-06-13T07:45:24Z</time>
      </trkpt>
      <trkpt lat="50.40465" lon="1.98889">
        <ele>88.5787354</ele>
        <time>2010-06-13T07:45:28Z</time>
      </trkpt>
      <trkpt lat="50.40488" lon="1.98892">
        <ele>86.175293</ele>
        <time>2010-06-13T07:45:35Z</time>
      </trkpt>
      <trkpt lat="50.40498" lon="1.98893">
        <ele>85.2139893</ele>
        <time>2010-06-13T07:45:39Z</time>
      </trkpt>
      <trkpt lat="50.40511" lon="1.98894">
        <ele>82.810791</ele>
        <time>2010-06-13T07:45:44Z</time>
      </trkpt>
      <trkpt lat="50.40526" lon="1.98897">
        <ele>79.9266357</ele>
        <time>2010-06-13T07:45:48Z</time>
      </trkpt>
      <trkpt lat="50.40552" lon="1.98901">
        <ele>74.6395264</ele>
        <time>2010-06-13T07:45:54Z</time>
      </trkpt>
      <trkpt lat="50.40568" lon="1.98902">
        <ele>72.7169189</ele>
        <time>2010-06-13T07:45:58Z</time>
      </trkpt>
      <trkpt lat="50.4059" lon="1.98905">
        <ele>74.6395264</ele>
        <time>2010-06-13T07:46:02Z</time>
      </trkpt>
      <trkpt lat="50.40593" lon="1.98905">
        <ele>74.1588135</ele>
        <time>2010-06-13T07:46:03Z</time>
      </trkpt>
      <trkpt lat="50.40618" lon="1.9891">
        <ele>70.7941895</ele>
        <time>2010-06-13T07:46:11Z</time>
      </trkpt>
      <trkpt lat="50.40637" lon="1.98914">
        <ele>65.9876709</ele>
        <time>2010-06-13T07:46:17Z</time>
      </trkpt>
      <trkpt lat="50.40648" lon="1.98917">
        <ele>62.142334</ele>
        <time>2010-06-13T07:46:22Z</time>
      </trkpt>
      <trkpt lat="50.40657" lon="1.98915">
        <ele>58.2971191</ele>
        <time>2010-06-13T07:46:28Z</time>
      </trkpt>
      <trkpt lat="50.40671" lon="1.98908">
        <ele>54.932373</ele>
        <time>2010-06-13T07:46:32Z</time>
      </trkpt>
      <trkpt lat="50.40697" lon="1.98899">
        <ele>53.4904785</ele>
        <time>2010-06-13T07:46:37Z</time>
      </trkpt>
      <trkpt lat="50.40712" lon="1.98898">
        <ele>52.5291748</ele>
        <time>2010-06-13T07:46:40Z</time>
      </trkpt>
      <trkpt lat="50.40722" lon="1.98897">
        <ele>53.0097656</ele>
        <time>2010-06-13T07:46:42Z</time>
      </trkpt>
      <trkpt lat="50.40732" lon="1.98893">
        <ele>53.4904785</ele>
        <time>2010-06-13T07:46:44Z</time>
      </trkpt>
      <trkpt lat="50.40745" lon="1.98891">
        <ele>53.4904785</ele>
        <time>2010-06-13T07:46:47Z</time>
      </trkpt>
      <trkpt lat="50.40764" lon="1.98898">
        <ele>56.3745117</ele>
        <time>2010-06-13T07:46:52Z</time>
      </trkpt>
      <trkpt lat="50.40776" lon="1.98902">
        <ele>59.2584229</ele>
        <time>2010-06-13T07:46:54Z</time>
      </trkpt>
      <trkpt lat="50.4079" lon="1.98921">
        <ele>63.1036377</ele>
        <time>2010-06-13T07:47:00Z</time>
      </trkpt>
      <trkpt lat="50.40796" lon="1.98947">
        <ele>63.1036377</ele>
        <time>2010-06-13T07:47:05Z</time>
      </trkpt>
      <trkpt lat="50.40799" lon="1.98967">
        <ele>65.5070801</ele>
        <time>2010-06-13T07:47:09Z</time>
      </trkpt>
      <trkpt lat="50.40805" lon="1.99">
        <ele>73.6782227</ele>
        <time>2010-06-13T07:47:15Z</time>
      </trkpt>
      <trkpt lat="50.40801" lon="1.9903">
        <ele>75.1202393</ele>
        <time>2010-06-13T07:47:21Z</time>
      </trkpt>
      <trkpt lat="50.40789" lon="1.99072">
        <ele>76.0814209</ele>
        <time>2010-06-13T07:47:28Z</time>
      </trkpt>
      <trkpt lat="50.40779" lon="1.99101">
        <ele>71.7554932</ele>
        <time>2010-06-13T07:47:34Z</time>
      </trkpt>
      <trkpt lat="50.40767" lon="1.99124">
        <ele>68.871582</ele>
        <time>2010-06-13T07:47:40Z</time>
      </trkpt>
      <trkpt lat="50.40748" lon="1.99153">
        <ele>66.9489746</ele>
        <time>2010-06-13T07:47:48Z</time>
      </trkpt>
      <trkpt lat="50.4073" lon="1.99179">
        <ele>67.4296875</ele>
        <time>2010-06-13T07:47:54Z</time>
      </trkpt>
      <trkpt lat="50.40711" lon="1.99209">
        <ele>67.9102783</ele>
        <time>2010-06-13T07:48:00Z</time>
      </trkpt>
      <trkpt lat="50.40692" lon="1.99252">
        <ele>70.7941895</ele>
        <time>2010-06-13T07:48:08Z</time>
      </trkpt>
      <trkpt lat="50.4069" lon="1.99256">
        <ele>71.2749023</ele>
        <time>2010-06-13T07:48:09Z</time>
      </trkpt>
      <trkpt lat="50.40682" lon="1.99277">
        <ele>72.2362061</ele>
        <time>2010-06-13T07:48:14Z</time>
      </trkpt>
      <trkpt lat="50.40675" lon="1.99296">
        <ele>73.1976318</ele>
        <time>2010-06-13T07:48:19Z</time>
      </trkpt>
      <trkpt lat="50.40668" lon="1.99314">
        <ele>75.6008301</ele>
        <time>2010-06-13T07:48:24Z</time>
      </trkpt>
      <trkpt lat="50.40652" lon="1.99351">
        <ele>76.5621338</ele>
        <time>2010-06-13T07:48:31Z</time>
      </trkpt>
      <trkpt lat="50.40645" lon="1.99368">
        <ele>76.5621338</ele>
        <time>2010-06-13T07:48:34Z</time>
      </trkpt>
      <trkpt lat="50.40641" lon="1.99378">
        <ele>76.5621338</ele>
        <time>2010-06-13T07:48:36Z</time>
      </trkpt>
      <trkpt lat="50.40631" lon="1.99404">
        <ele>75.6008301</ele>
        <time>2010-06-13T07:48:41Z</time>
      </trkpt>
      <trkpt lat="50.40615" lon="1.99438">
        <ele>78.0040283</ele>
        <time>2010-06-13T07:48:49Z</time>
      </trkpt>
      <trkpt lat="50.40609" lon="1.99451">
        <ele>76.0814209</ele>
        <time>2010-06-13T07:48:52Z</time>
      </trkpt>
      <trkpt lat="50.40602" lon="1.99472">
        <ele>72.2362061</ele>
        <time>2010-06-13T07:48:56Z</time>
      </trkpt>
      <trkpt lat="50.40601" lon="1.99498">
        <ele>71.7554932</ele>
        <time>2010-06-13T07:49:00Z</time>
      </trkpt>
      <trkpt lat="50.40602" lon="1.99505">
        <ele>71.7554932</ele>
        <time>2010-06-13T07:49:01Z</time>
      </trkpt>
      <trkpt lat="50.40607" lon="1.99536">
        <ele>71.7554932</ele>
        <time>2010-06-13T07:49:05Z</time>
      </trkpt>
      <trkpt lat="50.4061" lon="1.99563">
        <ele>70.3134766</ele>
        <time>2010-06-13T07:49:09Z</time>
      </trkpt>
      <trkpt lat="50.40609" lon="1.99581">
        <ele>69.3522949</ele>
        <time>2010-06-13T07:49:12Z</time>
      </trkpt>
      <trkpt lat="50.40602" lon="1.99615">
        <ele>67.4296875</ele>
        <time>2010-06-13T07:49:18Z</time>
      </trkpt>
      <trkpt lat="50.40596" lon="1.99647">
        <ele>67.4296875</ele>
        <time>2010-06-13T07:49:23Z</time>
      </trkpt>
      <trkpt lat="50.4059" lon="1.99664">
        <ele>66.4682617</ele>
        <time>2010-06-13T07:49:26Z</time>
      </trkpt>
      <trkpt lat="50.40582" lon="1.99688">
        <ele>69.8328857</ele>
        <time>2010-06-13T07:49:31Z</time>
      </trkpt>
      <trkpt lat="50.4058" lon="1.99709">
        <ele>72.7169189</ele>
        <time>2010-06-13T07:49:36Z</time>
      </trkpt>
      <trkpt lat="50.40581" lon="1.9972">
        <ele>73.1976318</ele>
        <time>2010-06-13T07:49:39Z</time>
      </trkpt>
      <trkpt lat="50.4058" lon="1.99728">
        <ele>73.6782227</ele>
        <time>2010-06-13T07:49:41Z</time>
      </trkpt>
      <trkpt lat="50.40574" lon="1.9975">
        <ele>71.7554932</ele>
        <time>2010-06-13T07:49:46Z</time>
      </trkpt>
      <trkpt lat="50.40569" lon="1.9978">
        <ele>67.9102783</ele>
        <time>2010-06-13T07:49:50Z</time>
      </trkpt>
      <trkpt lat="50.40563" lon="1.99807">
        <ele>67.9102783</ele>
        <time>2010-06-13T07:49:54Z</time>
      </trkpt>
      <trkpt lat="50.4056" lon="1.99837">
        <ele>65.9876709</ele>
        <time>2010-06-13T07:49:59Z</time>
      </trkpt>
      <trkpt lat="50.40553" lon="1.99877">
        <ele>62.6229248</ele>
        <time>2010-06-13T07:50:06Z</time>
      </trkpt>
      <trkpt lat="50.40552" lon="1.99905">
        <ele>56.3745117</ele>
        <time>2010-06-13T07:50:11Z</time>
      </trkpt>
      <trkpt lat="50.40553" lon="1.99937">
        <ele>48.68396</ele>
        <time>2010-06-13T07:50:16Z</time>
      </trkpt>
      <trkpt lat="50.40548" lon="1.99976">
        <ele>40.9934082</ele>
        <time>2010-06-13T07:50:22Z</time>
      </trkpt>
      <trkpt lat="50.40546" lon="1.99983">
        <ele>38.109375</ele>
        <time>2010-06-13T07:50:23Z</time>
      </trkpt>
      <trkpt lat="50.40544" lon="1.99996">
        <ele>38.109375</ele>
        <time>2010-06-13T07:50:25Z</time>
      </trkpt>
      <trkpt lat="50.40538" lon="2.00031">
        <ele>30.4188232</ele>
        <time>2010-06-13T07:50:30Z</time>
      </trkpt>
      <trkpt lat="50.40537" lon="2.0006">
        <ele>28.0155029</ele>
        <time>2010-06-13T07:50:34Z</time>
      </trkpt>
      <trkpt lat="50.40541" lon="2.00079">
        <ele>24.651001</ele>
        <time>2010-06-13T07:50:37Z</time>
      </trkpt>
      <trkpt lat="50.40549" lon="2.001">
        <ele>16.9604492</ele>
        <time>2010-06-13T07:50:41Z</time>
      </trkpt>
      <trkpt lat="50.40555" lon="2.00125">
        <ele>15.0377197</ele>
        <time>2010-06-13T07:50:44Z</time>
      </trkpt>
      <trkpt lat="50.40542" lon="2.0018">
        <ele>40.9934082</ele>
        <time>2010-06-13T07:50:47Z</time>
      </trkpt>
      <trkpt lat="50.40549" lon="2.00233">
        <ele>59.7391357</ele>
        <time>2010-06-13T07:50:52Z</time>
      </trkpt>
      <trkpt lat="50.40553" lon="2.00267">
        <ele>68.3908691</ele>
        <time>2010-06-13T07:50:56Z</time>
      </trkpt>
      <trkpt lat="50.40554" lon="2.00311">
        <ele>66.4682617</ele>
        <time>2010-06-13T07:51:01Z</time>
      </trkpt>
      <trkpt lat="50.40556" lon="2.00336">
        <ele>61.6617432</ele>
        <time>2010-06-13T07:51:05Z</time>
      </trkpt>
      <trkpt lat="50.40553" lon="2.00349">
        <ele>62.142334</ele>
        <time>2010-06-13T07:51:07Z</time>
      </trkpt>
      <trkpt lat="50.40549" lon="2.00361">
        <ele>62.142334</ele>
        <time>2010-06-13T07:51:09Z</time>
      </trkpt>
      <trkpt lat="50.40543" lon="2.00387">
        <ele>57.3358154</ele>
        <time>2010-06-13T07:51:14Z</time>
      </trkpt>
      <trkpt lat="50.40538" lon="2.00412">
        <ele>44.3580322</ele>
        <time>2010-06-13T07:51:20Z</time>
      </trkpt>
      <trkpt lat="50.40533" lon="2.00425">
        <ele>35.2254639</ele>
        <time>2010-06-13T07:51:23Z</time>
      </trkpt>
      <trkpt lat="50.40522" lon="2.00449">
        <ele>21.286377</ele>
        <time>2010-06-13T07:51:28Z</time>
      </trkpt>
      <trkpt lat="50.40515" lon="2.00475">
        <ele>15.5184326</ele>
        <time>2010-06-13T07:51:32Z</time>
      </trkpt>
      <trkpt lat="50.40513" lon="2.00486">
        <ele>15.0377197</ele>
        <time>2010-06-13T07:51:34Z</time>
      </trkpt>
      <trkpt lat="50.40509" lon="2.00499">
        <ele>14.5570068</ele>
        <time>2010-06-13T07:51:36Z</time>
      </trkpt>
      <trkpt lat="50.40505" lon="2.00528">
        <ele>21.286377</ele>
        <time>2010-06-13T07:51:41Z</time>
      </trkpt>
      <trkpt lat="50.40504" lon="2.00559">
        <ele>22.7282715</ele>
        <time>2010-06-13T07:51:46Z</time>
      </trkpt>
      <trkpt lat="50.40504" lon="2.00565">
        <ele>23.2089844</ele>
        <time>2010-06-13T07:51:47Z</time>
      </trkpt>
      <trkpt lat="50.40507" lon="2.00603">
        <ele>28.0155029</ele>
        <time>2010-06-13T07:51:52Z</time>
      </trkpt>
      <trkpt lat="50.40512" lon="2.00639">
        <ele>33.3028564</ele>
        <time>2010-06-13T07:51:58Z</time>
      </trkpt>
      <trkpt lat="50.4052" lon="2.00648">
        <ele>43.3966064</ele>
        <time>2010-06-13T07:52:01Z</time>
      </trkpt>
      <trkpt lat="50.4054" lon="2.00636">
        <ele>54.932373</ele>
        <time>2010-06-13T07:52:07Z</time>
      </trkpt>
      <trkpt lat="50.40548" lon="2.0062">
        <ele>59.2584229</ele>
        <time>2010-06-13T07:52:11Z</time>
      </trkpt>
      <trkpt lat="50.40562" lon="2.00605">
        <ele>65.0263672</ele>
        <time>2010-06-13T07:52:16Z</time>
      </trkpt>
      <trkpt lat="50.40579" lon="2.00587">
        <ele>68.871582</ele>
        <time>2010-06-13T07:52:21Z</time>
      </trkpt>
      <trkpt lat="50.40588" lon="2.00578">
        <ele>71.7554932</ele>
        <time>2010-06-13T07:52:23Z</time>
      </trkpt>
      <trkpt lat="50.40599" lon="2.00562">
        <ele>74.1588135</ele>
        <time>2010-06-13T07:52:26Z</time>
      </trkpt>
      <trkpt lat="50.40627" lon="2.0053">
        <ele>83.2913818</ele>
        <time>2010-06-13T07:52:32Z</time>
      </trkpt>
      <trkpt lat="50.40649" lon="2.00502">
        <ele>89.539917</ele>
        <time>2010-06-13T07:52:38Z</time>
      </trkpt>
      <trkpt lat="50.40653" lon="2.00498">
        <ele>89.539917</ele>
        <time>2010-06-13T07:52:39Z</time>
      </trkpt>
      <trkpt lat="50.40664" lon="2.00486">
        <ele>91.4625244</ele>
        <time>2010-06-13T07:52:42Z</time>
      </trkpt>
      <trkpt lat="50.40683" lon="2.00465">
        <ele>89.539917</ele>
        <time>2010-06-13T07:52:47Z</time>
      </trkpt>
      <trkpt lat="50.40708" lon="2.00423">
        <ele>90.9819336</ele>
        <time>2010-06-13T07:52:54Z</time>
      </trkpt>
      <trkpt lat="50.40731" lon="2.00382">
        <ele>90.9819336</ele>
        <time>2010-06-13T07:53:00Z</time>
      </trkpt>
      <trkpt lat="50.40749" lon="2.00352">
        <ele>91.4625244</ele>
        <time>2010-06-13T07:53:05Z</time>
      </trkpt>
      <trkpt lat="50.40763" lon="2.00331">
        <ele>94.3465576</ele>
        <time>2010-06-13T07:53:09Z</time>
      </trkpt>
      <trkpt lat="50.40797" lon="2.00275">
        <ele>90.9819336</ele>
        <time>2010-06-13T07:53:19Z</time>
      </trkpt>
      <trkpt lat="50.40819" lon="2.00237">
        <ele>85.2139893</ele>
        <time>2010-06-13T07:53:26Z</time>
      </trkpt>
      <trkpt lat="50.40834" lon="2.0021">
        <ele>84.7333984</ele>
        <time>2010-06-13T07:53:31Z</time>
      </trkpt>
      <trkpt lat="50.40847" lon="2.00193">
        <ele>83.2913818</ele>
        <time>2010-06-13T07:53:35Z</time>
      </trkpt>
      <trkpt lat="50.40852" lon="2.00185">
        <ele>82.810791</ele>
        <time>2010-06-13T07:53:37Z</time>
      </trkpt>
      <trkpt lat="50.40875" lon="2.00152">
        <ele>84.7333984</ele>
        <time>2010-06-13T07:53:45Z</time>
      </trkpt>
      <trkpt lat="50.40893" lon="2.00131">
        <ele>86.175293</ele>
        <time>2010-06-13T07:53:51Z</time>
      </trkpt>
      <trkpt lat="50.40911" lon="2.0011">
        <ele>84.7333984</ele>
        <time>2010-06-13T07:53:58Z</time>
      </trkpt>
      <trkpt lat="50.40934" lon="2.00076">
        <ele>83.2913818</ele>
        <time>2010-06-13T07:54:07Z</time>
      </trkpt>
      <trkpt lat="50.40957" lon="2.00039">
        <ele>82.3300781</ele>
        <time>2010-06-13T07:54:16Z</time>
      </trkpt>
      <trkpt lat="50.4098" lon="2.00019">
        <ele>82.3300781</ele>
        <time>2010-06-13T07:54:23Z</time>
      </trkpt>
      <trkpt lat="50.41" lon="2.00007">
        <ele>81.8493652</ele>
        <time>2010-06-13T07:54:30Z</time>
      </trkpt>
      <trkpt lat="50.41011" lon="2.00004">
        <ele>80.8881836</ele>
        <time>2010-06-13T07:54:35Z</time>
      </trkpt>
      <trkpt lat="50.41016" lon="2.00001">
        <ele>80.8881836</ele>
        <time>2010-06-13T07:54:39Z</time>
      </trkpt>
      <trkpt lat="50.41028" lon="1.99995">
        <ele>79.9266357</ele>
        <time>2010-06-13T07:54:45Z</time>
      </trkpt>
      <trkpt lat="50.41051" lon="1.99984">
        <ele>77.5234375</ele>
        <time>2010-06-13T07:54:51Z</time>
      </trkpt>
      <trkpt lat="50.41084" lon="1.99968">
        <ele>73.6782227</ele>
        <time>2010-06-13T07:54:57Z</time>
      </trkpt>
      <trkpt lat="50.41123" lon="1.99941">
        <ele>68.871582</ele>
        <time>2010-06-13T07:55:03Z</time>
      </trkpt>
      <trkpt lat="50.41137" lon="1.9993">
        <ele>66.9489746</ele>
        <time>2010-06-13T07:55:05Z</time>
      </trkpt>
      <trkpt lat="50.41169" lon="1.99925">
        <ele>64.0650635</ele>
        <time>2010-06-13T07:55:09Z</time>
      </trkpt>
      <trkpt lat="50.41203" lon="1.99939">
        <ele>62.142334</ele>
        <time>2010-06-13T07:55:13Z</time>
      </trkpt>
      <trkpt lat="50.41245" lon="1.99981">
        <ele>60.7003174</ele>
        <time>2010-06-13T07:55:19Z</time>
      </trkpt>
      <trkpt lat="50.41281" lon="2.00023">
        <ele>59.7391357</ele>
        <time>2010-06-13T07:55:25Z</time>
      </trkpt>
      <trkpt lat="50.41326" lon="2.00053">
        <ele>59.2584229</ele>
        <time>2010-06-13T07:55:32Z</time>
      </trkpt>
      <trkpt lat="50.41369" lon="2.00082">
        <ele>59.2584229</ele>
        <time>2010-06-13T07:55:40Z</time>
      </trkpt>
      <trkpt lat="50.41402" lon="2.00103">
        <ele>58.77771</ele>
        <time>2010-06-13T07:55:47Z</time>
      </trkpt>
      <trkpt lat="50.41432" lon="2.00122">
        <ele>58.77771</ele>
        <time>2010-06-13T07:55:55Z</time>
      </trkpt>
      <trkpt lat="50.41447" lon="2.00127">
        <ele>58.2971191</ele>
        <time>2010-06-13T07:56:00Z</time>
      </trkpt>
      <trkpt lat="50.41451" lon="2.00109">
        <ele>57.3358154</ele>
        <time>2010-06-13T07:56:04Z</time>
      </trkpt>
      <trkpt lat="50.41449" lon="2.00102">
        <ele>56.8551025</ele>
        <time>2010-06-13T07:56:05Z</time>
      </trkpt>
      <trkpt lat="50.41435" lon="2.00038">
        <ele>56.3745117</ele>
        <time>2010-06-13T07:56:12Z</time>
      </trkpt>
      <trkpt lat="50.41415" lon="1.99955">
        <ele>52.5291748</ele>
        <time>2010-06-13T07:56:20Z</time>
      </trkpt>
      <trkpt lat="50.41402" lon="1.99892">
        <ele>48.68396</ele>
        <time>2010-06-13T07:56:26Z</time>
      </trkpt>
      <trkpt lat="50.41385" lon="1.99818">
        <ele>45.3192139</ele>
        <time>2010-06-13T07:56:33Z</time>
      </trkpt>
      <trkpt lat="50.41369" lon="1.99764">
        <ele>45.7999268</ele>
        <time>2010-06-13T07:56:39Z</time>
      </trkpt>
      <trkpt lat="50.41357" lon="1.99732">
        <ele>46.7612305</ele>
        <time>2010-06-13T07:56:43Z</time>
      </trkpt>
      <trkpt lat="50.4135" lon="1.99717">
        <ele>46.7612305</ele>
        <time>2010-06-13T07:56:45Z</time>
      </trkpt>
      <trkpt lat="50.41347" lon="1.9971">
        <ele>47.2418213</ele>
        <time>2010-06-13T07:56:46Z</time>
      </trkpt>
      <trkpt lat="50.41336" lon="1.99688">
        <ele>47.7225342</ele>
        <time>2010-06-13T07:56:49Z</time>
      </trkpt>
      <trkpt lat="50.41332" lon="1.99681">
        <ele>48.2033691</ele>
        <time>2010-06-13T07:56:50Z</time>
      </trkpt>
      <trkpt lat="50.41329" lon="1.99674">
        <ele>48.68396</ele>
        <time>2010-06-13T07:56:51Z</time>
      </trkpt>
      <trkpt lat="50.4132" lon="1.99651">
        <ele>48.68396</ele>
        <time>2010-06-13T07:56:54Z</time>
      </trkpt>
      <trkpt lat="50.413" lon="1.99581">
        <ele>47.2418213</ele>
        <time>2010-06-13T07:57:02Z</time>
      </trkpt>
      <trkpt lat="50.41286" lon="1.99519">
        <ele>45.3192139</ele>
        <time>2010-06-13T07:57:09Z</time>
      </trkpt>
      <trkpt lat="50.41284" lon="1.99511">
        <ele>45.3192139</ele>
        <time>2010-06-13T07:57:10Z</time>
      </trkpt>
      <trkpt lat="50.41268" lon="1.99443">
        <ele>42.4354248</ele>
        <time>2010-06-13T07:57:18Z</time>
      </trkpt>
      <trkpt lat="50.41263" lon="1.99423">
        <ele>41.9547119</ele>
        <time>2010-06-13T07:57:20Z</time>
      </trkpt>
      <trkpt lat="50.41241" lon="1.99372">
        <ele>39.0706787</ele>
        <time>2010-06-13T07:57:25Z</time>
      </trkpt>
      <trkpt lat="50.41237" lon="1.99362">
        <ele>38.109375</ele>
        <time>2010-06-13T07:57:26Z</time>
      </trkpt>
      <trkpt lat="50.41235" lon="1.99323">
        <ele>38.5900879</ele>
        <time>2010-06-13T07:57:30Z</time>
      </trkpt>
      <trkpt lat="50.41238" lon="1.99317">
        <ele>39.0706787</ele>
        <time>2010-06-13T07:57:31Z</time>
      </trkpt>
      <trkpt lat="50.41254" lon="1.99304">
        <ele>40.5128174</ele>
        <time>2010-06-13T07:57:36Z</time>
      </trkpt>
      <trkpt lat="50.41257" lon="1.99309">
        <ele>40.5128174</ele>
        <time>2010-06-13T07:57:37Z</time>
      </trkpt>
      <trkpt lat="50.41264" lon="1.99318">
        <ele>41.473999</ele>
        <time>2010-06-13T07:57:39Z</time>
      </trkpt>
      <trkpt lat="50.4128" lon="1.9932">
        <ele>42.4354248</ele>
        <time>2010-06-13T07:57:43Z</time>
      </trkpt>
      <trkpt lat="50.41284" lon="1.99315">
        <ele>42.4354248</ele>
        <time>2010-06-13T07:57:44Z</time>
      </trkpt>
      <trkpt lat="50.41311" lon="1.99274">
        <ele>42.9160156</ele>
        <time>2010-06-13T07:57:51Z</time>
      </trkpt>
      <trkpt lat="50.41333" lon="1.99242">
        <ele>41.9547119</ele>
        <time>2010-06-13T07:57:57Z</time>
      </trkpt>
      <trkpt lat="50.41345" lon="1.99224">
        <ele>41.473999</ele>
        <time>2010-06-13T07:58:00Z</time>
      </trkpt>
      <trkpt lat="50.41363" lon="1.99199">
        <ele>40.0321045</ele>
        <time>2010-06-13T07:58:04Z</time>
      </trkpt>
      <trkpt lat="50.4138" lon="1.99171">
        <ele>39.0706787</ele>
        <time>2010-06-13T07:58:08Z</time>
      </trkpt>
      <trkpt lat="50.41394" lon="1.99156">
        <ele>38.5900879</ele>
        <time>2010-06-13T07:58:10Z</time>
      </trkpt>
      <trkpt lat="50.41399" lon="1.9915">
        <ele>38.5900879</ele>
        <time>2010-06-13T07:58:11Z</time>
      </trkpt>
      <trkpt lat="50.41409" lon="1.99112">
        <ele>37.6286621</ele>
        <time>2010-06-13T07:58:15Z</time>
      </trkpt>
      <trkpt lat="50.41403" lon="1.99097">
        <ele>36.6674805</ele>
        <time>2010-06-13T07:58:17Z</time>
      </trkpt>
      <trkpt lat="50.41378" lon="1.99062">
        <ele>36.6674805</ele>
        <time>2010-06-13T07:58:22Z</time>
      </trkpt>
      <trkpt lat="50.41364" lon="1.99041">
        <ele>36.1867676</ele>
        <time>2010-06-13T07:58:25Z</time>
      </trkpt>
      <trkpt lat="50.41354" lon="1.99006">
        <ele>35.7060547</ele>
        <time>2010-06-13T07:58:29Z</time>
      </trkpt>
      <trkpt lat="50.41354" lon="1.98923">
        <ele>36.1867676</ele>
        <time>2010-06-13T07:58:38Z</time>
      </trkpt>
      <trkpt lat="50.41354" lon="1.98904">
        <ele>35.7060547</ele>
        <time>2010-06-13T07:58:40Z</time>
      </trkpt>
      <trkpt lat="50.41366" lon="1.9888">
        <ele>36.1867676</ele>
        <time>2010-06-13T07:58:44Z</time>
      </trkpt>
      <trkpt lat="50.41382" lon="1.98891">
        <ele>37.6286621</ele>
        <time>2010-06-13T07:58:47Z</time>
      </trkpt>
      <trkpt lat="50.41401" lon="1.98915">
        <ele>38.109375</ele>
        <time>2010-06-13T07:58:51Z</time>
      </trkpt>
      <trkpt lat="50.41426" lon="1.98932">
        <ele>37.6286621</ele>
        <time>2010-06-13T07:58:56Z</time>
      </trkpt>
      <trkpt lat="50.41458" lon="1.98946">
        <ele>38.109375</ele>
        <time>2010-06-13T07:59:02Z</time>
      </trkpt>
      <trkpt lat="50.41477" lon="1.98958">
        <ele>38.109375</ele>
        <time>2010-06-13T07:59:06Z</time>
      </trkpt>
      <trkpt lat="50.41494" lon="1.98956">
        <ele>38.109375</ele>
        <time>2010-06-13T07:59:10Z</time>
      </trkpt>
      <trkpt lat="50.4151" lon="1.98949">
        <ele>38.109375</ele>
        <time>2010-06-13T07:59:14Z</time>
      </trkpt>
      <trkpt lat="50.4152" lon="1.98964">
        <ele>37.6286621</ele>
        <time>2010-06-13T07:59:17Z</time>
      </trkpt>
      <trkpt lat="50.41547" lon="1.99023">
        <ele>38.5900879</ele>
        <time>2010-06-13T07:59:26Z</time>
      </trkpt>
      <trkpt lat="50.41564" lon="1.99057">
        <ele>39.0706787</ele>
        <time>2010-06-13T07:59:32Z</time>
      </trkpt>
      <trkpt lat="50.41568" lon="1.99081">
        <ele>38.109375</ele>
        <time>2010-06-13T07:59:36Z</time>
      </trkpt>
      <trkpt lat="50.41568" lon="1.99106">
        <ele>38.109375</ele>
        <time>2010-06-13T07:59:40Z</time>
      </trkpt>
      <trkpt lat="50.41581" lon="1.99157">
        <ele>37.1480713</ele>
        <time>2010-06-13T07:59:48Z</time>
      </trkpt>
      <trkpt lat="50.41583" lon="1.99169">
        <ele>36.6674805</ele>
        <time>2010-06-13T07:59:50Z</time>
      </trkpt>
      <trkpt lat="50.41589" lon="1.99194">
        <ele>34.2641602</ele>
        <time>2010-06-13T07:59:54Z</time>
      </trkpt>
      <trkpt lat="50.41595" lon="1.99227">
        <ele>25.1317139</ele>
        <time>2010-06-13T08:00:00Z</time>
      </trkpt>
      <trkpt lat="50.41601" lon="1.99249">
        <ele>24.651001</ele>
        <time>2010-06-13T08:00:05Z</time>
      </trkpt>
      <trkpt lat="50.41612" lon="1.99272">
        <ele>27.5349121</ele>
        <time>2010-06-13T08:00:11Z</time>
      </trkpt>
      <trkpt lat="50.4162" lon="1.99284">
        <ele>28.9769287</ele>
        <time>2010-06-13T08:00:14Z</time>
      </trkpt>
      <trkpt lat="50.41618" lon="1.99322">
        <ele>30.4188232</ele>
        <time>2010-06-13T08:00:20Z</time>
      </trkpt>
      <trkpt lat="50.41622" lon="1.99368">
        <ele>37.6286621</ele>
        <time>2010-06-13T08:00:27Z</time>
      </trkpt>
      <trkpt lat="50.41625" lon="1.99419">
        <ele>45.7999268</ele>
        <time>2010-06-13T08:00:34Z</time>
      </trkpt>
      <trkpt lat="50.41621" lon="1.99467">
        <ele>44.838623</ele>
        <time>2010-06-13T08:00:40Z</time>
      </trkpt>
      <trkpt lat="50.41621" lon="1.99527">
        <ele>48.2033691</ele>
        <time>2010-06-13T08:00:47Z</time>
      </trkpt>
      <trkpt lat="50.41625" lon="1.99551">
        <ele>51.5678711</ele>
        <time>2010-06-13T08:00:50Z</time>
      </trkpt>
      <trkpt lat="50.4163" lon="1.99573">
        <ele>54.932373</ele>
        <time>2010-06-13T08:00:53Z</time>
      </trkpt>
      <trkpt lat="50.41636" lon="1.99639">
        <ele>57.3358154</ele>
        <time>2010-06-13T08:01:01Z</time>
      </trkpt>
      <trkpt lat="50.41637" lon="1.99661">
        <ele>58.2971191</ele>
        <time>2010-06-13T08:01:04Z</time>
      </trkpt>
      <trkpt lat="50.41643" lon="1.99686">
        <ele>61.1810303</ele>
        <time>2010-06-13T08:01:09Z</time>
      </trkpt>
      <trkpt lat="50.41645" lon="1.99689">
        <ele>61.6617432</ele>
        <time>2010-06-13T08:01:10Z</time>
      </trkpt>
      <trkpt lat="50.41655" lon="1.99716">
        <ele>67.4296875</ele>
        <time>2010-06-13T08:01:16Z</time>
      </trkpt>
      <trkpt lat="50.41666" lon="1.99752">
        <ele>62.6229248</ele>
        <time>2010-06-13T08:01:23Z</time>
      </trkpt>
      <trkpt lat="50.41672" lon="1.99771">
        <ele>57.8165283</ele>
        <time>2010-06-13T08:01:27Z</time>
      </trkpt>
      <trkpt lat="50.41684" lon="1.998">
        <ele>53.4904785</ele>
        <time>2010-06-13T08:01:32Z</time>
      </trkpt>
      <trkpt lat="50.41695" lon="1.99824">
        <ele>50.6065674</ele>
        <time>2010-06-13T08:01:37Z</time>
      </trkpt>
      <trkpt lat="50.41697" lon="1.9983">
        <ele>51.0871582</ele>
        <time>2010-06-13T08:01:38Z</time>
      </trkpt>
      <trkpt lat="50.41703" lon="1.9984">
        <ele>51.0871582</ele>
        <time>2010-06-13T08:01:40Z</time>
      </trkpt>
      <trkpt lat="50.41713" lon="1.99873">
        <ele>43.8773193</ele>
        <time>2010-06-13T08:01:46Z</time>
      </trkpt>
      <trkpt lat="50.41713" lon="1.99879">
        <ele>42.9160156</ele>
        <time>2010-06-13T08:01:47Z</time>
      </trkpt>
      <trkpt lat="50.41705" lon="1.99909">
        <ele>36.6674805</ele>
        <time>2010-06-13T08:01:53Z</time>
      </trkpt>
      <trkpt lat="50.41707" lon="1.99943">
        <ele>33.7834473</ele>
        <time>2010-06-13T08:01:58Z</time>
      </trkpt>
      <trkpt lat="50.41711" lon="1.99996">
        <ele>29.4575195</ele>
        <time>2010-06-13T08:02:05Z</time>
      </trkpt>
      <trkpt lat="50.41711" lon="2.00002">
        <ele>28.9769287</ele>
        <time>2010-06-13T08:02:06Z</time>
      </trkpt>
      <trkpt lat="50.4171" lon="2.00018">
        <ele>28.4962158</ele>
        <time>2010-06-13T08:02:09Z</time>
      </trkpt>
      <trkpt lat="50.41713" lon="2.00028">
        <ele>32.8222656</ele>
        <time>2010-06-13T08:02:13Z</time>
      </trkpt>
      <trkpt lat="50.41719" lon="2.00026">
        <ele>36.1867676</ele>
        <time>2010-06-13T08:02:17Z</time>
      </trkpt>
      <trkpt lat="50.41721" lon="2.00036">
        <ele>35.2254639</ele>
        <time>2010-06-13T08:02:20Z</time>
      </trkpt>
      <trkpt lat="50.41724" lon="2.00052">
        <ele>34.744873</ele>
        <time>2010-06-13T08:02:23Z</time>
      </trkpt>
      <trkpt lat="50.41729" lon="2.00093">
        <ele>35.7060547</ele>
        <time>2010-06-13T08:02:29Z</time>
      </trkpt>
      <trkpt lat="50.41732" lon="2.001">
        <ele>36.1867676</ele>
        <time>2010-06-13T08:02:30Z</time>
      </trkpt>
      <trkpt lat="50.41745" lon="2.0012">
        <ele>37.6286621</ele>
        <time>2010-06-13T08:02:34Z</time>
      </trkpt>
      <trkpt lat="50.41752" lon="2.00134">
        <ele>38.109375</ele>
        <time>2010-06-13T08:02:37Z</time>
      </trkpt>
      <trkpt lat="50.41756" lon="2.00147">
        <ele>36.6674805</ele>
        <time>2010-06-13T08:02:39Z</time>
      </trkpt>
      <trkpt lat="50.41765" lon="2.00167">
        <ele>36.1867676</ele>
        <time>2010-06-13T08:02:42Z</time>
      </trkpt>
      <trkpt lat="50.41798" lon="2.00204">
        <ele>37.1480713</ele>
        <time>2010-06-13T08:02:49Z</time>
      </trkpt>
      <trkpt lat="50.41828" lon="2.00248">
        <ele>39.5512695</ele>
        <time>2010-06-13T08:02:56Z</time>
      </trkpt>
      <trkpt lat="50.41857" lon="2.00293">
        <ele>42.9160156</ele>
        <time>2010-06-13T08:03:03Z</time>
      </trkpt>
      <trkpt lat="50.41876" lon="2.00329">
        <ele>42.9160156</ele>
        <time>2010-06-13T08:03:09Z</time>
      </trkpt>
      <trkpt lat="50.41885" lon="2.00346">
        <ele>43.3966064</ele>
        <time>2010-06-13T08:03:12Z</time>
      </trkpt>
      <trkpt lat="50.419" lon="2.00377">
        <ele>43.3966064</ele>
        <time>2010-06-13T08:03:18Z</time>
      </trkpt>
      <trkpt lat="50.4192" lon="2.00419">
        <ele>43.3966064</ele>
        <time>2010-06-13T08:03:26Z</time>
      </trkpt>
      <trkpt lat="50.41932" lon="2.00444">
        <ele>43.3966064</ele>
        <time>2010-06-13T08:03:31Z</time>
      </trkpt>
      <trkpt lat="50.41938" lon="2.0046">
        <ele>43.8773193</ele>
        <time>2010-06-13T08:03:34Z</time>
      </trkpt>
      <trkpt lat="50.41948" lon="2.0051">
        <ele>42.9160156</ele>
        <time>2010-06-13T08:03:42Z</time>
      </trkpt>
      <trkpt lat="50.4195" lon="2.00522">
        <ele>42.9160156</ele>
        <time>2010-06-13T08:03:44Z</time>
      </trkpt>
      <trkpt lat="50.41958" lon="2.00553">
        <ele>43.8773193</ele>
        <time>2010-06-13T08:03:50Z</time>
      </trkpt>
      <trkpt lat="50.41969" lon="2.00591">
        <ele>45.7999268</ele>
        <time>2010-06-13T08:03:56Z</time>
      </trkpt>
      <trkpt lat="50.41986" lon="2.00652">
        <ele>47.7225342</ele>
        <time>2010-06-13T08:04:04Z</time>
      </trkpt>
      <trkpt lat="50.41998" lon="2.00702">
        <ele>45.7999268</ele>
        <time>2010-06-13T08:04:11Z</time>
      </trkpt>
      <trkpt lat="50.42004" lon="2.00722">
        <ele>43.8773193</ele>
        <time>2010-06-13T08:04:14Z</time>
      </trkpt>
      <trkpt lat="50.42022" lon="2.00756">
        <ele>45.3192139</ele>
        <time>2010-06-13T08:04:20Z</time>
      </trkpt>
      <trkpt lat="50.4203" lon="2.00766">
        <ele>45.3192139</ele>
        <time>2010-06-13T08:04:22Z</time>
      </trkpt>
      <trkpt lat="50.42053" lon="2.00811">
        <ele>45.3192139</ele>
        <time>2010-06-13T08:04:29Z</time>
      </trkpt>
      <trkpt lat="50.4206" lon="2.00834">
        <ele>44.838623</ele>
        <time>2010-06-13T08:04:32Z</time>
      </trkpt>
      <trkpt lat="50.42069" lon="2.00902">
        <ele>44.838623</ele>
        <time>2010-06-13T08:04:40Z</time>
      </trkpt>
      <trkpt lat="50.42072" lon="2.00919">
        <ele>45.7999268</ele>
        <time>2010-06-13T08:04:42Z</time>
      </trkpt>
      <trkpt lat="50.42083" lon="2.00945">
        <ele>46.7612305</ele>
        <time>2010-06-13T08:04:46Z</time>
      </trkpt>
      <trkpt lat="50.42103" lon="2.00965">
        <ele>46.7612305</ele>
        <time>2010-06-13T08:04:51Z</time>
      </trkpt>
      <trkpt lat="50.42106" lon="2.00969">
        <ele>46.7612305</ele>
        <time>2010-06-13T08:04:52Z</time>
      </trkpt>
      <trkpt lat="50.42131" lon="2.00995">
        <ele>47.2418213</ele>
        <time>2010-06-13T08:04:58Z</time>
      </trkpt>
      <trkpt lat="50.42138" lon="2.01003">
        <ele>47.2418213</ele>
        <time>2010-06-13T08:05:00Z</time>
      </trkpt>
      <trkpt lat="50.42155" lon="2.01019">
        <ele>47.2418213</ele>
        <time>2010-06-13T08:05:05Z</time>
      </trkpt>
      <trkpt lat="50.42159" lon="2.0102">
        <ele>46.7612305</ele>
        <time>2010-06-13T08:05:06Z</time>
      </trkpt>
      <trkpt lat="50.4218" lon="2.01029">
        <ele>44.3580322</ele>
        <time>2010-06-13T08:05:13Z</time>
      </trkpt>
      <trkpt lat="50.42196" lon="2.0103">
        <ele>43.8773193</ele>
        <time>2010-06-13T08:05:18Z</time>
      </trkpt>
      <trkpt lat="50.42207" lon="2.01012">
        <ele>43.3966064</ele>
        <time>2010-06-13T08:05:22Z</time>
      </trkpt>
      <trkpt lat="50.42218" lon="2.00985">
        <ele>44.3580322</ele>
        <time>2010-06-13T08:05:28Z</time>
      </trkpt>
      <trkpt lat="50.42225" lon="2.0097">
        <ele>45.3192139</ele>
        <time>2010-06-13T08:05:33Z</time>
      </trkpt>
      <trkpt lat="50.42235" lon="2.00955">
        <ele>47.7225342</ele>
        <time>2010-06-13T08:05:40Z</time>
      </trkpt>
      <trkpt lat="50.42241" lon="2.0095">
        <ele>47.7225342</ele>
        <time>2010-06-13T08:05:46Z</time>
      </trkpt>
      <trkpt lat="50.4225" lon="2.00937">
        <ele>48.68396</ele>
        <time>2010-06-13T08:05:52Z</time>
      </trkpt>
      <trkpt lat="50.42253" lon="2.00933">
        <ele>49.6452637</ele>
        <time>2010-06-13T08:05:54Z</time>
      </trkpt>
      <trkpt lat="50.42259" lon="2.00922">
        <ele>53.4904785</ele>
        <time>2010-06-13T08:06:00Z</time>
      </trkpt>
      <trkpt lat="50.42267" lon="2.00911">
        <ele>59.2584229</ele>
        <time>2010-06-13T08:06:08Z</time>
      </trkpt>
      <trkpt lat="50.42272" lon="2.00904">
        <ele>60.7003174</ele>
        <time>2010-06-13T08:06:13Z</time>
      </trkpt>
      <trkpt lat="50.42277" lon="2.00898">
        <ele>63.5843506</ele>
        <time>2010-06-13T08:06:18Z</time>
      </trkpt>
      <trkpt lat="50.42282" lon="2.00891">
        <ele>65.0263672</ele>
        <time>2010-06-13T08:06:24Z</time>
      </trkpt>
      <trkpt lat="50.42287" lon="2.00887">
        <ele>64.5456543</ele>
        <time>2010-06-13T08:06:29Z</time>
      </trkpt>
      <trkpt lat="50.42291" lon="2.00883">
        <ele>65.5070801</ele>
        <time>2010-06-13T08:06:33Z</time>
      </trkpt>
      <trkpt lat="50.423" lon="2.00869">
        <ele>64.5456543</ele>
        <time>2010-06-13T08:06:41Z</time>
      </trkpt>
      <trkpt lat="50.42307" lon="2.00863">
        <ele>65.9876709</ele>
        <time>2010-06-13T08:06:48Z</time>
      </trkpt>
      <trkpt lat="50.42314" lon="2.00858">
        <ele>63.5843506</ele>
        <time>2010-06-13T08:06:54Z</time>
      </trkpt>
      <trkpt lat="50.42326" lon="2.00855">
        <ele>62.142334</ele>
        <time>2010-06-13T08:07:01Z</time>
      </trkpt>
      <trkpt lat="50.42331" lon="2.00852">
        <ele>64.0650635</ele>
        <time>2010-06-13T08:07:06Z</time>
      </trkpt>
      <trkpt lat="50.42337" lon="2.00848">
        <ele>62.6229248</ele>
        <time>2010-06-13T08:07:11Z</time>
      </trkpt>
      <trkpt lat="50.42343" lon="2.00854">
        <ele>63.1036377</ele>
        <time>2010-06-13T08:07:17Z</time>
      </trkpt>
      <trkpt lat="50.42345" lon="2.00885">
        <ele>60.2197266</ele>
        <time>2010-06-13T08:07:23Z</time>
      </trkpt>
      <trkpt lat="50.42349" lon="2.0093">
        <ele>53.9711914</ele>
        <time>2010-06-13T08:07:28Z</time>
      </trkpt>
      <trkpt lat="50.42357" lon="2.00993">
        <ele>48.2033691</ele>
        <time>2010-06-13T08:07:33Z</time>
      </trkpt>
      <trkpt lat="50.42365" lon="2.01071">
        <ele>40.5128174</ele>
        <time>2010-06-13T08:07:38Z</time>
      </trkpt>
      <trkpt lat="50.42365" lon="2.0114">
        <ele>35.7060547</ele>
        <time>2010-06-13T08:07:42Z</time>
      </trkpt>
      <trkpt lat="50.42363" lon="2.01157">
        <ele>34.744873</ele>
        <time>2010-06-13T08:07:43Z</time>
      </trkpt>
      <trkpt lat="50.42344" lon="2.01239">
        <ele>30.8995361</ele>
        <time>2010-06-13T08:07:48Z</time>
      </trkpt>
      <trkpt lat="50.42331" lon="2.01274">
        <ele>31.380127</ele>
        <time>2010-06-13T08:07:51Z</time>
      </trkpt>
      <trkpt lat="50.42322" lon="2.01291">
        <ele>31.380127</ele>
        <time>2010-06-13T08:07:53Z</time>
      </trkpt>
      <trkpt lat="50.42293" lon="2.01325">
        <ele>29.9381104</ele>
        <time>2010-06-13T08:07:59Z</time>
      </trkpt>
      <trkpt lat="50.42285" lon="2.01334">
        <ele>28.9769287</ele>
        <time>2010-06-13T08:08:01Z</time>
      </trkpt>
      <trkpt lat="50.4228" lon="2.01348">
        <ele>30.8995361</ele>
        <time>2010-06-13T08:08:05Z</time>
      </trkpt>
      <trkpt lat="50.42285" lon="2.01361">
        <ele>33.3028564</ele>
        <time>2010-06-13T08:08:09Z</time>
      </trkpt>
      <trkpt lat="50.42286" lon="2.01362">
        <ele>33.7834473</ele>
        <time>2010-06-13T08:08:10Z</time>
      </trkpt>
      <trkpt lat="50.4229" lon="2.01369">
        <ele>35.2254639</ele>
        <time>2010-06-13T08:09:03Z</time>
      </trkpt>
      <trkpt lat="50.42291" lon="2.01369">
        <ele>35.2254639</ele>
        <time>2010-06-13T08:09:04Z</time>
      </trkpt>
      <trkpt lat="50.42291" lon="2.01369">
        <ele>35.2254639</ele>
        <time>2010-06-13T08:09:05Z</time>
      </trkpt>
      <trkpt lat="50.42298" lon="2.01371">
        <ele>36.6674805</ele>
        <time>2010-06-13T08:09:08Z</time>
      </trkpt>
      <trkpt lat="50.42315" lon="2.01387">
        <ele>38.5900879</ele>
        <time>2010-06-13T08:09:14Z</time>
      </trkpt>
      <trkpt lat="50.42336" lon="2.01415">
        <ele>40.9934082</ele>
        <time>2010-06-13T08:09:21Z</time>
      </trkpt>
      <trkpt lat="50.42354" lon="2.01443">
        <ele>42.9160156</ele>
        <time>2010-06-13T08:09:28Z</time>
      </trkpt>
      <trkpt lat="50.42374" lon="2.0148">
        <ele>44.838623</ele>
        <time>2010-06-13T08:09:35Z</time>
      </trkpt>
      <trkpt lat="50.42387" lon="2.01516">
        <ele>44.838623</ele>
        <time>2010-06-13T08:09:41Z</time>
      </trkpt>
      <trkpt lat="50.42399" lon="2.01556">
        <ele>44.3580322</ele>
        <time>2010-06-13T08:09:48Z</time>
      </trkpt>
      <trkpt lat="50.42417" lon="2.01609">
        <ele>43.8773193</ele>
        <time>2010-06-13T08:09:55Z</time>
      </trkpt>
      <trkpt lat="50.42435" lon="2.01658">
        <ele>43.8773193</ele>
        <time>2010-06-13T08:10:01Z</time>
      </trkpt>
      <trkpt lat="50.42446" lon="2.01689">
        <ele>44.3580322</ele>
        <time>2010-06-13T08:10:05Z</time>
      </trkpt>
      <trkpt lat="50.4247" lon="2.01764">
        <ele>45.7999268</ele>
        <time>2010-06-13T08:10:14Z</time>
      </trkpt>
      <trkpt lat="50.42492" lon="2.01835">
        <ele>42.4354248</ele>
        <time>2010-06-13T08:10:23Z</time>
      </trkpt>
      <trkpt lat="50.42505" lon="2.0188">
        <ele>41.9547119</ele>
        <time>2010-06-13T08:10:30Z</time>
      </trkpt>
      <trkpt lat="50.42506" lon="2.01886">
        <ele>41.9547119</ele>
        <time>2010-06-13T08:10:31Z</time>
      </trkpt>
      <trkpt lat="50.42518" lon="2.01895">
        <ele>41.9547119</ele>
        <time>2010-06-13T08:10:35Z</time>
      </trkpt>
      <trkpt lat="50.42526" lon="2.01896">
        <ele>41.473999</ele>
        <time>2010-06-13T08:10:37Z</time>
      </trkpt>
      <trkpt lat="50.4255" lon="2.01898">
        <ele>40.9934082</ele>
        <time>2010-06-13T08:10:43Z</time>
      </trkpt>
      <trkpt lat="50.42563" lon="2.01896">
        <ele>43.8773193</ele>
        <time>2010-06-13T08:10:46Z</time>
      </trkpt>
      <trkpt lat="50.42595" lon="2.01895">
        <ele>44.838623</ele>
        <time>2010-06-13T08:10:51Z</time>
      </trkpt>
      <trkpt lat="50.42615" lon="2.01903">
        <ele>49.1645508</ele>
        <time>2010-06-13T08:10:56Z</time>
      </trkpt>
      <trkpt lat="50.42624" lon="2.01908">
        <ele>48.2033691</ele>
        <time>2010-06-13T08:10:59Z</time>
      </trkpt>
      <trkpt lat="50.42642" lon="2.01914">
        <ele>52.5291748</ele>
        <time>2010-06-13T08:11:05Z</time>
      </trkpt>
      <trkpt lat="50.42656" lon="2.01914">
        <ele>53.9711914</ele>
        <time>2010-06-13T08:11:10Z</time>
      </trkpt>
      <trkpt lat="50.4267" lon="2.01915">
        <ele>58.2971191</ele>
        <time>2010-06-13T08:11:14Z</time>
      </trkpt>
      <trkpt lat="50.42691" lon="2.01926">
        <ele>62.142334</ele>
        <time>2010-06-13T08:11:20Z</time>
      </trkpt>
      <trkpt lat="50.4272" lon="2.01945">
        <ele>63.5843506</ele>
        <time>2010-06-13T08:11:28Z</time>
      </trkpt>
      <trkpt lat="50.42736" lon="2.01958">
        <ele>62.6229248</ele>
        <time>2010-06-13T08:11:34Z</time>
      </trkpt>
      <trkpt lat="50.42741" lon="2.01957">
        <ele>44.3580322</ele>
        <time>2010-06-13T08:12:03Z</time>
      </trkpt>
      <trkpt lat="50.42741" lon="2.01956">
        <ele>43.8773193</ele>
        <time>2010-06-13T08:12:04Z</time>
      </trkpt>
      <trkpt lat="50.42741" lon="2.01956">
        <ele>43.3966064</ele>
        <time>2010-06-13T08:12:05Z</time>
      </trkpt>
      <trkpt lat="50.42746" lon="2.01957">
        <ele>42.9160156</ele>
        <time>2010-06-13T08:12:09Z</time>
      </trkpt>
      <trkpt lat="50.42763" lon="2.01956">
        <ele>42.4354248</ele>
        <time>2010-06-13T08:12:15Z</time>
      </trkpt>
      <trkpt lat="50.42769" lon="2.01956">
        <ele>43.3966064</ele>
        <time>2010-06-13T08:12:17Z</time>
      </trkpt>
      <trkpt lat="50.42778" lon="2.01976">
        <ele>42.9160156</ele>
        <time>2010-06-13T08:12:22Z</time>
      </trkpt>
      <trkpt lat="50.42778" lon="2.01982">
        <ele>42.4354248</ele>
        <time>2010-06-13T08:12:23Z</time>
      </trkpt>
      <trkpt lat="50.42774" lon="2.02036">
        <ele>39.5512695</ele>
        <time>2010-06-13T08:12:30Z</time>
      </trkpt>
      <trkpt lat="50.42776" lon="2.02053">
        <ele>39.0706787</ele>
        <time>2010-06-13T08:12:32Z</time>
      </trkpt>
      <trkpt lat="50.42777" lon="2.02088">
        <ele>35.7060547</ele>
        <time>2010-06-13T08:12:36Z</time>
      </trkpt>
      <trkpt lat="50.42784" lon="2.02143">
        <ele>41.473999</ele>
        <time>2010-06-13T08:12:43Z</time>
      </trkpt>
      <trkpt lat="50.42793" lon="2.02194">
        <ele>50.1259766</ele>
        <time>2010-06-13T08:12:50Z</time>
      </trkpt>
      <trkpt lat="50.42791" lon="2.02233">
        <ele>49.6452637</ele>
        <time>2010-06-13T08:12:55Z</time>
      </trkpt>
      <trkpt lat="50.42783" lon="2.02263">
        <ele>49.6452637</ele>
        <time>2010-06-13T08:12:59Z</time>
      </trkpt>
      <trkpt lat="50.42785" lon="2.02291">
        <ele>51.0871582</ele>
        <time>2010-06-13T08:13:03Z</time>
      </trkpt>
      <trkpt lat="50.42789" lon="2.02297">
        <ele>51.0871582</ele>
        <time>2010-06-13T08:13:04Z</time>
      </trkpt>
      <trkpt lat="50.42821" lon="2.02344">
        <ele>50.6065674</ele>
        <time>2010-06-13T08:13:12Z</time>
      </trkpt>
      <trkpt lat="50.42844" lon="2.02383">
        <ele>50.6065674</ele>
        <time>2010-06-13T08:13:18Z</time>
      </trkpt>
      <trkpt lat="50.42859" lon="2.0241">
        <ele>49.6452637</ele>
        <time>2010-06-13T08:13:22Z</time>
      </trkpt>
      <trkpt lat="50.42875" lon="2.02418">
        <ele>49.6452637</ele>
        <time>2010-06-13T08:13:26Z</time>
      </trkpt>
      <trkpt lat="50.42885" lon="2.02406">
        <ele>50.1259766</ele>
        <time>2010-06-13T08:13:29Z</time>
      </trkpt>
      <trkpt lat="50.42906" lon="2.0237">
        <ele>50.6065674</ele>
        <time>2010-06-13T08:13:37Z</time>
      </trkpt>
      <trkpt lat="50.42916" lon="2.02353">
        <ele>51.5678711</ele>
        <time>2010-06-13T08:13:41Z</time>
      </trkpt>
      <trkpt lat="50.42926" lon="2.02337">
        <ele>52.5291748</ele>
        <time>2010-06-13T08:13:45Z</time>
      </trkpt>
      <trkpt lat="50.42934" lon="2.02324">
        <ele>53.9711914</ele>
        <time>2010-06-13T08:13:49Z</time>
      </trkpt>
      <trkpt lat="50.42944" lon="2.02306">
        <ele>57.8165283</ele>
        <time>2010-06-13T08:13:55Z</time>
      </trkpt>
      <trkpt lat="50.42956" lon="2.02287">
        <ele>61.1810303</ele>
        <time>2010-06-13T08:14:02Z</time>
      </trkpt>
      <trkpt lat="50.4297" lon="2.02268">
        <ele>65.9876709</ele>
        <time>2010-06-13T08:14:10Z</time>
      </trkpt>
      <trkpt lat="50.42985" lon="2.02245">
        <ele>71.7554932</ele>
        <time>2010-06-13T08:14:19Z</time>
      </trkpt>
      <trkpt lat="50.43004" lon="2.02219">
        <ele>68.871582</ele>
        <time>2010-06-13T08:14:29Z</time>
      </trkpt>
      <trkpt lat="50.43022" lon="2.02192">
        <ele>66.9489746</ele>
        <time>2010-06-13T08:14:39Z</time>
      </trkpt>
      <trkpt lat="50.43037" lon="2.02174">
        <ele>68.3908691</ele>
        <time>2010-06-13T08:14:48Z</time>
      </trkpt>
      <trkpt lat="50.43049" lon="2.02157">
        <ele>71.2749023</ele>
        <time>2010-06-13T08:14:56Z</time>
      </trkpt>
      <trkpt lat="50.43057" lon="2.02143">
        <ele>70.7941895</ele>
        <time>2010-06-13T08:15:02Z</time>
      </trkpt>
      <trkpt lat="50.43067" lon="2.02127">
        <ele>72.2362061</ele>
        <time>2010-06-13T08:15:09Z</time>
      </trkpt>
      <trkpt lat="50.4308" lon="2.0211">
        <ele>77.5234375</ele>
        <time>2010-06-13T08:15:17Z</time>
      </trkpt>
      <trkpt lat="50.43096" lon="2.02094">
        <ele>78.0040283</ele>
        <time>2010-06-13T08:15:25Z</time>
      </trkpt>
      <trkpt lat="50.43116" lon="2.0208">
        <ele>78.0040283</ele>
        <time>2010-06-13T08:15:35Z</time>
      </trkpt>
      <trkpt lat="50.43135" lon="2.02064">
        <ele>78.4847412</ele>
        <time>2010-06-13T08:15:45Z</time>
      </trkpt>
      <trkpt lat="50.43153" lon="2.02046">
        <ele>77.5234375</ele>
        <time>2010-06-13T08:15:55Z</time>
      </trkpt>
      <trkpt lat="50.43169" lon="2.02027">
        <ele>78.0040283</ele>
        <time>2010-06-13T08:16:04Z</time>
      </trkpt>
      <trkpt lat="50.43187" lon="2.02011">
        <ele>77.5234375</ele>
        <time>2010-06-13T08:16:12Z</time>
      </trkpt>
      <trkpt lat="50.432" lon="2.02001">
        <ele>78.4847412</ele>
        <time>2010-06-13T08:16:18Z</time>
      </trkpt>
      <trkpt lat="50.43214" lon="2.01988">
        <ele>78.4847412</ele>
        <time>2010-06-13T08:16:24Z</time>
      </trkpt>
      <trkpt lat="50.43225" lon="2.01979">
        <ele>78.4847412</ele>
        <time>2010-06-13T08:16:28Z</time>
      </trkpt>
      <trkpt lat="50.43247" lon="2.0196">
        <ele>78.4847412</ele>
        <time>2010-06-13T08:16:35Z</time>
      </trkpt>
      <trkpt lat="50.43275" lon="2.01938">
        <ele>78.4847412</ele>
        <time>2010-06-13T08:16:43Z</time>
      </trkpt>
      <trkpt lat="50.433" lon="2.0192">
        <ele>77.5234375</ele>
        <time>2010-06-13T08:16:50Z</time>
      </trkpt>
      <trkpt lat="50.43325" lon="2.019">
        <ele>77.0428467</ele>
        <time>2010-06-13T08:16:58Z</time>
      </trkpt>
      <trkpt lat="50.43358" lon="2.01868">
        <ele>79.4460449</ele>
        <time>2010-06-13T08:17:09Z</time>
      </trkpt>
      <trkpt lat="50.4338" lon="2.01845">
        <ele>82.3300781</ele>
        <time>2010-06-13T08:17:17Z</time>
      </trkpt>
      <trkpt lat="50.43401" lon="2.01823">
        <ele>86.6560059</ele>
        <time>2010-06-13T08:17:27Z</time>
      </trkpt>
      <trkpt lat="50.43416" lon="2.01808">
        <ele>88.5787354</ele>
        <time>2010-06-13T08:17:34Z</time>
      </trkpt>
      <trkpt lat="50.43433" lon="2.0179">
        <ele>91.9432373</ele>
        <time>2010-06-13T08:17:43Z</time>
      </trkpt>
      <trkpt lat="50.43449" lon="2.01774">
        <ele>92.904541</ele>
        <time>2010-06-13T08:17:52Z</time>
      </trkpt>
      <trkpt lat="50.43466" lon="2.01762">
        <ele>93.3851318</ele>
        <time>2010-06-13T08:18:01Z</time>
      </trkpt>
      <trkpt lat="50.43481" lon="2.01754">
        <ele>98.1918945</ele>
        <time>2010-06-13T08:18:09Z</time>
      </trkpt>
      <trkpt lat="50.43494" lon="2.0175">
        <ele>104.4404297</ele>
        <time>2010-06-13T08:18:16Z</time>
      </trkpt>
      <trkpt lat="50.4351" lon="2.01747">
        <ele>107.8050537</ele>
        <time>2010-06-13T08:18:24Z</time>
      </trkpt>
      <trkpt lat="50.43528" lon="2.01745">
        <ele>106.3630371</ele>
        <time>2010-06-13T08:18:32Z</time>
      </trkpt>
      <trkpt lat="50.43549" lon="2.01743">
        <ele>103.9597168</ele>
        <time>2010-06-13T08:18:42Z</time>
      </trkpt>
      <trkpt lat="50.43569" lon="2.0174">
        <ele>105.8824463</ele>
        <time>2010-06-13T08:18:51Z</time>
      </trkpt>
      <trkpt lat="50.43588" lon="2.01732">
        <ele>104.9210205</ele>
        <time>2010-06-13T08:18:59Z</time>
      </trkpt>
      <trkpt lat="50.43613" lon="2.01715">
        <ele>104.9210205</ele>
        <time>2010-06-13T08:19:08Z</time>
      </trkpt>
      <trkpt lat="50.43642" lon="2.01693">
        <ele>105.4017334</ele>
        <time>2010-06-13T08:19:17Z</time>
      </trkpt>
      <trkpt lat="50.43676" lon="2.01664">
        <ele>104.9210205</ele>
        <time>2010-06-13T08:19:26Z</time>
      </trkpt>
      <trkpt lat="50.4371" lon="2.01628">
        <ele>104.9210205</ele>
        <time>2010-06-13T08:19:35Z</time>
      </trkpt>
      <trkpt lat="50.43752" lon="2.01577">
        <ele>105.4017334</ele>
        <time>2010-06-13T08:19:46Z</time>
      </trkpt>
      <trkpt lat="50.43788" lon="2.01531">
        <ele>105.4017334</ele>
        <time>2010-06-13T08:19:55Z</time>
      </trkpt>
      <trkpt lat="50.43825" lon="2.01481">
        <ele>105.4017334</ele>
        <time>2010-06-13T08:20:04Z</time>
      </trkpt>
      <trkpt lat="50.43858" lon="2.01436">
        <ele>104.9210205</ele>
        <time>2010-06-13T08:20:12Z</time>
      </trkpt>
      <trkpt lat="50.43898" lon="2.01379">
        <ele>105.4017334</ele>
        <time>2010-06-13T08:20:22Z</time>
      </trkpt>
      <trkpt lat="50.43933" lon="2.01336">
        <ele>105.8824463</ele>
        <time>2010-06-13T08:20:30Z</time>
      </trkpt>
      <trkpt lat="50.43979" lon="2.01291">
        <ele>105.8824463</ele>
        <time>2010-06-13T08:20:40Z</time>
      </trkpt>
      <trkpt lat="50.44029" lon="2.01259">
        <ele>106.3630371</ele>
        <time>2010-06-13T08:20:50Z</time>
      </trkpt>
      <trkpt lat="50.44073" lon="2.01236">
        <ele>106.3630371</ele>
        <time>2010-06-13T08:20:59Z</time>
      </trkpt>
      <trkpt lat="50.44127" lon="2.01215">
        <ele>107.8050537</ele>
        <time>2010-06-13T08:21:10Z</time>
      </trkpt>
      <trkpt lat="50.44167" lon="2.0119">
        <ele>108.2856445</ele>
        <time>2010-06-13T08:21:19Z</time>
      </trkpt>
      <trkpt lat="50.44207" lon="2.01159">
        <ele>109.7276611</ele>
        <time>2010-06-13T08:21:28Z</time>
      </trkpt>
      <trkpt lat="50.44244" lon="2.01131">
        <ele>111.6502686</ele>
        <time>2010-06-13T08:21:37Z</time>
      </trkpt>
      <trkpt lat="50.44259" lon="2.01119">
        <ele>112.1309814</ele>
        <time>2010-06-13T08:21:41Z</time>
      </trkpt>
      <trkpt lat="50.44271" lon="2.01123">
        <ele>112.6115723</ele>
        <time>2010-06-13T08:21:45Z</time>
      </trkpt>
      <trkpt lat="50.44271" lon="2.01132">
        <ele>113.0922852</ele>
        <time>2010-06-13T08:21:47Z</time>
      </trkpt>
      <trkpt lat="50.44268" lon="2.01168">
        <ele>115.4956055</ele>
        <time>2010-06-13T08:21:55Z</time>
      </trkpt>
      <trkpt lat="50.44267" lon="2.01173">
        <ele>115.0148926</ele>
        <time>2010-06-13T08:21:57Z</time>
      </trkpt>
      <trkpt lat="50.44265" lon="2.01173">
        <ele>114.5341797</ele>
        <time>2010-06-13T08:22:00Z</time>
      </trkpt>
      <trkpt lat="50.4427" lon="2.01172">
        <ele>114.0535889</ele>
        <time>2010-06-13T08:22:30Z</time>
      </trkpt>
      <trkpt lat="50.4427" lon="2.01174">
        <ele>113.572998</ele>
        <time>2010-06-13T08:22:31Z</time>
      </trkpt>
      <trkpt lat="50.44271" lon="2.01177">
        <ele>113.572998</ele>
        <time>2010-06-13T08:22:32Z</time>
      </trkpt>
      <trkpt lat="50.4427" lon="2.01183">
        <ele>113.0922852</ele>
        <time>2010-06-13T08:22:33Z</time>
      </trkpt>
      <trkpt lat="50.44269" lon="2.01198">
        <ele>112.6115723</ele>
        <time>2010-06-13T08:22:37Z</time>
      </trkpt>
      <trkpt lat="50.44261" lon="2.01209">
        <ele>110.6888428</ele>
        <time>2010-06-13T08:22:43Z</time>
      </trkpt>
      <trkpt lat="50.44254" lon="2.01239">
        <ele>109.7276611</ele>
        <time>2010-06-13T08:22:48Z</time>
      </trkpt>
      <trkpt lat="50.44241" lon="2.01274">
        <ele>106.3630371</ele>
        <time>2010-06-13T08:22:52Z</time>
      </trkpt>
      <trkpt lat="50.44234" lon="2.01292">
        <ele>105.4017334</ele>
        <time>2010-06-13T08:22:54Z</time>
      </trkpt>
      <trkpt lat="50.44222" lon="2.01318">
        <ele>102.0371094</ele>
        <time>2010-06-13T08:22:57Z</time>
      </trkpt>
      <trkpt lat="50.44208" lon="2.01357">
        <ele>102.998291</ele>
        <time>2010-06-13T08:23:01Z</time>
      </trkpt>
      <trkpt lat="50.44202" lon="2.01373">
        <ele>102.0371094</ele>
        <time>2010-06-13T08:23:03Z</time>
      </trkpt>
      <trkpt lat="50.44194" lon="2.01398">
        <ele>101.5563965</ele>
        <time>2010-06-13T08:23:06Z</time>
      </trkpt>
      <trkpt lat="50.4418" lon="2.01452">
        <ele>102.0371094</ele>
        <time>2010-06-13T08:23:12Z</time>
      </trkpt>
      <trkpt lat="50.44165" lon="2.01498">
        <ele>102.0371094</ele>
        <time>2010-06-13T08:23:17Z</time>
      </trkpt>
      <trkpt lat="50.44155" lon="2.01536">
        <ele>101.0756836</ele>
        <time>2010-06-13T08:23:23Z</time>
      </trkpt>
      <trkpt lat="50.44149" lon="2.01555">
        <ele>100.114502</ele>
        <time>2010-06-13T08:23:26Z</time>
      </trkpt>
      <trkpt lat="50.44135" lon="2.01588">
        <ele>96.7498779</ele>
        <time>2010-06-13T08:23:32Z</time>
      </trkpt>
      <trkpt lat="50.44132" lon="2.01593">
        <ele>95.7884521</ele>
        <time>2010-06-13T08:23:33Z</time>
      </trkpt>
      <trkpt lat="50.44126" lon="2.01602">
        <ele>95.3077393</ele>
        <time>2010-06-13T08:23:35Z</time>
      </trkpt>
      <trkpt lat="50.44101" lon="2.01636">
        <ele>97.2304688</ele>
        <time>2010-06-13T08:23:43Z</time>
      </trkpt>
      <trkpt lat="50.44092" lon="2.01649">
        <ele>99.6337891</ele>
        <time>2010-06-13T08:23:46Z</time>
      </trkpt>
      <trkpt lat="50.44082" lon="2.01664">
        <ele>97.2304688</ele>
        <time>2010-06-13T08:23:51Z</time>
      </trkpt>
      <trkpt lat="50.44077" lon="2.0167">
        <ele>93.3851318</ele>
        <time>2010-06-13T08:23:55Z</time>
      </trkpt>
      <trkpt lat="50.44062" lon="2.0169">
        <ele>93.3851318</ele>
        <time>2010-06-13T08:24:00Z</time>
      </trkpt>
      <trkpt lat="50.44036" lon="2.01726">
        <ele>93.8658447</ele>
        <time>2010-06-13T08:24:07Z</time>
      </trkpt>
      <trkpt lat="50.44023" lon="2.0174">
        <ele>94.3465576</ele>
        <time>2010-06-13T08:24:10Z</time>
      </trkpt>
      <trkpt lat="50.44015" lon="2.01761">
        <ele>93.8658447</ele>
        <time>2010-06-13T08:24:14Z</time>
      </trkpt>
      <trkpt lat="50.44003" lon="2.01784">
        <ele>93.3851318</ele>
        <time>2010-06-13T08:24:19Z</time>
      </trkpt>
      <trkpt lat="50.4398" lon="2.01816">
        <ele>87.6171875</ele>
        <time>2010-06-13T08:24:26Z</time>
      </trkpt>
      <trkpt lat="50.43968" lon="2.01842">
        <ele>85.2139893</ele>
        <time>2010-06-13T08:24:31Z</time>
      </trkpt>
      <trkpt lat="50.4396" lon="2.01862">
        <ele>87.1365967</ele>
        <time>2010-06-13T08:24:34Z</time>
      </trkpt>
      <trkpt lat="50.43949" lon="2.0189">
        <ele>90.5013428</ele>
        <time>2010-06-13T08:24:39Z</time>
      </trkpt>
      <trkpt lat="50.43941" lon="2.01908">
        <ele>90.5013428</ele>
        <time>2010-06-13T08:24:42Z</time>
      </trkpt>
      <trkpt lat="50.43937" lon="2.01918">
        <ele>90.5013428</ele>
        <time>2010-06-13T08:24:44Z</time>
      </trkpt>
      <trkpt lat="50.43929" lon="2.0194">
        <ele>94.3465576</ele>
        <time>2010-06-13T08:24:48Z</time>
      </trkpt>
      <trkpt lat="50.43924" lon="2.01961">
        <ele>93.3851318</ele>
        <time>2010-06-13T08:24:53Z</time>
      </trkpt>
      <trkpt lat="50.43923" lon="2.01989">
        <ele>93.3851318</ele>
        <time>2010-06-13T08:24:59Z</time>
      </trkpt>
      <trkpt lat="50.43923" lon="2.01994">
        <ele>92.904541</ele>
        <time>2010-06-13T08:25:00Z</time>
      </trkpt>
      <trkpt lat="50.43922" lon="2.0201">
        <ele>93.3851318</ele>
        <time>2010-06-13T08:25:04Z</time>
      </trkpt>
      <trkpt lat="50.43921" lon="2.02039">
        <ele>93.8658447</ele>
        <time>2010-06-13T08:25:09Z</time>
      </trkpt>
      <trkpt lat="50.43918" lon="2.02068">
        <ele>91.9432373</ele>
        <time>2010-06-13T08:25:13Z</time>
      </trkpt>
      <trkpt lat="50.43916" lon="2.0211">
        <ele>90.0206299</ele>
        <time>2010-06-13T08:25:18Z</time>
      </trkpt>
      <trkpt lat="50.43915" lon="2.02147">
        <ele>88.0980225</ele>
        <time>2010-06-13T08:25:22Z</time>
      </trkpt>
      <trkpt lat="50.43916" lon="2.02214">
        <ele>79.9266357</ele>
        <time>2010-06-13T08:25:29Z</time>
      </trkpt>
      <trkpt lat="50.43916" lon="2.02237">
        <ele>81.3687744</ele>
        <time>2010-06-13T08:25:31Z</time>
      </trkpt>
      <trkpt lat="50.43912" lon="2.02295">
        <ele>77.0428467</ele>
        <time>2010-06-13T08:25:36Z</time>
      </trkpt>
      <trkpt lat="50.43903" lon="2.02357">
        <ele>73.6782227</ele>
        <time>2010-06-13T08:25:41Z</time>
      </trkpt>
      <trkpt lat="50.43901" lon="2.02368">
        <ele>71.7554932</ele>
        <time>2010-06-13T08:25:42Z</time>
      </trkpt>
      <trkpt lat="50.43892" lon="2.02424">
        <ele>66.4682617</ele>
        <time>2010-06-13T08:25:47Z</time>
      </trkpt>
      <trkpt lat="50.43872" lon="2.02476">
        <ele>67.9102783</ele>
        <time>2010-06-13T08:25:51Z</time>
      </trkpt>
      <trkpt lat="50.43857" lon="2.02524">
        <ele>69.3522949</ele>
        <time>2010-06-13T08:25:55Z</time>
      </trkpt>
      <trkpt lat="50.43851" lon="2.0258">
        <ele>71.2749023</ele>
        <time>2010-06-13T08:26:00Z</time>
      </trkpt>
      <trkpt lat="50.43848" lon="2.02603">
        <ele>72.2362061</ele>
        <time>2010-06-13T08:26:03Z</time>
      </trkpt>
      <trkpt lat="50.43848" lon="2.02606">
        <ele>72.2362061</ele>
        <time>2010-06-13T08:26:04Z</time>
      </trkpt>
      <trkpt lat="50.43847" lon="2.02607">
        <ele>72.2362061</ele>
        <time>2010-06-13T08:26:06Z</time>
      </trkpt>
      <trkpt lat="50.4384" lon="2.02611">
        <ele>61.1810303</ele>
        <time>2010-06-13T08:26:29Z</time>
      </trkpt>
      <trkpt lat="50.43841" lon="2.02631">
        <ele>60.7003174</ele>
        <time>2010-06-13T08:26:34Z</time>
      </trkpt>
      <trkpt lat="50.43843" lon="2.02668">
        <ele>56.8551025</ele>
        <time>2010-06-13T08:26:40Z</time>
      </trkpt>
      <trkpt lat="50.43845" lon="2.02712">
        <ele>50.6065674</ele>
        <time>2010-06-13T08:26:46Z</time>
      </trkpt>
      <trkpt lat="50.43852" lon="2.02787">
        <ele>48.2033691</ele>
        <time>2010-06-13T08:26:56Z</time>
      </trkpt>
      <trkpt lat="50.43866" lon="2.02837">
        <ele>52.5291748</ele>
        <time>2010-06-13T08:27:03Z</time>
      </trkpt>
      <trkpt lat="50.4387" lon="2.02852">
        <ele>53.9711914</ele>
        <time>2010-06-13T08:27:05Z</time>
      </trkpt>
      <trkpt lat="50.43879" lon="2.02868">
        <ele>54.4517822</ele>
        <time>2010-06-13T08:27:08Z</time>
      </trkpt>
      <trkpt lat="50.43888" lon="2.02871">
        <ele>53.4904785</ele>
        <time>2010-06-13T08:27:10Z</time>
      </trkpt>
      <trkpt lat="50.43917" lon="2.02874">
        <ele>53.0097656</ele>
        <time>2010-06-13T08:27:16Z</time>
      </trkpt>
      <trkpt lat="50.43921" lon="2.02874">
        <ele>53.4904785</ele>
        <time>2010-06-13T08:27:17Z</time>
      </trkpt>
      <trkpt lat="50.43926" lon="2.02875">
        <ele>53.9711914</ele>
        <time>2010-06-13T08:27:18Z</time>
      </trkpt>
      <trkpt lat="50.43942" lon="2.02887">
        <ele>56.3745117</ele>
        <time>2010-06-13T08:27:22Z</time>
      </trkpt>
      <trkpt lat="50.43948" lon="2.02905">
        <ele>58.2971191</ele>
        <time>2010-06-13T08:27:25Z</time>
      </trkpt>
      <trkpt lat="50.4395" lon="2.02918">
        <ele>60.2197266</ele>
        <time>2010-06-13T08:27:27Z</time>
      </trkpt>
      <trkpt lat="50.43949" lon="2.02934">
        <ele>62.142334</ele>
        <time>2010-06-13T08:27:30Z</time>
      </trkpt>
      <trkpt lat="50.43946" lon="2.02946">
        <ele>64.5456543</ele>
        <time>2010-06-13T08:27:33Z</time>
      </trkpt>
      <trkpt lat="50.43946" lon="2.02952">
        <ele>67.4296875</ele>
        <time>2010-06-13T08:27:41Z</time>
      </trkpt>
      <trkpt lat="50.43947" lon="2.02952">
        <ele>66.9489746</ele>
        <time>2010-06-13T08:27:51Z</time>
      </trkpt>
      <trkpt lat="50.43946" lon="2.02959">
        <ele>67.9102783</ele>
        <time>2010-06-13T08:27:57Z</time>
      </trkpt>
      <trkpt lat="50.43946" lon="2.0296">
        <ele>67.4296875</ele>
        <time>2010-06-13T08:27:58Z</time>
      </trkpt>
      <trkpt lat="50.43947" lon="2.02977">
        <ele>69.8328857</ele>
        <time>2010-06-13T08:28:03Z</time>
      </trkpt>
      <trkpt lat="50.43946" lon="2.02999">
        <ele>72.7169189</ele>
        <time>2010-06-13T08:28:10Z</time>
      </trkpt>
      <trkpt lat="50.43946" lon="2.03015">
        <ele>78.0040283</ele>
        <time>2010-06-13T08:28:14Z</time>
      </trkpt>
      <trkpt lat="50.43946" lon="2.03035">
        <ele>81.8493652</ele>
        <time>2010-06-13T08:28:18Z</time>
      </trkpt>
      <trkpt lat="50.43943" lon="2.03061">
        <ele>94.3465576</ele>
        <time>2010-06-13T08:28:24Z</time>
      </trkpt>
      <trkpt lat="50.43941" lon="2.03078">
        <ele>102.5177002</ele>
        <time>2010-06-13T08:28:29Z</time>
      </trkpt>
      <trkpt lat="50.43941" lon="2.03095">
        <ele>106.3630371</ele>
        <time>2010-06-13T08:28:34Z</time>
      </trkpt>
      <trkpt lat="50.43941" lon="2.03102">
        <ele>111.1695557</ele>
        <time>2010-06-13T08:28:36Z</time>
      </trkpt>
      <trkpt lat="50.43937" lon="2.0311">
        <ele>116.4567871</ele>
        <time>2010-06-13T08:28:39Z</time>
      </trkpt>
      <trkpt lat="50.43935" lon="2.0313">
        <ele>125.1087646</ele>
        <time>2010-06-13T08:28:46Z</time>
      </trkpt>
      <trkpt lat="50.43933" lon="2.03141">
        <ele>124.1473389</ele>
        <time>2010-06-13T08:28:50Z</time>
      </trkpt>
      <trkpt lat="50.43927" lon="2.03164">
        <ele>123.666748</ele>
        <time>2010-06-13T08:28:57Z</time>
      </trkpt>
      <trkpt lat="50.43922" lon="2.0318">
        <ele>124.1473389</ele>
        <time>2010-06-13T08:29:04Z</time>
      </trkpt>
      <trkpt lat="50.43919" lon="2.03189">
        <ele>122.2247314</ele>
        <time>2010-06-13T08:29:08Z</time>
      </trkpt>
      <trkpt lat="50.43914" lon="2.03205">
        <ele>112.6115723</ele>
        <time>2010-06-13T08:29:15Z</time>
      </trkpt>
      <trkpt lat="50.43909" lon="2.03222">
        <ele>110.6888428</ele>
        <time>2010-06-13T08:29:22Z</time>
      </trkpt>
      <trkpt lat="50.43904" lon="2.03238">
        <ele>112.6115723</ele>
        <time>2010-06-13T08:29:28Z</time>
      </trkpt>
      <trkpt lat="50.439" lon="2.03247">
        <ele>115.4956055</ele>
        <time>2010-06-13T08:29:32Z</time>
      </trkpt>
      <trkpt lat="50.43894" lon="2.03263">
        <ele>114.5341797</ele>
        <time>2010-06-13T08:29:38Z</time>
      </trkpt>
      <trkpt lat="50.4389" lon="2.03275">
        <ele>118.8601074</ele>
        <time>2010-06-13T08:29:43Z</time>
      </trkpt>
      <trkpt lat="50.43886" lon="2.03284">
        <ele>124.6280518</ele>
        <time>2010-06-13T08:29:47Z</time>
      </trkpt>
      <trkpt lat="50.4388" lon="2.03297">
        <ele>122.2247314</ele>
        <time>2010-06-13T08:29:52Z</time>
      </trkpt>
      <trkpt lat="50.43876" lon="2.03305">
        <ele>113.572998</ele>
        <time>2010-06-13T08:29:56Z</time>
      </trkpt>
      <trkpt lat="50.43868" lon="2.03322">
        <ele>113.0922852</ele>
        <time>2010-06-13T08:30:02Z</time>
      </trkpt>
      <trkpt lat="50.43865" lon="2.03339">
        <ele>107.3243408</ele>
        <time>2010-06-13T08:30:09Z</time>
      </trkpt>
      <trkpt lat="50.43864" lon="2.03341">
        <ele>107.3243408</ele>
        <time>2010-06-13T08:30:10Z</time>
      </trkpt>
      <trkpt lat="50.43858" lon="2.03357">
        <ele>108.2856445</ele>
        <time>2010-06-13T08:30:19Z</time>
      </trkpt>
      <trkpt lat="50.43857" lon="2.03358">
        <ele>108.7662354</ele>
        <time>2010-06-13T08:30:20Z</time>
      </trkpt>
      <trkpt lat="50.43854" lon="2.03375">
        <ele>101.5563965</ele>
        <time>2010-06-13T08:30:29Z</time>
      </trkpt>
      <trkpt lat="50.43852" lon="2.0338">
        <ele>99.6337891</ele>
        <time>2010-06-13T08:30:33Z</time>
      </trkpt>
      <trkpt lat="50.43848" lon="2.0339">
        <ele>101.5563965</ele>
        <time>2010-06-13T08:30:39Z</time>
      </trkpt>
      <trkpt lat="50.43842" lon="2.03396">
        <ele>101.0756836</ele>
        <time>2010-06-13T08:30:46Z</time>
      </trkpt>
      <trkpt lat="50.43838" lon="2.03399">
        <ele>102.5177002</ele>
        <time>2010-06-13T08:30:50Z</time>
      </trkpt>
      <trkpt lat="50.43826" lon="2.03422">
        <ele>104.9210205</ele>
        <time>2010-06-13T08:31:32Z</time>
      </trkpt>
      <trkpt lat="50.43826" lon="2.03422">
        <ele>105.4017334</ele>
        <time>2010-06-13T08:31:33Z</time>
      </trkpt>
      <trkpt lat="50.43826" lon="2.03422">
        <ele>106.3630371</ele>
        <time>2010-06-13T08:31:36Z</time>
      </trkpt>
      <trkpt lat="50.43822" lon="2.03418">
        <ele>105.4017334</ele>
        <time>2010-06-13T08:31:39Z</time>
      </trkpt>
      <trkpt lat="50.43814" lon="2.03418">
        <ele>100.114502</ele>
        <time>2010-06-13T08:31:46Z</time>
      </trkpt>
      <trkpt lat="50.43809" lon="2.03419">
        <ele>99.1530762</ele>
        <time>2010-06-13T08:31:48Z</time>
      </trkpt>
      <trkpt lat="50.43804" lon="2.0342">
        <ele>98.6724854</ele>
        <time>2010-06-13T08:31:50Z</time>
      </trkpt>
      <trkpt lat="50.43795" lon="2.0342">
        <ele>96.2692871</ele>
        <time>2010-06-13T08:31:54Z</time>
      </trkpt>
      <trkpt lat="50.43774" lon="2.03417">
        <ele>94.8271484</ele>
        <time>2010-06-13T08:31:59Z</time>
      </trkpt>
      <trkpt lat="50.43764" lon="2.0342">
        <ele>96.2692871</ele>
        <time>2010-06-13T08:32:02Z</time>
      </trkpt>
      <trkpt lat="50.43762" lon="2.03421">
        <ele>96.7498779</ele>
        <time>2010-06-13T08:32:03Z</time>
      </trkpt>
      <trkpt lat="50.43757" lon="2.03421">
        <ele>96.2692871</ele>
        <time>2010-06-13T08:32:05Z</time>
      </trkpt>
      <trkpt lat="50.43739" lon="2.03428">
        <ele>99.1530762</ele>
        <time>2010-06-13T08:32:11Z</time>
      </trkpt>
      <trkpt lat="50.43722" lon="2.0343">
        <ele>93.8658447</ele>
        <time>2010-06-13T08:32:15Z</time>
      </trkpt>
      <trkpt lat="50.43711" lon="2.03435">
        <ele>90.9819336</ele>
        <time>2010-06-13T08:32:17Z</time>
      </trkpt>
      <trkpt lat="50.43688" lon="2.03449">
        <ele>89.539917</ele>
        <time>2010-06-13T08:32:23Z</time>
      </trkpt>
      <trkpt lat="50.43687" lon="2.03451">
        <ele>89.0593262</ele>
        <time>2010-06-13T08:32:24Z</time>
      </trkpt>
      <trkpt lat="50.43678" lon="2.03475">
        <ele>88.5787354</ele>
        <time>2010-06-13T08:32:30Z</time>
      </trkpt>
      <trkpt lat="50.43666" lon="2.03495">
        <ele>90.0206299</ele>
        <time>2010-06-13T08:32:35Z</time>
      </trkpt>
      <trkpt lat="50.43664" lon="2.03499">
        <ele>89.0593262</ele>
        <time>2010-06-13T08:32:36Z</time>
      </trkpt>
      <trkpt lat="50.43653" lon="2.0353">
        <ele>89.0593262</ele>
        <time>2010-06-13T08:32:42Z</time>
      </trkpt>
      <trkpt lat="50.43642" lon="2.03549">
        <ele>87.1365967</ele>
        <time>2010-06-13T08:32:46Z</time>
      </trkpt>
      <trkpt lat="50.43639" lon="2.03553">
        <ele>88.5787354</ele>
        <time>2010-06-13T08:32:47Z</time>
      </trkpt>
      <trkpt lat="50.43639" lon="2.03577">
        <ele>90.0206299</ele>
        <time>2010-06-13T08:32:54Z</time>
      </trkpt>
      <trkpt lat="50.43641" lon="2.03589">
        <ele>90.9819336</ele>
        <time>2010-06-13T08:32:58Z</time>
      </trkpt>
      <trkpt lat="50.43638" lon="2.03604">
        <ele>89.0593262</ele>
        <time>2010-06-13T08:33:02Z</time>
      </trkpt>
      <trkpt lat="50.43637" lon="2.03618">
        <ele>90.0206299</ele>
        <time>2010-06-13T08:33:06Z</time>
      </trkpt>
      <trkpt lat="50.43637" lon="2.03648">
        <ele>90.5013428</ele>
        <time>2010-06-13T08:33:11Z</time>
      </trkpt>
      <trkpt lat="50.4364" lon="2.03669">
        <ele>89.0593262</ele>
        <time>2010-06-13T08:33:16Z</time>
      </trkpt>
      <trkpt lat="50.43638" lon="2.0369">
        <ele>91.4625244</ele>
        <time>2010-06-13T08:33:20Z</time>
      </trkpt>
      <trkpt lat="50.43636" lon="2.03701">
        <ele>92.4239502</ele>
        <time>2010-06-13T08:33:22Z</time>
      </trkpt>
      <trkpt lat="50.43636" lon="2.03723">
        <ele>86.175293</ele>
        <time>2010-06-13T08:33:27Z</time>
      </trkpt>
      <trkpt lat="50.43641" lon="2.03751">
        <ele>88.5787354</ele>
        <time>2010-06-13T08:33:32Z</time>
      </trkpt>
      <trkpt lat="50.43646" lon="2.03767">
        <ele>90.9819336</ele>
        <time>2010-06-13T08:33:36Z</time>
      </trkpt>
      <trkpt lat="50.43652" lon="2.03774">
        <ele>85.6945801</ele>
        <time>2010-06-13T08:33:41Z</time>
      </trkpt>
      <trkpt lat="50.43655" lon="2.03775">
        <ele>84.7333984</ele>
        <time>2010-06-13T08:33:45Z</time>
      </trkpt>
      <trkpt lat="50.43656" lon="2.03778">
        <ele>87.6171875</ele>
        <time>2010-06-13T08:33:49Z</time>
      </trkpt>
      <trkpt lat="50.43656" lon="2.03778">
        <ele>82.3300781</ele>
        <time>2010-06-13T08:33:57Z</time>
      </trkpt>
      <trkpt lat="50.43657" lon="2.03779">
        <ele>77.0428467</ele>
        <time>2010-06-13T08:34:05Z</time>
      </trkpt>
      <trkpt lat="50.43657" lon="2.03779">
        <ele>76.5621338</ele>
        <time>2010-06-13T08:34:06Z</time>
      </trkpt>
      <trkpt lat="50.43665" lon="2.03795">
        <ele>77.0428467</ele>
        <time>2010-06-13T08:34:41Z</time>
      </trkpt>
      <trkpt lat="50.43665" lon="2.03796">
        <ele>77.5234375</ele>
        <time>2010-06-13T08:34:42Z</time>
      </trkpt>
      <trkpt lat="50.43669" lon="2.03807">
        <ele>78.9654541</ele>
        <time>2010-06-13T08:34:46Z</time>
      </trkpt>
      <trkpt lat="50.43674" lon="2.03826">
        <ele>78.0040283</ele>
        <time>2010-06-13T08:34:51Z</time>
      </trkpt>
      <trkpt lat="50.43682" lon="2.03842">
        <ele>78.4847412</ele>
        <time>2010-06-13T08:34:56Z</time>
      </trkpt>
      <trkpt lat="50.43686" lon="2.03857">
        <ele>82.3300781</ele>
        <time>2010-06-13T08:35:00Z</time>
      </trkpt>
      <trkpt lat="50.43694" lon="2.03878">
        <ele>88.5787354</ele>
        <time>2010-06-13T08:35:05Z</time>
      </trkpt>
      <trkpt lat="50.43708" lon="2.03904">
        <ele>88.0980225</ele>
        <time>2010-06-13T08:35:10Z</time>
      </trkpt>
      <trkpt lat="50.43715" lon="2.03916">
        <ele>90.0206299</ele>
        <time>2010-06-13T08:35:12Z</time>
      </trkpt>
      <trkpt lat="50.43727" lon="2.03937">
        <ele>84.7333984</ele>
        <time>2010-06-13T08:35:17Z</time>
      </trkpt>
      <trkpt lat="50.43736" lon="2.03949">
        <ele>84.2526855</ele>
        <time>2010-06-13T08:35:21Z</time>
      </trkpt>
      <trkpt lat="50.43738" lon="2.03952">
        <ele>83.7719727</ele>
        <time>2010-06-13T08:35:22Z</time>
      </trkpt>
      <trkpt lat="50.4375" lon="2.0397">
        <ele>83.2913818</ele>
        <time>2010-06-13T08:35:28Z</time>
      </trkpt>
      <trkpt lat="50.43763" lon="2.03987">
        <ele>87.6171875</ele>
        <time>2010-06-13T08:35:34Z</time>
      </trkpt>
      <trkpt lat="50.43771" lon="2.04">
        <ele>89.539917</ele>
        <time>2010-06-13T08:35:38Z</time>
      </trkpt>
      <trkpt lat="50.43782" lon="2.04016">
        <ele>92.904541</ele>
        <time>2010-06-13T08:35:45Z</time>
      </trkpt>
      <trkpt lat="50.43789" lon="2.0403">
        <ele>94.3465576</ele>
        <time>2010-06-13T08:35:50Z</time>
      </trkpt>
      <trkpt lat="50.438" lon="2.04042">
        <ele>96.2692871</ele>
        <time>2010-06-13T08:35:55Z</time>
      </trkpt>
      <trkpt lat="50.43802" lon="2.04043">
        <ele>95.7884521</ele>
        <time>2010-06-13T08:35:56Z</time>
      </trkpt>
      <trkpt lat="50.43807" lon="2.04037">
        <ele>96.2692871</ele>
        <time>2010-06-13T08:36:02Z</time>
      </trkpt>
      <trkpt lat="50.43808" lon="2.04032">
        <ele>89.539917</ele>
        <time>2010-06-13T08:36:09Z</time>
      </trkpt>
      <trkpt lat="50.43812" lon="2.04029">
        <ele>87.1365967</ele>
        <time>2010-06-13T08:36:14Z</time>
      </trkpt>
      <trkpt lat="50.43815" lon="2.04028">
        <ele>82.3300781</ele>
        <time>2010-06-13T08:36:24Z</time>
      </trkpt>
      <trkpt lat="50.43822" lon="2.04022">
        <ele>85.2139893</ele>
        <time>2010-06-13T08:36:30Z</time>
      </trkpt>
      <trkpt lat="50.43823" lon="2.0402">
        <ele>84.7333984</ele>
        <time>2010-06-13T08:36:32Z</time>
      </trkpt>
      <trkpt lat="50.43829" lon="2.04014">
        <ele>87.1365967</ele>
        <time>2010-06-13T08:36:39Z</time>
      </trkpt>
      <trkpt lat="50.43833" lon="2.04005">
        <ele>92.4239502</ele>
        <time>2010-06-13T08:36:45Z</time>
      </trkpt>
      <trkpt lat="50.4384" lon="2.03995">
        <ele>95.3077393</ele>
        <time>2010-06-13T08:36:51Z</time>
      </trkpt>
      <trkpt lat="50.43847" lon="2.03982">
        <ele>98.6724854</ele>
        <time>2010-06-13T08:36:59Z</time>
      </trkpt>
      <trkpt lat="50.43848" lon="2.03978">
        <ele>98.1918945</ele>
        <time>2010-06-13T08:37:01Z</time>
      </trkpt>
      <trkpt lat="50.43853" lon="2.03963">
        <ele>98.6724854</ele>
        <time>2010-06-13T08:37:10Z</time>
      </trkpt>
      <trkpt lat="50.43854" lon="2.03961">
        <ele>98.1918945</ele>
        <time>2010-06-13T08:37:11Z</time>
      </trkpt>
      <trkpt lat="50.43858" lon="2.03953">
        <ele>98.6724854</ele>
        <time>2010-06-13T08:37:17Z</time>
      </trkpt>
      <trkpt lat="50.43866" lon="2.03941">
        <ele>100.5950928</ele>
        <time>2010-06-13T08:37:25Z</time>
      </trkpt>
      <trkpt lat="50.43875" lon="2.03932">
        <ele>99.1530762</ele>
        <time>2010-06-13T08:37:33Z</time>
      </trkpt>
      <trkpt lat="50.43884" lon="2.03921">
        <ele>97.2304688</ele>
        <time>2010-06-13T08:37:39Z</time>
      </trkpt>
      <trkpt lat="50.43894" lon="2.03906">
        <ele>102.5177002</ele>
        <time>2010-06-13T08:37:46Z</time>
      </trkpt>
      <trkpt lat="50.43903" lon="2.03894">
        <ele>99.1530762</ele>
        <time>2010-06-13T08:37:51Z</time>
      </trkpt>
      <trkpt lat="50.43909" lon="2.03884">
        <ele>96.2692871</ele>
        <time>2010-06-13T08:37:55Z</time>
      </trkpt>
      <trkpt lat="50.43917" lon="2.03875">
        <ele>97.2304688</ele>
        <time>2010-06-13T08:38:00Z</time>
      </trkpt>
      <trkpt lat="50.43929" lon="2.03863">
        <ele>101.0756836</ele>
        <time>2010-06-13T08:38:05Z</time>
      </trkpt>
      <trkpt lat="50.43939" lon="2.0385">
        <ele>105.4017334</ele>
        <time>2010-06-13T08:38:11Z</time>
      </trkpt>
      <trkpt lat="50.43949" lon="2.03834">
        <ele>113.572998</ele>
        <time>2010-06-13T08:38:17Z</time>
      </trkpt>
      <trkpt lat="50.43958" lon="2.03818">
        <ele>112.1309814</ele>
        <time>2010-06-13T08:38:23Z</time>
      </trkpt>
      <trkpt lat="50.43962" lon="2.03812">
        <ele>116.9375</ele>
        <time>2010-06-13T08:38:25Z</time>
      </trkpt>
      <trkpt lat="50.4397" lon="2.03802">
        <ele>113.572998</ele>
        <time>2010-06-13T08:38:30Z</time>
      </trkpt>
      <trkpt lat="50.43982" lon="2.03799">
        <ele>106.8436279</ele>
        <time>2010-06-13T08:38:38Z</time>
      </trkpt>
      <trkpt lat="50.43983" lon="2.038">
        <ele>103.9597168</ele>
        <time>2010-06-13T08:38:40Z</time>
      </trkpt>
      <trkpt lat="50.43991" lon="2.03798">
        <ele>101.5563965</ele>
        <time>2010-06-13T08:39:13Z</time>
      </trkpt>
      <trkpt lat="50.4399" lon="2.03797">
        <ele>100.114502</ele>
        <time>2010-06-13T08:39:14Z</time>
      </trkpt>
      <trkpt lat="50.43991" lon="2.03798">
        <ele>98.1918945</ele>
        <time>2010-06-13T08:39:15Z</time>
      </trkpt>
      <trkpt lat="50.43993" lon="2.03804">
        <ele>97.2304688</ele>
        <time>2010-06-13T08:39:18Z</time>
      </trkpt>
      <trkpt lat="50.43998" lon="2.03814">
        <ele>99.1530762</ele>
        <time>2010-06-13T08:39:22Z</time>
      </trkpt>
      <trkpt lat="50.44005" lon="2.03842">
        <ele>100.114502</ele>
        <time>2010-06-13T08:39:28Z</time>
      </trkpt>
      <trkpt lat="50.44012" lon="2.03864">
        <ele>98.6724854</ele>
        <time>2010-06-13T08:39:33Z</time>
      </trkpt>
      <trkpt lat="50.4403" lon="2.03892">
        <ele>93.8658447</ele>
        <time>2010-06-13T08:39:38Z</time>
      </trkpt>
      <trkpt lat="50.44034" lon="2.03897">
        <ele>93.8658447</ele>
        <time>2010-06-13T08:39:39Z</time>
      </trkpt>
      <trkpt lat="50.44051" lon="2.03923">
        <ele>99.6337891</ele>
        <time>2010-06-13T08:39:43Z</time>
      </trkpt>
      <trkpt lat="50.44063" lon="2.03938">
        <ele>103.4790039</ele>
        <time>2010-06-13T08:39:45Z</time>
      </trkpt>
      <trkpt lat="50.44077" lon="2.03973">
        <ele>107.8050537</ele>
        <time>2010-06-13T08:39:49Z</time>
      </trkpt>
      <trkpt lat="50.4408" lon="2.03981">
        <ele>107.8050537</ele>
        <time>2010-06-13T08:39:50Z</time>
      </trkpt>
      <trkpt lat="50.44087" lon="2.03993">
        <ele>108.2856445</ele>
        <time>2010-06-13T08:39:52Z</time>
      </trkpt>
      <trkpt lat="50.44096" lon="2.04012">
        <ele>109.7276611</ele>
        <time>2010-06-13T08:39:57Z</time>
      </trkpt>
      <trkpt lat="50.44095" lon="2.04024">
        <ele>108.7662354</ele>
        <time>2010-06-13T08:40:00Z</time>
      </trkpt>
      <trkpt lat="50.4408" lon="2.04046">
        <ele>103.4790039</ele>
        <time>2010-06-13T08:40:05Z</time>
      </trkpt>
      <trkpt lat="50.44065" lon="2.0406">
        <ele>95.7884521</ele>
        <time>2010-06-13T08:40:09Z</time>
      </trkpt>
      <trkpt lat="50.44045" lon="2.04078">
        <ele>93.8658447</ele>
        <time>2010-06-13T08:40:14Z</time>
      </trkpt>
      <trkpt lat="50.44033" lon="2.04093">
        <ele>93.3851318</ele>
        <time>2010-06-13T08:40:17Z</time>
      </trkpt>
      <trkpt lat="50.44016" lon="2.04106">
        <ele>91.9432373</ele>
        <time>2010-06-13T08:40:21Z</time>
      </trkpt>
      <trkpt lat="50.44006" lon="2.04119">
        <ele>88.5787354</ele>
        <time>2010-06-13T08:40:26Z</time>
      </trkpt>
      <trkpt lat="50.44009" lon="2.04127">
        <ele>90.5013428</ele>
        <time>2010-06-13T08:40:30Z</time>
      </trkpt>
      <trkpt lat="50.44012" lon="2.04131">
        <ele>90.5013428</ele>
        <time>2010-06-13T08:40:33Z</time>
      </trkpt>
      <trkpt lat="50.44013" lon="2.04132">
        <ele>90.5013428</ele>
        <time>2010-06-13T08:40:34Z</time>
      </trkpt>
      <trkpt lat="50.44015" lon="2.04136">
        <ele>90.0206299</ele>
        <time>2010-06-13T08:40:37Z</time>
      </trkpt>
      <trkpt lat="50.44017" lon="2.04137">
        <ele>90.9819336</ele>
        <time>2010-06-13T08:40:38Z</time>
      </trkpt>
      <trkpt lat="50.44018" lon="2.0414">
        <ele>89.0593262</ele>
        <time>2010-06-13T08:40:40Z</time>
      </trkpt>
      <trkpt lat="50.44019" lon="2.04144">
        <ele>81.3687744</ele>
        <time>2010-06-13T08:40:44Z</time>
      </trkpt>
      <trkpt lat="50.44021" lon="2.04152">
        <ele>80.8881836</ele>
        <time>2010-06-13T08:40:50Z</time>
      </trkpt>
      <trkpt lat="50.44022" lon="2.04157">
        <ele>84.7333984</ele>
        <time>2010-06-13T08:40:56Z</time>
      </trkpt>
      <trkpt lat="50.44019" lon="2.04164">
        <ele>85.2139893</ele>
        <time>2010-06-13T08:41:00Z</time>
      </trkpt>
      <trkpt lat="50.44015" lon="2.04175">
        <ele>83.7719727</ele>
        <time>2010-06-13T08:41:05Z</time>
      </trkpt>
      <trkpt lat="50.44014" lon="2.04179">
        <ele>87.1365967</ele>
        <time>2010-06-13T08:41:11Z</time>
      </trkpt>
      <trkpt lat="50.44017" lon="2.04185">
        <ele>86.6560059</ele>
        <time>2010-06-13T08:41:15Z</time>
      </trkpt>
      <trkpt lat="50.44019" lon="2.04187">
        <ele>86.6560059</ele>
        <time>2010-06-13T08:41:18Z</time>
      </trkpt>
      <trkpt lat="50.4402" lon="2.04195">
        <ele>82.810791</ele>
        <time>2010-06-13T08:41:27Z</time>
      </trkpt>
      <trkpt lat="50.4402" lon="2.04202">
        <ele>82.3300781</ele>
        <time>2010-06-13T08:41:33Z</time>
      </trkpt>
      <trkpt lat="50.44025" lon="2.04208">
        <ele>84.7333984</ele>
        <time>2010-06-13T08:41:40Z</time>
      </trkpt>
      <trkpt lat="50.44027" lon="2.04215">
        <ele>89.0593262</ele>
        <time>2010-06-13T08:41:46Z</time>
      </trkpt>
      <trkpt lat="50.44027" lon="2.04222">
        <ele>90.9819336</ele>
        <time>2010-06-13T08:41:51Z</time>
      </trkpt>
      <trkpt lat="50.44025" lon="2.04228">
        <ele>90.9819336</ele>
        <time>2010-06-13T08:41:55Z</time>
      </trkpt>
      <trkpt lat="50.44021" lon="2.04244">
        <ele>90.5013428</ele>
        <time>2010-06-13T08:42:00Z</time>
      </trkpt>
      <trkpt lat="50.44023" lon="2.04263">
        <ele>90.0206299</ele>
        <time>2010-06-13T08:42:06Z</time>
      </trkpt>
      <trkpt lat="50.44024" lon="2.04265">
        <ele>90.5013428</ele>
        <time>2010-06-13T08:42:07Z</time>
      </trkpt>
      <trkpt lat="50.44027" lon="2.04273">
        <ele>90.9819336</ele>
        <time>2010-06-13T08:42:10Z</time>
      </trkpt>
      <trkpt lat="50.44033" lon="2.04284">
        <ele>93.3851318</ele>
        <time>2010-06-13T08:42:16Z</time>
      </trkpt>
      <trkpt lat="50.44035" lon="2.04294">
        <ele>94.3465576</ele>
        <time>2010-06-13T08:42:20Z</time>
      </trkpt>
      <trkpt lat="50.44038" lon="2.04302">
        <ele>95.3077393</ele>
        <time>2010-06-13T08:42:26Z</time>
      </trkpt>
      <trkpt lat="50.44039" lon="2.0431">
        <ele>96.7498779</ele>
        <time>2010-06-13T08:42:32Z</time>
      </trkpt>
      <trkpt lat="50.44046" lon="2.04317">
        <ele>98.6724854</ele>
        <time>2010-06-13T08:42:38Z</time>
      </trkpt>
      <trkpt lat="50.44049" lon="2.04323">
        <ele>98.1918945</ele>
        <time>2010-06-13T08:42:44Z</time>
      </trkpt>
      <trkpt lat="50.44052" lon="2.04329">
        <ele>99.6337891</ele>
        <time>2010-06-13T08:42:48Z</time>
      </trkpt>
      <trkpt lat="50.44057" lon="2.04338">
        <ele>102.0371094</ele>
        <time>2010-06-13T08:42:53Z</time>
      </trkpt>
      <trkpt lat="50.44066" lon="2.04351">
        <ele>104.4404297</ele>
        <time>2010-06-13T08:43:00Z</time>
      </trkpt>
      <trkpt lat="50.4407" lon="2.04362">
        <ele>103.9597168</ele>
        <time>2010-06-13T08:43:05Z</time>
      </trkpt>
      <trkpt lat="50.44066" lon="2.04372">
        <ele>100.114502</ele>
        <time>2010-06-13T08:43:10Z</time>
      </trkpt>
      <trkpt lat="50.44058" lon="2.04384">
        <ele>99.1530762</ele>
        <time>2010-06-13T08:43:15Z</time>
      </trkpt>
      <trkpt lat="50.44056" lon="2.04386">
        <ele>98.6724854</ele>
        <time>2010-06-13T08:43:17Z</time>
      </trkpt>
      <trkpt lat="50.44053" lon="2.04393">
        <ele>89.0593262</ele>
        <time>2010-06-13T08:43:29Z</time>
      </trkpt>
      <trkpt lat="50.44049" lon="2.04399">
        <ele>85.6945801</ele>
        <time>2010-06-13T08:43:38Z</time>
      </trkpt>
      <trkpt lat="50.4404" lon="2.04418">
        <ele>88.5787354</ele>
        <time>2010-06-13T08:43:43Z</time>
      </trkpt>
      <trkpt lat="50.44025" lon="2.04436">
        <ele>88.0980225</ele>
        <time>2010-06-13T08:43:47Z</time>
      </trkpt>
      <trkpt lat="50.44023" lon="2.04438">
        <ele>86.6560059</ele>
        <time>2010-06-13T08:43:48Z</time>
      </trkpt>
      <trkpt lat="50.44017" lon="2.04441">
        <ele>86.6560059</ele>
        <time>2010-06-13T08:43:52Z</time>
      </trkpt>
      <trkpt lat="50.4402" lon="2.04448">
        <ele>85.6945801</ele>
        <time>2010-06-13T08:43:55Z</time>
      </trkpt>
      <trkpt lat="50.44026" lon="2.04465">
        <ele>86.175293</ele>
        <time>2010-06-13T08:44:01Z</time>
      </trkpt>
      <trkpt lat="50.44034" lon="2.04476">
        <ele>90.9819336</ele>
        <time>2010-06-13T08:44:07Z</time>
      </trkpt>
      <trkpt lat="50.44036" lon="2.04478">
        <ele>92.904541</ele>
        <time>2010-06-13T08:44:08Z</time>
      </trkpt>
      <trkpt lat="50.44045" lon="2.04491">
        <ele>92.4239502</ele>
        <time>2010-06-13T08:44:13Z</time>
      </trkpt>
      <trkpt lat="50.44053" lon="2.04505">
        <ele>90.9819336</ele>
        <time>2010-06-13T08:44:17Z</time>
      </trkpt>
      <trkpt lat="50.44062" lon="2.04517">
        <ele>95.3077393</ele>
        <time>2010-06-13T08:44:22Z</time>
      </trkpt>
      <trkpt lat="50.44064" lon="2.04524">
        <ele>95.7884521</ele>
        <time>2010-06-13T08:44:24Z</time>
      </trkpt>
      <trkpt lat="50.44072" lon="2.04542">
        <ele>100.5950928</ele>
        <time>2010-06-13T08:44:29Z</time>
      </trkpt>
      <trkpt lat="50.44082" lon="2.0456">
        <ele>104.9210205</ele>
        <time>2010-06-13T08:44:35Z</time>
      </trkpt>
      <trkpt lat="50.44088" lon="2.04578">
        <ele>111.1695557</ele>
        <time>2010-06-13T08:44:38Z</time>
      </trkpt>
      <trkpt lat="50.44099" lon="2.04602">
        <ele>110.208252</ele>
        <time>2010-06-13T08:44:43Z</time>
      </trkpt>
      <trkpt lat="50.44114" lon="2.04626">
        <ele>108.2856445</ele>
        <time>2010-06-13T08:44:49Z</time>
      </trkpt>
      <trkpt lat="50.44125" lon="2.04648">
        <ele>103.9597168</ele>
        <time>2010-06-13T08:44:54Z</time>
      </trkpt>
      <trkpt lat="50.44138" lon="2.04668">
        <ele>102.998291</ele>
        <time>2010-06-13T08:44:59Z</time>
      </trkpt>
      <trkpt lat="50.4415" lon="2.04693">
        <ele>105.8824463</ele>
        <time>2010-06-13T08:45:03Z</time>
      </trkpt>
      <trkpt lat="50.44152" lon="2.04699">
        <ele>103.9597168</ele>
        <time>2010-06-13T08:45:04Z</time>
      </trkpt>
      <trkpt lat="50.4416" lon="2.04713">
        <ele>105.8824463</ele>
        <time>2010-06-13T08:45:07Z</time>
      </trkpt>
      <trkpt lat="50.44163" lon="2.04721">
        <ele>104.9210205</ele>
        <time>2010-06-13T08:45:09Z</time>
      </trkpt>
      <trkpt lat="50.44174" lon="2.04741">
        <ele>104.9210205</ele>
        <time>2010-06-13T08:45:14Z</time>
      </trkpt>
      <trkpt lat="50.44192" lon="2.04761">
        <ele>103.4790039</ele>
        <time>2010-06-13T08:45:19Z</time>
      </trkpt>
      <trkpt lat="50.442" lon="2.04779">
        <ele>104.4404297</ele>
        <time>2010-06-13T08:45:24Z</time>
      </trkpt>
      <trkpt lat="50.44207" lon="2.04793">
        <ele>103.9597168</ele>
        <time>2010-06-13T08:45:28Z</time>
      </trkpt>
      <trkpt lat="50.44217" lon="2.0481">
        <ele>105.8824463</ele>
        <time>2010-06-13T08:45:32Z</time>
      </trkpt>
      <trkpt lat="50.44224" lon="2.04816">
        <ele>107.3243408</ele>
        <time>2010-06-13T08:45:34Z</time>
      </trkpt>
      <trkpt lat="50.44235" lon="2.04841">
        <ele>105.8824463</ele>
        <time>2010-06-13T08:45:40Z</time>
      </trkpt>
      <trkpt lat="50.44245" lon="2.04855">
        <ele>106.8436279</ele>
        <time>2010-06-13T08:45:45Z</time>
      </trkpt>
      <trkpt lat="50.44246" lon="2.04857">
        <ele>104.4404297</ele>
        <time>2010-06-13T08:45:46Z</time>
      </trkpt>
      <trkpt lat="50.44254" lon="2.04864">
        <ele>101.0756836</ele>
        <time>2010-06-13T08:45:52Z</time>
      </trkpt>
      <trkpt lat="50.44265" lon="2.04871">
        <ele>99.6337891</ele>
        <time>2010-06-13T08:45:58Z</time>
      </trkpt>
      <trkpt lat="50.44276" lon="2.04878">
        <ele>100.5950928</ele>
        <time>2010-06-13T08:46:03Z</time>
      </trkpt>
      <trkpt lat="50.44289" lon="2.04887">
        <ele>101.5563965</ele>
        <time>2010-06-13T08:46:09Z</time>
      </trkpt>
      <trkpt lat="50.44292" lon="2.04891">
        <ele>101.5563965</ele>
        <time>2010-06-13T08:46:12Z</time>
      </trkpt>
      <trkpt lat="50.44299" lon="2.04901">
        <ele>102.0371094</ele>
        <time>2010-06-13T08:46:17Z</time>
      </trkpt>
      <trkpt lat="50.44306" lon="2.04916">
        <ele>102.0371094</ele>
        <time>2010-06-13T08:46:22Z</time>
      </trkpt>
      <trkpt lat="50.44314" lon="2.04929">
        <ele>104.9210205</ele>
        <time>2010-06-13T08:46:27Z</time>
      </trkpt>
      <trkpt lat="50.4432" lon="2.04948">
        <ele>104.9210205</ele>
        <time>2010-06-13T08:46:31Z</time>
      </trkpt>
      <trkpt lat="50.44328" lon="2.04975">
        <ele>100.5950928</ele>
        <time>2010-06-13T08:46:35Z</time>
      </trkpt>
      <trkpt lat="50.44332" lon="2.04996">
        <ele>99.1530762</ele>
        <time>2010-06-13T08:46:40Z</time>
      </trkpt>
      <trkpt lat="50.44337" lon="2.05008">
        <ele>99.6337891</ele>
        <time>2010-06-13T08:46:46Z</time>
      </trkpt>
      <trkpt lat="50.44338" lon="2.05008">
        <ele>99.6337891</ele>
        <time>2010-06-13T08:46:47Z</time>
      </trkpt>
      <trkpt lat="50.44339" lon="2.05012">
        <ele>93.3851318</ele>
        <time>2010-06-13T08:47:04Z</time>
      </trkpt>
      <trkpt lat="50.44341" lon="2.05013">
        <ele>93.8658447</ele>
        <time>2010-06-13T08:47:05Z</time>
      </trkpt>
      <trkpt lat="50.44359" lon="2.0502">
        <ele>91.9432373</ele>
        <time>2010-06-13T08:47:09Z</time>
      </trkpt>
      <trkpt lat="50.44388" lon="2.05034">
        <ele>88.0980225</ele>
        <time>2010-06-13T08:47:14Z</time>
      </trkpt>
      <trkpt lat="50.44395" lon="2.05038">
        <ele>87.1365967</ele>
        <time>2010-06-13T08:47:15Z</time>
      </trkpt>
      <trkpt lat="50.44417" lon="2.05048">
        <ele>83.2913818</ele>
        <time>2010-06-13T08:47:18Z</time>
      </trkpt>
      <trkpt lat="50.44429" lon="2.0506">
        <ele>80.8881836</ele>
        <time>2010-06-13T08:47:22Z</time>
      </trkpt>
      <trkpt lat="50.44432" lon="2.05059">
        <ele>82.3300781</ele>
        <time>2010-06-13T08:47:26Z</time>
      </trkpt>
      <trkpt lat="50.4443" lon="2.05055">
        <ele>82.810791</ele>
        <time>2010-06-13T08:47:29Z</time>
      </trkpt>
      <trkpt lat="50.44417" lon="2.05044">
        <ele>81.8493652</ele>
        <time>2010-06-13T08:47:35Z</time>
      </trkpt>
      <trkpt lat="50.44416" lon="2.05042">
        <ele>81.8493652</ele>
        <time>2010-06-13T08:47:36Z</time>
      </trkpt>
      <trkpt lat="50.44418" lon="2.05039">
        <ele>78.0040283</ele>
        <time>2010-06-13T08:47:54Z</time>
      </trkpt>
      <trkpt lat="50.4442" lon="2.05038">
        <ele>75.6008301</ele>
        <time>2010-06-13T08:48:09Z</time>
      </trkpt>
      <trkpt lat="50.4442" lon="2.05037">
        <ele>75.1202393</ele>
        <time>2010-06-13T08:48:11Z</time>
      </trkpt>
      <trkpt lat="50.44396" lon="2.05066">
        <ele>72.2362061</ele>
        <time>2010-06-13T08:48:23Z</time>
      </trkpt>
      <trkpt lat="50.44366" lon="2.05118">
        <ele>73.1976318</ele>
        <time>2010-06-13T08:48:28Z</time>
      </trkpt>
      <trkpt lat="50.44335" lon="2.05165">
        <ele>70.7941895</ele>
        <time>2010-06-13T08:48:33Z</time>
      </trkpt>
      <trkpt lat="50.44315" lon="2.05196">
        <ele>69.8328857</ele>
        <time>2010-06-13T08:48:37Z</time>
      </trkpt>
      <trkpt lat="50.44306" lon="2.05209">
        <ele>69.3522949</ele>
        <time>2010-06-13T08:48:39Z</time>
      </trkpt>
      <trkpt lat="50.44289" lon="2.05215">
        <ele>67.9102783</ele>
        <time>2010-06-13T08:48:43Z</time>
      </trkpt>
      <trkpt lat="50.44281" lon="2.05209">
        <ele>67.4296875</ele>
        <time>2010-06-13T08:48:45Z</time>
      </trkpt>
      <trkpt lat="50.44259" lon="2.05185">
        <ele>65.0263672</ele>
        <time>2010-06-13T08:48:50Z</time>
      </trkpt>
      <trkpt lat="50.44249" lon="2.05174">
        <ele>64.0650635</ele>
        <time>2010-06-13T08:48:52Z</time>
      </trkpt>
      <trkpt lat="50.44239" lon="2.05163">
        <ele>63.5843506</ele>
        <time>2010-06-13T08:48:54Z</time>
      </trkpt>
      <trkpt lat="50.44211" lon="2.05131">
        <ele>62.142334</ele>
        <time>2010-06-13T08:49:00Z</time>
      </trkpt>
      <trkpt lat="50.44204" lon="2.05121">
        <ele>62.142334</ele>
        <time>2010-06-13T08:49:02Z</time>
      </trkpt>
      <trkpt lat="50.44195" lon="2.05125">
        <ele>62.142334</ele>
        <time>2010-06-13T08:49:06Z</time>
      </trkpt>
      <trkpt lat="50.44196" lon="2.05128">
        <ele>62.142334</ele>
        <time>2010-06-13T08:49:07Z</time>
      </trkpt>
      <trkpt lat="50.44196" lon="2.05137">
        <ele>63.1036377</ele>
        <time>2010-06-13T08:49:12Z</time>
      </trkpt>
      <trkpt lat="50.44195" lon="2.05137">
        <ele>63.5843506</ele>
        <time>2010-06-13T08:49:15Z</time>
      </trkpt>
      <trkpt lat="50.44195" lon="2.05137">
        <ele>63.5843506</ele>
        <time>2010-06-13T08:49:16Z</time>
      </trkpt>
      <trkpt lat="50.44195" lon="2.05145">
        <ele>64.0650635</ele>
        <time>2010-06-13T08:49:21Z</time>
      </trkpt>
      <trkpt lat="50.44197" lon="2.05168">
        <ele>63.5843506</ele>
        <time>2010-06-13T08:49:26Z</time>
      </trkpt>
      <trkpt lat="50.44199" lon="2.05188">
        <ele>63.5843506</ele>
        <time>2010-06-13T08:49:32Z</time>
      </trkpt>
      <trkpt lat="50.442" lon="2.05192">
        <ele>63.5843506</ele>
        <time>2010-06-13T08:49:34Z</time>
      </trkpt>
      <trkpt lat="50.442" lon="2.05193">
        <ele>58.77771</ele>
        <time>2010-06-13T08:49:43Z</time>
      </trkpt>
      <trkpt lat="50.44201" lon="2.05193">
        <ele>56.8551025</ele>
        <time>2010-06-13T08:49:51Z</time>
      </trkpt>
      <trkpt lat="50.44202" lon="2.05195">
        <ele>57.8165283</ele>
        <time>2010-06-13T08:49:54Z</time>
      </trkpt>
      <trkpt lat="50.442" lon="2.05196">
        <ele>56.8551025</ele>
        <time>2010-06-13T08:50:03Z</time>
      </trkpt>
      <trkpt lat="50.44201" lon="2.05197">
        <ele>57.3358154</ele>
        <time>2010-06-13T08:50:10Z</time>
      </trkpt>
      <trkpt lat="50.44199" lon="2.05201">
        <ele>62.142334</ele>
        <time>2010-06-13T08:50:21Z</time>
      </trkpt>
      <trkpt lat="50.44198" lon="2.05215">
        <ele>64.5456543</ele>
        <time>2010-06-13T08:50:28Z</time>
      </trkpt>
      <trkpt lat="50.44192" lon="2.05233">
        <ele>65.5070801</ele>
        <time>2010-06-13T08:50:34Z</time>
      </trkpt>
      <trkpt lat="50.44187" lon="2.05247">
        <ele>65.0263672</ele>
        <time>2010-06-13T08:50:39Z</time>
      </trkpt>
      <trkpt lat="50.4418" lon="2.05264">
        <ele>65.0263672</ele>
        <time>2010-06-13T08:50:45Z</time>
      </trkpt>
      <trkpt lat="50.44172" lon="2.05282">
        <ele>66.4682617</ele>
        <time>2010-06-13T08:50:53Z</time>
      </trkpt>
      <trkpt lat="50.44162" lon="2.05299">
        <ele>68.3908691</ele>
        <time>2010-06-13T08:51:02Z</time>
      </trkpt>
      <trkpt lat="50.44155" lon="2.05307">
        <ele>66.4682617</ele>
        <time>2010-06-13T08:51:08Z</time>
      </trkpt>
      <trkpt lat="50.44149" lon="2.05305">
        <ele>66.4682617</ele>
        <time>2010-06-13T08:51:12Z</time>
      </trkpt>
      <trkpt lat="50.44144" lon="2.053">
        <ele>67.4296875</ele>
        <time>2010-06-13T08:51:16Z</time>
      </trkpt>
      <trkpt lat="50.44138" lon="2.05304">
        <ele>68.871582</ele>
        <time>2010-06-13T08:51:20Z</time>
      </trkpt>
      <trkpt lat="50.4413" lon="2.05314">
        <ele>70.7941895</ele>
        <time>2010-06-13T08:51:28Z</time>
      </trkpt>
      <trkpt lat="50.44122" lon="2.05317">
        <ele>71.7554932</ele>
        <time>2010-06-13T08:51:34Z</time>
      </trkpt>
      <trkpt lat="50.44118" lon="2.05319">
        <ele>67.4296875</ele>
        <time>2010-06-13T08:51:39Z</time>
      </trkpt>
      <trkpt lat="50.44117" lon="2.0532">
        <ele>64.5456543</ele>
        <time>2010-06-13T08:51:43Z</time>
      </trkpt>
      <trkpt lat="50.44114" lon="2.05321">
        <ele>59.7391357</ele>
        <time>2010-06-13T08:51:52Z</time>
      </trkpt>
      <trkpt lat="50.44114" lon="2.05321">
        <ele>57.3358154</ele>
        <time>2010-06-13T08:52:00Z</time>
      </trkpt>
      <trkpt lat="50.44114" lon="2.05323">
        <ele>56.3745117</ele>
        <time>2010-06-13T08:52:12Z</time>
      </trkpt>
      <trkpt lat="50.44116" lon="2.05322">
        <ele>61.6617432</ele>
        <time>2010-06-13T08:52:24Z</time>
      </trkpt>
      <trkpt lat="50.44112" lon="2.05324">
        <ele>62.6229248</ele>
        <time>2010-06-13T08:52:29Z</time>
      </trkpt>
      <trkpt lat="50.44109" lon="2.05329">
        <ele>65.5070801</ele>
        <time>2010-06-13T08:52:34Z</time>
      </trkpt>
      <trkpt lat="50.44102" lon="2.05332">
        <ele>67.9102783</ele>
        <time>2010-06-13T08:52:40Z</time>
      </trkpt>
      <trkpt lat="50.44096" lon="2.05337">
        <ele>72.2362061</ele>
        <time>2010-06-13T08:52:47Z</time>
      </trkpt>
      <trkpt lat="50.44085" lon="2.05344">
        <ele>70.7941895</ele>
        <time>2010-06-13T08:52:55Z</time>
      </trkpt>
      <trkpt lat="50.44078" lon="2.0535">
        <ele>69.3522949</ele>
        <time>2010-06-13T08:53:03Z</time>
      </trkpt>
      <trkpt lat="50.44071" lon="2.05356">
        <ele>74.6395264</ele>
        <time>2010-06-13T08:53:16Z</time>
      </trkpt>
      <trkpt lat="50.44069" lon="2.05357">
        <ele>74.1588135</ele>
        <time>2010-06-13T08:53:22Z</time>
      </trkpt>
      <trkpt lat="50.44068" lon="2.05356">
        <ele>74.1588135</ele>
        <time>2010-06-13T08:53:34Z</time>
      </trkpt>
      <trkpt lat="50.44063" lon="2.0536">
        <ele>78.9654541</ele>
        <time>2010-06-13T08:53:41Z</time>
      </trkpt>
      <trkpt lat="50.44058" lon="2.05367">
        <ele>80.4074707</ele>
        <time>2010-06-13T08:53:47Z</time>
      </trkpt>
      <trkpt lat="50.44052" lon="2.05373">
        <ele>82.810791</ele>
        <time>2010-06-13T08:53:54Z</time>
      </trkpt>
      <trkpt lat="50.44049" lon="2.05379">
        <ele>84.7333984</ele>
        <time>2010-06-13T08:53:59Z</time>
      </trkpt>
      <trkpt lat="50.44044" lon="2.05383">
        <ele>86.6560059</ele>
        <time>2010-06-13T08:54:03Z</time>
      </trkpt>
      <trkpt lat="50.44036" lon="2.05393">
        <ele>89.539917</ele>
        <time>2010-06-13T08:54:12Z</time>
      </trkpt>
      <trkpt lat="50.44034" lon="2.05396">
        <ele>90.9819336</ele>
        <time>2010-06-13T08:54:15Z</time>
      </trkpt>
      <trkpt lat="50.44028" lon="2.05405">
        <ele>94.8271484</ele>
        <time>2010-06-13T08:54:23Z</time>
      </trkpt>
      <trkpt lat="50.44027" lon="2.05406">
        <ele>94.8271484</ele>
        <time>2010-06-13T08:54:24Z</time>
      </trkpt>
      <trkpt lat="50.4402" lon="2.0541">
        <ele>96.7498779</ele>
        <time>2010-06-13T08:54:31Z</time>
      </trkpt>
      <trkpt lat="50.44012" lon="2.0542">
        <ele>99.6337891</ele>
        <time>2010-06-13T08:54:41Z</time>
      </trkpt>
      <trkpt lat="50.44007" lon="2.05431">
        <ele>102.0371094</ele>
        <time>2010-06-13T08:54:50Z</time>
      </trkpt>
      <trkpt lat="50.44002" lon="2.05439">
        <ele>102.5177002</ele>
        <time>2010-06-13T08:54:57Z</time>
      </trkpt>
      <trkpt lat="50.43996" lon="2.05449">
        <ele>102.998291</ele>
        <time>2010-06-13T08:55:05Z</time>
      </trkpt>
      <trkpt lat="50.43993" lon="2.05461">
        <ele>103.9597168</ele>
        <time>2010-06-13T08:55:14Z</time>
      </trkpt>
      <trkpt lat="50.43987" lon="2.05469">
        <ele>105.4017334</ele>
        <time>2010-06-13T08:55:22Z</time>
      </trkpt>
      <trkpt lat="50.43982" lon="2.05479">
        <ele>108.2856445</ele>
        <time>2010-06-13T08:55:31Z</time>
      </trkpt>
      <trkpt lat="50.43975" lon="2.05486">
        <ele>109.7276611</ele>
        <time>2010-06-13T08:55:40Z</time>
      </trkpt>
      <trkpt lat="50.43969" lon="2.05494">
        <ele>110.6888428</ele>
        <time>2010-06-13T08:55:48Z</time>
      </trkpt>
      <trkpt lat="50.43966" lon="2.05508">
        <ele>112.1309814</ele>
        <time>2010-06-13T08:55:57Z</time>
      </trkpt>
      <trkpt lat="50.43964" lon="2.05525">
        <ele>113.0922852</ele>
        <time>2010-06-13T08:56:07Z</time>
      </trkpt>
      <trkpt lat="50.4396" lon="2.05541">
        <ele>114.0535889</ele>
        <time>2010-06-13T08:56:17Z</time>
      </trkpt>
      <trkpt lat="50.43952" lon="2.05553">
        <ele>115.0148926</ele>
        <time>2010-06-13T08:56:26Z</time>
      </trkpt>
      <trkpt lat="50.43944" lon="2.05562">
        <ele>115.9761963</ele>
        <time>2010-06-13T08:56:35Z</time>
      </trkpt>
      <trkpt lat="50.43935" lon="2.05573">
        <ele>118.8601074</ele>
        <time>2010-06-13T08:56:45Z</time>
      </trkpt>
      <trkpt lat="50.43927" lon="2.0558">
        <ele>119.8214111</ele>
        <time>2010-06-13T08:56:54Z</time>
      </trkpt>
      <trkpt lat="50.4392" lon="2.05586">
        <ele>119.8214111</ele>
        <time>2010-06-13T08:57:02Z</time>
      </trkpt>
      <trkpt lat="50.4391" lon="2.05587">
        <ele>119.8214111</ele>
        <time>2010-06-13T08:57:12Z</time>
      </trkpt>
      <trkpt lat="50.43908" lon="2.05584">
        <ele>119.8214111</ele>
        <time>2010-06-13T08:57:17Z</time>
      </trkpt>
      <trkpt lat="50.43905" lon="2.0558">
        <ele>122.7054443</ele>
        <time>2010-06-13T08:58:18Z</time>
      </trkpt>
      <trkpt lat="50.43902" lon="2.05578">
        <ele>123.1861572</ele>
        <time>2010-06-13T08:58:19Z</time>
      </trkpt>
      <trkpt lat="50.43891" lon="2.05569">
        <ele>124.6280518</ele>
        <time>2010-06-13T08:58:26Z</time>
      </trkpt>
      <trkpt lat="50.43871" lon="2.05554">
        <ele>125.5893555</ele>
        <time>2010-06-13T08:58:34Z</time>
      </trkpt>
      <trkpt lat="50.43852" lon="2.05535">
        <ele>125.5893555</ele>
        <time>2010-06-13T08:58:42Z</time>
      </trkpt>
      <trkpt lat="50.43836" lon="2.05516">
        <ele>125.5893555</ele>
        <time>2010-06-13T08:58:48Z</time>
      </trkpt>
      <trkpt lat="50.43819" lon="2.05498">
        <ele>125.5893555</ele>
        <time>2010-06-13T08:58:54Z</time>
      </trkpt>
      <trkpt lat="50.43795" lon="2.05476">
        <ele>125.5893555</ele>
        <time>2010-06-13T08:59:02Z</time>
      </trkpt>
      <trkpt lat="50.43771" lon="2.05458">
        <ele>125.5893555</ele>
        <time>2010-06-13T08:59:09Z</time>
      </trkpt>
      <trkpt lat="50.4375" lon="2.05443">
        <ele>126.0699463</ele>
        <time>2010-06-13T08:59:15Z</time>
      </trkpt>
      <trkpt lat="50.43733" lon="2.05431">
        <ele>126.0699463</ele>
        <time>2010-06-13T08:59:20Z</time>
      </trkpt>
      <trkpt lat="50.4371" lon="2.05415">
        <ele>126.0699463</ele>
        <time>2010-06-13T08:59:27Z</time>
      </trkpt>
      <trkpt lat="50.43689" lon="2.05405">
        <ele>126.0699463</ele>
        <time>2010-06-13T08:59:33Z</time>
      </trkpt>
      <trkpt lat="50.43671" lon="2.05398">
        <ele>125.1087646</ele>
        <time>2010-06-13T08:59:38Z</time>
      </trkpt>
      <trkpt lat="50.4364" lon="2.05383">
        <ele>123.1861572</ele>
        <time>2010-06-13T08:59:46Z</time>
      </trkpt>
      <trkpt lat="50.43607" lon="2.05364">
        <ele>121.7441406</ele>
        <time>2010-06-13T08:59:54Z</time>
      </trkpt>
      <trkpt lat="50.43581" lon="2.05347">
        <ele>121.2635498</ele>
        <time>2010-06-13T09:00:01Z</time>
      </trkpt>
      <trkpt lat="50.43557" lon="2.05328">
        <ele>120.302124</ele>
        <time>2010-06-13T09:00:09Z</time>
      </trkpt>
      <trkpt lat="50.4354" lon="2.05317">
        <ele>118.8601074</ele>
        <time>2010-06-13T09:00:14Z</time>
      </trkpt>
      <trkpt lat="50.43523" lon="2.05317">
        <ele>117.4182129</ele>
        <time>2010-06-13T09:00:18Z</time>
      </trkpt>
      <trkpt lat="50.43518" lon="2.05319">
        <ele>117.4182129</ele>
        <time>2010-06-13T09:00:19Z</time>
      </trkpt>
      <trkpt lat="50.43489" lon="2.05338">
        <ele>115.9761963</ele>
        <time>2010-06-13T09:00:26Z</time>
      </trkpt>
      <trkpt lat="50.43471" lon="2.05351">
        <ele>112.1309814</ele>
        <time>2010-06-13T09:00:31Z</time>
      </trkpt>
      <trkpt lat="50.4345" lon="2.0537">
        <ele>111.1695557</ele>
        <time>2010-06-13T09:00:36Z</time>
      </trkpt>
      <trkpt lat="50.43422" lon="2.05395">
        <ele>111.1695557</ele>
        <time>2010-06-13T09:00:41Z</time>
      </trkpt>
      <trkpt lat="50.43378" lon="2.05434">
        <ele>106.3630371</ele>
        <time>2010-06-13T09:00:48Z</time>
      </trkpt>
      <trkpt lat="50.43343" lon="2.05453">
        <ele>100.5950928</ele>
        <time>2010-06-13T09:00:53Z</time>
      </trkpt>
      <trkpt lat="50.43287" lon="2.05477">
        <ele>94.3465576</ele>
        <time>2010-06-13T09:01:00Z</time>
      </trkpt>
      <trkpt lat="50.43235" lon="2.05493">
        <ele>91.9432373</ele>
        <time>2010-06-13T09:01:06Z</time>
      </trkpt>
      <trkpt lat="50.43227" lon="2.05495">
        <ele>90.9819336</ele>
        <time>2010-06-13T09:01:07Z</time>
      </trkpt>
      <trkpt lat="50.43192" lon="2.05494">
        <ele>88.5787354</ele>
        <time>2010-06-13T09:01:12Z</time>
      </trkpt>
      <trkpt lat="50.43177" lon="2.05495">
        <ele>86.175293</ele>
        <time>2010-06-13T09:01:15Z</time>
      </trkpt>
      <trkpt lat="50.43164" lon="2.05499">
        <ele>84.2526855</ele>
        <time>2010-06-13T09:01:19Z</time>
      </trkpt>
      <trkpt lat="50.43144" lon="2.05496">
        <ele>80.4074707</ele>
        <time>2010-06-13T09:01:24Z</time>
      </trkpt>
      <trkpt lat="50.43124" lon="2.05489">
        <ele>79.9266357</ele>
        <time>2010-06-13T09:01:29Z</time>
      </trkpt>
      <trkpt lat="50.4312" lon="2.05487">
        <ele>78.9654541</ele>
        <time>2010-06-13T09:01:30Z</time>
      </trkpt>
      <trkpt lat="50.43112" lon="2.05481">
        <ele>78.4847412</ele>
        <time>2010-06-13T09:01:32Z</time>
      </trkpt>
      <trkpt lat="50.43102" lon="2.05472">
        <ele>79.4460449</ele>
        <time>2010-06-13T09:01:35Z</time>
      </trkpt>
      <trkpt lat="50.43077" lon="2.05467">
        <ele>77.5234375</ele>
        <time>2010-06-13T09:01:40Z</time>
      </trkpt>
      <trkpt lat="50.43032" lon="2.05483">
        <ele>76.0814209</ele>
        <time>2010-06-13T09:01:46Z</time>
      </trkpt>
      <trkpt lat="50.43001" lon="2.05488">
        <ele>75.1202393</ele>
        <time>2010-06-13T09:01:52Z</time>
      </trkpt>
      <trkpt lat="50.42973" lon="2.05494">
        <ele>74.1588135</ele>
        <time>2010-06-13T09:01:58Z</time>
      </trkpt>
      <trkpt lat="50.42963" lon="2.05495">
        <ele>72.7169189</ele>
        <time>2010-06-13T09:02:00Z</time>
      </trkpt>
      <trkpt lat="50.4294" lon="2.05485">
        <ele>71.2749023</ele>
        <time>2010-06-13T09:02:05Z</time>
      </trkpt>
      <trkpt lat="50.42922" lon="2.05474">
        <ele>71.7554932</ele>
        <time>2010-06-13T09:02:10Z</time>
      </trkpt>
      <trkpt lat="50.42907" lon="2.0546">
        <ele>73.6782227</ele>
        <time>2010-06-13T09:02:16Z</time>
      </trkpt>
      <trkpt lat="50.42901" lon="2.05452">
        <ele>74.1588135</ele>
        <time>2010-06-13T09:02:19Z</time>
      </trkpt>
      <trkpt lat="50.42881" lon="2.05425">
        <ele>78.4847412</ele>
        <time>2010-06-13T09:02:29Z</time>
      </trkpt>
      <trkpt lat="50.42872" lon="2.05418">
        <ele>78.9654541</ele>
        <time>2010-06-13T09:02:33Z</time>
      </trkpt>
      <trkpt lat="50.42861" lon="2.05415">
        <ele>78.4847412</ele>
        <time>2010-06-13T09:02:38Z</time>
      </trkpt>
      <trkpt lat="50.42842" lon="2.0542">
        <ele>79.4460449</ele>
        <time>2010-06-13T09:02:46Z</time>
      </trkpt>
      <trkpt lat="50.42821" lon="2.05431">
        <ele>81.8493652</ele>
        <time>2010-06-13T09:02:55Z</time>
      </trkpt>
      <trkpt lat="50.42796" lon="2.05446">
        <ele>84.7333984</ele>
        <time>2010-06-13T09:03:06Z</time>
      </trkpt>
      <trkpt lat="50.42778" lon="2.05456">
        <ele>86.6560059</ele>
        <time>2010-06-13T09:03:14Z</time>
      </trkpt>
      <trkpt lat="50.42761" lon="2.0546">
        <ele>87.1365967</ele>
        <time>2010-06-13T09:03:22Z</time>
      </trkpt>
      <trkpt lat="50.42752" lon="2.05447">
        <ele>86.175293</ele>
        <time>2010-06-13T09:03:27Z</time>
      </trkpt>
      <trkpt lat="50.42744" lon="2.05423">
        <ele>83.7719727</ele>
        <time>2010-06-13T09:03:30Z</time>
      </trkpt>
      <trkpt lat="50.42728" lon="2.05379">
        <ele>81.8493652</ele>
        <time>2010-06-13T09:03:34Z</time>
      </trkpt>
      <trkpt lat="50.42718" lon="2.0534">
        <ele>84.2526855</ele>
        <time>2010-06-13T09:03:38Z</time>
      </trkpt>
      <trkpt lat="50.42713" lon="2.05322">
        <ele>87.1365967</ele>
        <time>2010-06-13T09:03:42Z</time>
      </trkpt>
      <trkpt lat="50.42712" lon="2.05319">
        <ele>88.0980225</ele>
        <time>2010-06-13T09:03:43Z</time>
      </trkpt>
      <trkpt lat="50.42703" lon="2.05297">
        <ele>91.9432373</ele>
        <time>2010-06-13T09:03:52Z</time>
      </trkpt>
      <trkpt lat="50.42695" lon="2.05281">
        <ele>95.3077393</ele>
        <time>2010-06-13T09:04:01Z</time>
      </trkpt>
      <trkpt lat="50.42687" lon="2.05264">
        <ele>98.1918945</ele>
        <time>2010-06-13T09:04:10Z</time>
      </trkpt>
      <trkpt lat="50.42678" lon="2.05249">
        <ele>100.5950928</ele>
        <time>2010-06-13T09:04:19Z</time>
      </trkpt>
      <trkpt lat="50.42672" lon="2.05237">
        <ele>102.0371094</ele>
        <time>2010-06-13T09:04:26Z</time>
      </trkpt>
      <trkpt lat="50.42665" lon="2.05222">
        <ele>103.9597168</ele>
        <time>2010-06-13T09:04:36Z</time>
      </trkpt>
      <trkpt lat="50.42658" lon="2.05207">
        <ele>105.4017334</ele>
        <time>2010-06-13T09:04:46Z</time>
      </trkpt>
      <trkpt lat="50.4265" lon="2.05201">
        <ele>105.8824463</ele>
        <time>2010-06-13T09:04:53Z</time>
      </trkpt>
      <trkpt lat="50.42643" lon="2.05205">
        <ele>105.8824463</ele>
        <time>2010-06-13T09:04:59Z</time>
      </trkpt>
      <trkpt lat="50.42631" lon="2.05216">
        <ele>106.3630371</ele>
        <time>2010-06-13T09:05:09Z</time>
      </trkpt>
      <trkpt lat="50.42621" lon="2.05225">
        <ele>105.8824463</ele>
        <time>2010-06-13T09:05:17Z</time>
      </trkpt>
      <trkpt lat="50.42608" lon="2.05236">
        <ele>105.4017334</ele>
        <time>2010-06-13T09:05:26Z</time>
      </trkpt>
      <trkpt lat="50.42592" lon="2.05249">
        <ele>105.4017334</ele>
        <time>2010-06-13T09:05:37Z</time>
      </trkpt>
      <trkpt lat="50.42576" lon="2.05265">
        <ele>105.4017334</ele>
        <time>2010-06-13T09:05:48Z</time>
      </trkpt>
      <trkpt lat="50.4256" lon="2.0528">
        <ele>106.8436279</ele>
        <time>2010-06-13T09:05:59Z</time>
      </trkpt>
      <trkpt lat="50.42544" lon="2.05296">
        <ele>107.8050537</ele>
        <time>2010-06-13T09:06:09Z</time>
      </trkpt>
      <trkpt lat="50.42528" lon="2.05313">
        <ele>109.2469482</ele>
        <time>2010-06-13T09:06:19Z</time>
      </trkpt>
      <trkpt lat="50.42513" lon="2.05327">
        <ele>110.208252</ele>
        <time>2010-06-13T09:06:27Z</time>
      </trkpt>
      <trkpt lat="50.42493" lon="2.05347">
        <ele>109.7276611</ele>
        <time>2010-06-13T09:06:38Z</time>
      </trkpt>
      <trkpt lat="50.42475" lon="2.05364">
        <ele>109.7276611</ele>
        <time>2010-06-13T09:06:48Z</time>
      </trkpt>
      <trkpt lat="50.42462" lon="2.05377">
        <ele>111.1695557</ele>
        <time>2010-06-13T09:06:55Z</time>
      </trkpt>
      <trkpt lat="50.42462" lon="2.05378">
        <ele>110.6888428</ele>
        <time>2010-06-13T09:07:55Z</time>
      </trkpt>
      <trkpt lat="50.42461" lon="2.05379">
        <ele>110.208252</ele>
        <time>2010-06-13T09:07:56Z</time>
      </trkpt>
      <trkpt lat="50.4246" lon="2.0538">
        <ele>110.208252</ele>
        <time>2010-06-13T09:07:57Z</time>
      </trkpt>
      <trkpt lat="50.42449" lon="2.05393">
        <ele>111.1695557</ele>
        <time>2010-06-13T09:08:02Z</time>
      </trkpt>
      <trkpt lat="50.42433" lon="2.0541">
        <ele>112.6115723</ele>
        <time>2010-06-13T09:08:09Z</time>
      </trkpt>
      <trkpt lat="50.42411" lon="2.05432">
        <ele>114.5341797</ele>
        <time>2010-06-13T09:08:18Z</time>
      </trkpt>
      <trkpt lat="50.42386" lon="2.05454">
        <ele>116.4567871</ele>
        <time>2010-06-13T09:08:27Z</time>
      </trkpt>
      <trkpt lat="50.42363" lon="2.05474">
        <ele>117.8988037</ele>
        <time>2010-06-13T09:08:35Z</time>
      </trkpt>
      <trkpt lat="50.42347" lon="2.05489">
        <ele>118.3793945</ele>
        <time>2010-06-13T09:08:41Z</time>
      </trkpt>
      <trkpt lat="50.42324" lon="2.05509">
        <ele>119.3408203</ele>
        <time>2010-06-13T09:08:49Z</time>
      </trkpt>
      <trkpt lat="50.423" lon="2.05531">
        <ele>121.2635498</ele>
        <time>2010-06-13T09:08:58Z</time>
      </trkpt>
      <trkpt lat="50.4228" lon="2.05549">
        <ele>121.2635498</ele>
        <time>2010-06-13T09:09:05Z</time>
      </trkpt>
      <trkpt lat="50.42272" lon="2.05569">
        <ele>121.7441406</ele>
        <time>2010-06-13T09:09:09Z</time>
      </trkpt>
      <trkpt lat="50.42267" lon="2.05593">
        <ele>120.7828369</ele>
        <time>2010-06-13T09:09:14Z</time>
      </trkpt>
      <trkpt lat="50.42256" lon="2.0563">
        <ele>118.3793945</ele>
        <time>2010-06-13T09:09:21Z</time>
      </trkpt>
      <trkpt lat="50.42248" lon="2.05658">
        <ele>121.2635498</ele>
        <time>2010-06-13T09:09:27Z</time>
      </trkpt>
      <trkpt lat="50.42243" lon="2.05684">
        <ele>121.2635498</ele>
        <time>2010-06-13T09:09:33Z</time>
      </trkpt>
      <trkpt lat="50.42236" lon="2.05708">
        <ele>120.302124</ele>
        <time>2010-06-13T09:09:40Z</time>
      </trkpt>
      <trkpt lat="50.42229" lon="2.05745">
        <ele>120.7828369</ele>
        <time>2010-06-13T09:09:47Z</time>
      </trkpt>
      <trkpt lat="50.42226" lon="2.05789">
        <ele>122.7054443</ele>
        <time>2010-06-13T09:09:53Z</time>
      </trkpt>
      <trkpt lat="50.42232" lon="2.05831">
        <ele>123.1861572</ele>
        <time>2010-06-13T09:09:59Z</time>
      </trkpt>
      <trkpt lat="50.42247" lon="2.0588">
        <ele>123.666748</ele>
        <time>2010-06-13T09:10:06Z</time>
      </trkpt>
      <trkpt lat="50.42265" lon="2.05929">
        <ele>124.1473389</ele>
        <time>2010-06-13T09:10:14Z</time>
      </trkpt>
      <trkpt lat="50.42273" lon="2.05954">
        <ele>124.1473389</ele>
        <time>2010-06-13T09:10:18Z</time>
      </trkpt>
      <trkpt lat="50.42276" lon="2.05977">
        <ele>124.6280518</ele>
        <time>2010-06-13T09:10:22Z</time>
      </trkpt>
      <trkpt lat="50.42268" lon="2.05993">
        <ele>124.6280518</ele>
        <time>2010-06-13T09:10:26Z</time>
      </trkpt>
      <trkpt lat="50.42271" lon="2.05998">
        <ele>124.6280518</ele>
        <time>2010-06-13T09:10:29Z</time>
      </trkpt>
      <trkpt lat="50.42273" lon="2.05997">
        <ele>125.1087646</ele>
        <time>2010-06-13T09:10:30Z</time>
      </trkpt>
      <trkpt lat="50.42283" lon="2.05997">
        <ele>126.0699463</ele>
        <time>2010-06-13T09:10:39Z</time>
      </trkpt>
      <trkpt lat="50.42284" lon="2.06">
        <ele>126.5506592</ele>
        <time>2010-06-13T09:10:41Z</time>
      </trkpt>
      <trkpt lat="50.42288" lon="2.05997">
        <ele>127.0313721</ele>
        <time>2010-06-13T09:10:45Z</time>
      </trkpt>
      <trkpt lat="50.42281" lon="2.0599">
        <ele>127.5119629</ele>
        <time>2010-06-13T09:10:48Z</time>
      </trkpt>
      <trkpt lat="50.42269" lon="2.05994">
        <ele>127.5119629</ele>
        <time>2010-06-13T09:10:51Z</time>
      </trkpt>
      <trkpt lat="50.42243" lon="2.0601">
        <ele>127.9925537</ele>
        <time>2010-06-13T09:10:57Z</time>
      </trkpt>
      <trkpt lat="50.42215" lon="2.06027">
        <ele>127.9925537</ele>
        <time>2010-06-13T09:11:04Z</time>
      </trkpt>
      <trkpt lat="50.42176" lon="2.0605">
        <ele>127.9925537</ele>
        <time>2010-06-13T09:11:12Z</time>
      </trkpt>
      <trkpt lat="50.42133" lon="2.06075">
        <ele>127.0313721</ele>
        <time>2010-06-13T09:11:20Z</time>
      </trkpt>
      <trkpt lat="50.42086" lon="2.06103">
        <ele>126.0699463</ele>
        <time>2010-06-13T09:11:29Z</time>
      </trkpt>
      <trkpt lat="50.42059" lon="2.06119">
        <ele>125.5893555</ele>
        <time>2010-06-13T09:11:35Z</time>
      </trkpt>
      <trkpt lat="50.42027" lon="2.06139">
        <ele>124.1473389</ele>
        <time>2010-06-13T09:11:43Z</time>
      </trkpt>
      <trkpt lat="50.41999" lon="2.06155">
        <ele>124.6280518</ele>
        <time>2010-06-13T09:11:49Z</time>
      </trkpt>
      <trkpt lat="50.41989" lon="2.06159">
        <ele>124.1473389</ele>
        <time>2010-06-13T09:11:51Z</time>
      </trkpt>
      <trkpt lat="50.41952" lon="2.06153">
        <ele>124.6280518</ele>
        <time>2010-06-13T09:11:58Z</time>
      </trkpt>
      <trkpt lat="50.41915" lon="2.06139">
        <ele>127.0313721</ele>
        <time>2010-06-13T09:12:06Z</time>
      </trkpt>
      <trkpt lat="50.41896" lon="2.06131">
        <ele>128.4733887</ele>
        <time>2010-06-13T09:12:11Z</time>
      </trkpt>
      <trkpt lat="50.41888" lon="2.06128">
        <ele>128.9541016</ele>
        <time>2010-06-13T09:12:13Z</time>
      </trkpt>
      <trkpt lat="50.41884" lon="2.06126">
        <ele>128.9541016</ele>
        <time>2010-06-13T09:12:14Z</time>
      </trkpt>
      <trkpt lat="50.41876" lon="2.06123">
        <ele>129.4346924</ele>
        <time>2010-06-13T09:12:16Z</time>
      </trkpt>
      <trkpt lat="50.41842" lon="2.06103">
        <ele>127.5119629</ele>
        <time>2010-06-13T09:12:24Z</time>
      </trkpt>
      <trkpt lat="50.41808" lon="2.0608">
        <ele>124.6280518</ele>
        <time>2010-06-13T09:12:31Z</time>
      </trkpt>
      <trkpt lat="50.41776" lon="2.06063">
        <ele>122.7054443</ele>
        <time>2010-06-13T09:12:37Z</time>
      </trkpt>
      <trkpt lat="50.41745" lon="2.06054">
        <ele>121.2635498</ele>
        <time>2010-06-13T09:12:42Z</time>
      </trkpt>
      <trkpt lat="50.41725" lon="2.06051">
        <ele>119.8214111</ele>
        <time>2010-06-13T09:12:45Z</time>
      </trkpt>
      <trkpt lat="50.41706" lon="2.06044">
        <ele>119.3408203</ele>
        <time>2010-06-13T09:12:48Z</time>
      </trkpt>
      <trkpt lat="50.41681" lon="2.06017">
        <ele>116.9375</ele>
        <time>2010-06-13T09:12:53Z</time>
      </trkpt>
      <trkpt lat="50.4164" lon="2.05956">
        <ele>112.6115723</ele>
        <time>2010-06-13T09:13:03Z</time>
      </trkpt>
      <trkpt lat="50.41616" lon="2.05915">
        <ele>110.208252</ele>
        <time>2010-06-13T09:13:10Z</time>
      </trkpt>
      <trkpt lat="50.41609" lon="2.05885">
        <ele>111.1695557</ele>
        <time>2010-06-13T09:13:14Z</time>
      </trkpt>
      <trkpt lat="50.41603" lon="2.05845">
        <ele>113.572998</ele>
        <time>2010-06-13T09:13:20Z</time>
      </trkpt>
      <trkpt lat="50.41601" lon="2.05822">
        <ele>116.9375</ele>
        <time>2010-06-13T09:13:24Z</time>
      </trkpt>
      <trkpt lat="50.4159" lon="2.05804">
        <ele>116.9375</ele>
        <time>2010-06-13T09:13:29Z</time>
      </trkpt>
      <trkpt lat="50.41576" lon="2.05803">
        <ele>117.4182129</ele>
        <time>2010-06-13T09:13:32Z</time>
      </trkpt>
      <trkpt lat="50.41541" lon="2.05813">
        <ele>115.9761963</ele>
        <time>2010-06-13T09:13:38Z</time>
      </trkpt>
      <trkpt lat="50.41496" lon="2.05828">
        <ele>116.4567871</ele>
        <time>2010-06-13T09:13:44Z</time>
      </trkpt>
      <trkpt lat="50.41441" lon="2.0585">
        <ele>113.0922852</ele>
        <time>2010-06-13T09:13:51Z</time>
      </trkpt>
      <trkpt lat="50.41393" lon="2.05855">
        <ele>112.6115723</ele>
        <time>2010-06-13T09:13:58Z</time>
      </trkpt>
      <trkpt lat="50.41386" lon="2.05855">
        <ele>112.6115723</ele>
        <time>2010-06-13T09:13:59Z</time>
      </trkpt>
      <trkpt lat="50.41362" lon="2.05871">
        <ele>111.6502686</ele>
        <time>2010-06-13T09:14:03Z</time>
      </trkpt>
      <trkpt lat="50.41354" lon="2.05899">
        <ele>111.6502686</ele>
        <time>2010-06-13T09:14:06Z</time>
      </trkpt>
      <trkpt lat="50.41345" lon="2.05956">
        <ele>110.6888428</ele>
        <time>2010-06-13T09:14:12Z</time>
      </trkpt>
      <trkpt lat="50.41343" lon="2.06">
        <ele>109.2469482</ele>
        <time>2010-06-13T09:14:16Z</time>
      </trkpt>
      <trkpt lat="50.41347" lon="2.06034">
        <ele>109.2469482</ele>
        <time>2010-06-13T09:14:19Z</time>
      </trkpt>
      <trkpt lat="50.41364" lon="2.06086">
        <ele>108.2856445</ele>
        <time>2010-06-13T09:14:24Z</time>
      </trkpt>
      <trkpt lat="50.41396" lon="2.06146">
        <ele>104.9210205</ele>
        <time>2010-06-13T09:14:30Z</time>
      </trkpt>
      <trkpt lat="50.41402" lon="2.06183">
        <ele>102.5177002</ele>
        <time>2010-06-13T09:14:33Z</time>
      </trkpt>
      <trkpt lat="50.4139" lon="2.06215">
        <ele>101.0756836</ele>
        <time>2010-06-13T09:14:36Z</time>
      </trkpt>
      <trkpt lat="50.41384" lon="2.06225">
        <ele>100.5950928</ele>
        <time>2010-06-13T09:14:37Z</time>
      </trkpt>
      <trkpt lat="50.41362" lon="2.06251">
        <ele>98.1918945</ele>
        <time>2010-06-13T09:14:40Z</time>
      </trkpt>
      <trkpt lat="50.41327" lon="2.06271">
        <ele>94.8271484</ele>
        <time>2010-06-13T09:14:44Z</time>
      </trkpt>
      <trkpt lat="50.41286" lon="2.06284">
        <ele>92.904541</ele>
        <time>2010-06-13T09:14:48Z</time>
      </trkpt>
      <trkpt lat="50.41265" lon="2.06292">
        <ele>92.4239502</ele>
        <time>2010-06-13T09:14:50Z</time>
      </trkpt>
      <trkpt lat="50.41233" lon="2.06306">
        <ele>90.5013428</ele>
        <time>2010-06-13T09:14:53Z</time>
      </trkpt>
      <trkpt lat="50.41223" lon="2.0631">
        <ele>90.0206299</ele>
        <time>2010-06-13T09:14:54Z</time>
      </trkpt>
      <trkpt lat="50.41168" lon="2.06335">
        <ele>88.5787354</ele>
        <time>2010-06-13T09:14:59Z</time>
      </trkpt>
      <trkpt lat="50.41137" lon="2.0635">
        <ele>88.0980225</ele>
        <time>2010-06-13T09:15:02Z</time>
      </trkpt>
      <trkpt lat="50.41091" lon="2.06374">
        <ele>85.6945801</ele>
        <time>2010-06-13T09:15:07Z</time>
      </trkpt>
      <trkpt lat="50.41072" lon="2.06384">
        <ele>83.7719727</ele>
        <time>2010-06-13T09:15:10Z</time>
      </trkpt>
      <trkpt lat="50.41067" lon="2.06386">
        <ele>83.2913818</ele>
        <time>2010-06-13T09:15:11Z</time>
      </trkpt>
      <trkpt lat="50.41062" lon="2.06388">
        <ele>83.2913818</ele>
        <time>2010-06-13T09:15:12Z</time>
      </trkpt>
      <trkpt lat="50.41056" lon="2.06391">
        <ele>82.810791</ele>
        <time>2010-06-13T09:15:14Z</time>
      </trkpt>
      <trkpt lat="50.41053" lon="2.06392">
        <ele>82.810791</ele>
        <time>2010-06-13T09:15:16Z</time>
      </trkpt>
      <trkpt lat="50.41048" lon="2.06407">
        <ele>83.2913818</ele>
        <time>2010-06-13T09:15:22Z</time>
      </trkpt>
      <trkpt lat="50.41048" lon="2.06418">
        <ele>84.2526855</ele>
        <time>2010-06-13T09:15:24Z</time>
      </trkpt>
      <trkpt lat="50.41049" lon="2.06464">
        <ele>86.175293</ele>
        <time>2010-06-13T09:15:30Z</time>
      </trkpt>
      <trkpt lat="50.41048" lon="2.06483">
        <ele>87.1365967</ele>
        <time>2010-06-13T09:15:32Z</time>
      </trkpt>
      <trkpt lat="50.41036" lon="2.06543">
        <ele>89.539917</ele>
        <time>2010-06-13T09:15:38Z</time>
      </trkpt>
      <trkpt lat="50.41012" lon="2.06617">
        <ele>91.4625244</ele>
        <time>2010-06-13T09:15:45Z</time>
      </trkpt>
      <trkpt lat="50.40994" lon="2.06675">
        <ele>92.4239502</ele>
        <time>2010-06-13T09:15:50Z</time>
      </trkpt>
      <trkpt lat="50.40965" lon="2.06786">
        <ele>93.8658447</ele>
        <time>2010-06-13T09:15:59Z</time>
      </trkpt>
      <trkpt lat="50.40945" lon="2.0688">
        <ele>91.4625244</ele>
        <time>2010-06-13T09:16:06Z</time>
      </trkpt>
      <trkpt lat="50.40921" lon="2.06958">
        <ele>89.539917</ele>
        <time>2010-06-13T09:16:12Z</time>
      </trkpt>
      <trkpt lat="50.40895" lon="2.07018">
        <ele>87.6171875</ele>
        <time>2010-06-13T09:16:17Z</time>
      </trkpt>
      <trkpt lat="50.40854" lon="2.07116">
        <ele>86.6560059</ele>
        <time>2010-06-13T09:16:25Z</time>
      </trkpt>
      <trkpt lat="50.40806" lon="2.07249">
        <ele>85.2139893</ele>
        <time>2010-06-13T09:16:35Z</time>
      </trkpt>
      <trkpt lat="50.40773" lon="2.07328">
        <ele>82.3300781</ele>
        <time>2010-06-13T09:16:41Z</time>
      </trkpt>
      <trkpt lat="50.4071" lon="2.07427">
        <ele>77.5234375</ele>
        <time>2010-06-13T09:16:50Z</time>
      </trkpt>
      <trkpt lat="50.40656" lon="2.07517">
        <ele>74.6395264</ele>
        <time>2010-06-13T09:16:58Z</time>
      </trkpt>
      <trkpt lat="50.40637" lon="2.07577">
        <ele>73.6782227</ele>
        <time>2010-06-13T09:17:02Z</time>
      </trkpt>
      <trkpt lat="50.40628" lon="2.07607">
        <ele>72.7169189</ele>
        <time>2010-06-13T09:17:04Z</time>
      </trkpt>
      <trkpt lat="50.40596" lon="2.07669">
        <ele>71.2749023</ele>
        <time>2010-06-13T09:17:09Z</time>
      </trkpt>
      <trkpt lat="50.40537" lon="2.07761">
        <ele>67.9102783</ele>
        <time>2010-06-13T09:17:17Z</time>
      </trkpt>
      <trkpt lat="50.40493" lon="2.0783">
        <ele>66.4682617</ele>
        <time>2010-06-13T09:17:23Z</time>
      </trkpt>
      <trkpt lat="50.40443" lon="2.07912">
        <ele>65.0263672</ele>
        <time>2010-06-13T09:17:30Z</time>
      </trkpt>
      <trkpt lat="50.40403" lon="2.07985">
        <ele>64.5456543</ele>
        <time>2010-06-13T09:17:36Z</time>
      </trkpt>
      <trkpt lat="50.40344" lon="2.08088">
        <ele>63.1036377</ele>
        <time>2010-06-13T09:17:45Z</time>
      </trkpt>
      <trkpt lat="50.40318" lon="2.08148">
        <ele>65.0263672</ele>
        <time>2010-06-13T09:17:50Z</time>
      </trkpt>
      <trkpt lat="50.40292" lon="2.08219">
        <ele>64.5456543</ele>
        <time>2010-06-13T09:17:56Z</time>
      </trkpt>
      <trkpt lat="50.4028" lon="2.08254">
        <ele>65.5070801</ele>
        <time>2010-06-13T09:17:59Z</time>
      </trkpt>
      <trkpt lat="50.40256" lon="2.08333">
        <ele>66.4682617</ele>
        <time>2010-06-13T09:18:06Z</time>
      </trkpt>
      <trkpt lat="50.4024" lon="2.08387">
        <ele>67.4296875</ele>
        <time>2010-06-13T09:18:11Z</time>
      </trkpt>
      <trkpt lat="50.40221" lon="2.08458">
        <ele>67.4296875</ele>
        <time>2010-06-13T09:18:18Z</time>
      </trkpt>
      <trkpt lat="50.4021" lon="2.08506">
        <ele>67.4296875</ele>
        <time>2010-06-13T09:18:23Z</time>
      </trkpt>
      <trkpt lat="50.40193" lon="2.08577">
        <ele>66.9489746</ele>
        <time>2010-06-13T09:18:30Z</time>
      </trkpt>
      <trkpt lat="50.40169" lon="2.08683">
        <ele>65.0263672</ele>
        <time>2010-06-13T09:18:41Z</time>
      </trkpt>
      <trkpt lat="50.4016" lon="2.08718">
        <ele>64.5456543</ele>
        <time>2010-06-13T09:18:45Z</time>
      </trkpt>
      <trkpt lat="50.40143" lon="2.08778">
        <ele>64.5456543</ele>
        <time>2010-06-13T09:18:52Z</time>
      </trkpt>
      <trkpt lat="50.40124" lon="2.08827">
        <ele>61.1810303</ele>
        <time>2010-06-13T09:18:58Z</time>
      </trkpt>
      <trkpt lat="50.40095" lon="2.08883">
        <ele>56.8551025</ele>
        <time>2010-06-13T09:19:06Z</time>
      </trkpt>
      <trkpt lat="50.4007" lon="2.08929">
        <ele>52.5291748</ele>
        <time>2010-06-13T09:19:13Z</time>
      </trkpt>
      <trkpt lat="50.4006" lon="2.08961">
        <ele>52.5291748</ele>
        <time>2010-06-13T09:19:17Z</time>
      </trkpt>
      <trkpt lat="50.40056" lon="2.09005">
        <ele>52.048584</ele>
        <time>2010-06-13T09:19:22Z</time>
      </trkpt>
      <trkpt lat="50.40057" lon="2.09071">
        <ele>53.0097656</ele>
        <time>2010-06-13T09:19:29Z</time>
      </trkpt>
      <trkpt lat="50.4006" lon="2.09138">
        <ele>53.9711914</ele>
        <time>2010-06-13T09:19:36Z</time>
      </trkpt>
      <trkpt lat="50.40062" lon="2.09198">
        <ele>54.4517822</ele>
        <time>2010-06-13T09:19:43Z</time>
      </trkpt>
      <trkpt lat="50.40064" lon="2.0924">
        <ele>54.4517822</ele>
        <time>2010-06-13T09:19:48Z</time>
      </trkpt>
      <trkpt lat="50.40066" lon="2.09257">
        <ele>54.932373</ele>
        <time>2010-06-13T09:19:50Z</time>
      </trkpt>
      <trkpt lat="50.4007" lon="2.09304">
        <ele>55.4130859</ele>
        <time>2010-06-13T09:19:56Z</time>
      </trkpt>
      <trkpt lat="50.40062" lon="2.09334">
        <ele>56.3745117</ele>
        <time>2010-06-13T09:20:00Z</time>
      </trkpt>
      <trkpt lat="50.40038" lon="2.09379">
        <ele>56.3745117</ele>
        <time>2010-06-13T09:20:06Z</time>
      </trkpt>
      <trkpt lat="50.40018" lon="2.09411">
        <ele>55.4130859</ele>
        <time>2010-06-13T09:20:10Z</time>
      </trkpt>
      <trkpt lat="50.3997" lon="2.09498">
        <ele>51.5678711</ele>
        <time>2010-06-13T09:20:20Z</time>
      </trkpt>
      <trkpt lat="50.39951" lon="2.09542">
        <ele>51.0871582</ele>
        <time>2010-06-13T09:20:25Z</time>
      </trkpt>
      <trkpt lat="50.39934" lon="2.09597">
        <ele>53.4904785</ele>
        <time>2010-06-13T09:20:31Z</time>
      </trkpt>
      <trkpt lat="50.39926" lon="2.09633">
        <ele>53.4904785</ele>
        <time>2010-06-13T09:20:35Z</time>
      </trkpt>
      <trkpt lat="50.39914" lon="2.09663">
        <ele>52.5291748</ele>
        <time>2010-06-13T09:20:39Z</time>
      </trkpt>
      <trkpt lat="50.39872" lon="2.09718">
        <ele>49.6452637</ele>
        <time>2010-06-13T09:20:48Z</time>
      </trkpt>
      <trkpt lat="50.39864" lon="2.09729">
        <ele>49.1645508</ele>
        <time>2010-06-13T09:20:50Z</time>
      </trkpt>
      <trkpt lat="50.39852" lon="2.09766">
        <ele>49.6452637</ele>
        <time>2010-06-13T09:20:55Z</time>
      </trkpt>
      <trkpt lat="50.39853" lon="2.09784">
        <ele>50.1259766</ele>
        <time>2010-06-13T09:20:57Z</time>
      </trkpt>
      <trkpt lat="50.39869" lon="2.09876">
        <ele>50.6065674</ele>
        <time>2010-06-13T09:21:07Z</time>
      </trkpt>
      <trkpt lat="50.39878" lon="2.09941">
        <ele>52.5291748</ele>
        <time>2010-06-13T09:21:14Z</time>
      </trkpt>
      <trkpt lat="50.39886" lon="2.09992">
        <ele>55.4130859</ele>
        <time>2010-06-13T09:21:20Z</time>
      </trkpt>
      <trkpt lat="50.39879" lon="2.10032">
        <ele>56.3745117</ele>
        <time>2010-06-13T09:21:25Z</time>
      </trkpt>
      <trkpt lat="50.39868" lon="2.10076">
        <ele>55.4130859</ele>
        <time>2010-06-13T09:21:30Z</time>
      </trkpt>
      <trkpt lat="50.39873" lon="2.10103">
        <ele>54.4517822</ele>
        <time>2010-06-13T09:21:33Z</time>
      </trkpt>
      <trkpt lat="50.39886" lon="2.10154">
        <ele>54.932373</ele>
        <time>2010-06-13T09:21:39Z</time>
      </trkpt>
      <trkpt lat="50.3989" lon="2.10168">
        <ele>54.4517822</ele>
        <time>2010-06-13T09:21:41Z</time>
      </trkpt>
      <trkpt lat="50.39891" lon="2.10193">
        <ele>53.0097656</ele>
        <time>2010-06-13T09:21:45Z</time>
      </trkpt>
      <trkpt lat="50.39879" lon="2.10202">
        <ele>52.5291748</ele>
        <time>2010-06-13T09:21:48Z</time>
      </trkpt>
      <trkpt lat="50.39834" lon="2.10228">
        <ele>58.2971191</ele>
        <time>2010-06-13T09:21:57Z</time>
      </trkpt>
      <trkpt lat="50.39794" lon="2.10248">
        <ele>57.3358154</ele>
        <time>2010-06-13T09:22:04Z</time>
      </trkpt>
      <trkpt lat="50.39785" lon="2.10254">
        <ele>56.3745117</ele>
        <time>2010-06-13T09:22:06Z</time>
      </trkpt>
      <trkpt lat="50.39765" lon="2.10273">
        <ele>53.4904785</ele>
        <time>2010-06-13T09:22:11Z</time>
      </trkpt>
      <trkpt lat="50.39734" lon="2.10311">
        <ele>51.0871582</ele>
        <time>2010-06-13T09:22:20Z</time>
      </trkpt>
      <trkpt lat="50.39709" lon="2.10334">
        <ele>49.1645508</ele>
        <time>2010-06-13T09:22:27Z</time>
      </trkpt>
      <trkpt lat="50.39705" lon="2.10336">
        <ele>47.7225342</ele>
        <time>2010-06-13T09:22:28Z</time>
      </trkpt>
      <trkpt lat="50.39696" lon="2.10331">
        <ele>46.2806396</ele>
        <time>2010-06-13T09:22:32Z</time>
      </trkpt>
      <trkpt lat="50.39694" lon="2.10322">
        <ele>47.2418213</ele>
        <time>2010-06-13T09:22:34Z</time>
      </trkpt>
      <trkpt lat="50.39687" lon="2.10282">
        <ele>48.2033691</ele>
        <time>2010-06-13T09:22:43Z</time>
      </trkpt>
      <trkpt lat="50.39686" lon="2.10253">
        <ele>48.68396</ele>
        <time>2010-06-13T09:22:49Z</time>
      </trkpt>
      <trkpt lat="50.39691" lon="2.10218">
        <ele>49.1645508</ele>
        <time>2010-06-13T09:22:55Z</time>
      </trkpt>
      <trkpt lat="50.39694" lon="2.10201">
        <ele>48.68396</ele>
        <time>2010-06-13T09:22:59Z</time>
      </trkpt>
      <trkpt lat="50.39698" lon="2.10199">
        <ele>44.838623</ele>
        <time>2010-06-13T09:23:05Z</time>
      </trkpt>
      <trkpt lat="50.39699" lon="2.102">
        <ele>44.838623</ele>
        <time>2010-06-13T09:23:07Z</time>
      </trkpt>
    </trkseg>
  </trk>
</gpx>